| time (UTC) | temp F | wind direction | speed MPH | gust MPH | rain 1hr in | rain 24hr in | rain mn in | humidity % | barometer mb |
| 20260902065239 | 57 | 291 | 7.0 | 12.0 | 0.00 | 0.00 | 0.00 | 68 | 1005.9 |
| 20260902065145 | 57 | 273 | 7.0 | 12.0 | 0.00 | 0.00 | 0.00 | 68 | 1005.9 |
| 20260902065039 | 57 | 250 | 8.0 | 12.0 | 0.00 | 0.00 | 0.00 | 68 | 1005.9 |
| 20260902064948 | 57 | 271 | 9.0 | 12.0 | 0.00 | 0.00 | 0.00 | 68 | 1005.9 |
| 20260902064845 | 57 | 292 | 9.0 | 12.0 | 0.00 | 0.00 | 0.00 | 68 | 1005.9 |
| 20260902064750 | 57 | 274 | 8.0 | 12.0 | 0.00 | 0.00 | 0.00 | 68 | 1005.9 |
| 20260902064649 | 57 | 264 | 7.0 | 11.0 | 0.00 | 0.00 | 0.00 | 68 | 1005.9 |
| 20260902064612 | 57 | 248 | 7.0 | 11.0 | 0.00 | 0.00 | 0.00 | 68 | 1005.9 |
| 20260902064447 | 57 | 296 | 7.0 | 11.0 | 0.00 | 0.00 | 0.00 | 68 | 1005.9 |
| 20260902064413 | 57 | 272 | 7.0 | 10.0 | 0.00 | 0.00 | 0.00 | 68 | 1005.8 |
| 20260902064318 | 57 | 286 | 6.0 | 10.0 | 0.00 | 0.00 | 0.00 | 67 | 1005.9 |
| 20260902064140 | 58 | 255 | 7.0 | 13.0 | 0.00 | 0.00 | 0.00 | 67 | 1005.9 |
| 20260902064102 | 58 | 243 | 7.0 | 13.0 | 0.00 | 0.00 | 0.00 | 67 | 1005.9 |
| 20260902063938 | 58 | 256 | 6.0 | 13.0 | 0.00 | 0.00 | 0.00 | 67 | 1005.9 |
| 20260902063843 | 58 | 257 | 6.0 | 13.0 | 0.00 | 0.00 | 0.00 | 67 | 1005.8 |
| 20260902063738 | 58 | 285 | 5.0 | 13.0 | 0.00 | 0.00 | 0.00 | 67 | 1005.8 |
| 20260902063646 | 58 | 239 | 5.0 | 13.0 | 0.00 | 0.00 | 0.00 | 66 | 1005.9 |
| 20260902063540 | 58 | 250 | 6.0 | 13.0 | 0.00 | 0.00 | 0.00 | 67 | 1005.8 |
| 20260902063506 | 58 | 259 | 7.0 | 13.0 | 0.00 | 0.00 | 0.00 | 67 | 1005.9 |
| 20260902063353 | 58 | 252 | 8.0 | 13.0 | 0.00 | 0.00 | 0.00 | 67 | 1005.9 |
| 20260902063247 | 58 | 265 | 9.0 | 13.0 | 0.00 | 0.00 | 0.00 | 66 | 1005.9 |
| 20260902063216 | 58 | 284 | 8.0 | 13.0 | 0.00 | 0.00 | 0.00 | 66 | 1005.9 |
| 20260902063058 | 58 | 256 | 6.0 | 9.0 | 0.00 | 0.00 | 0.00 | 65 | 1005.9 |
| 20260902062936 | 58 | 267 | 4.0 | 9.0 | 0.00 | 0.00 | 0.00 | 65 | 1005.9 |
| 20260902062903 | 58 | 268 | 3.0 | 11.0 | 0.00 | 0.00 | 0.00 | 65 | 1005.9 |
| 20260902062739 | 58 | 269 | 3.0 | 11.0 | 0.00 | 0.00 | 0.00 | 65 | 1005.9 |
| 20260902062658 | 58 | 271 | 5.0 | 11.0 | 0.00 | 0.00 | 0.00 | 65 | 1005.9 |
| 20260902062545 | 58 | 271 | 6.0 | 11.0 | 0.00 | 0.00 | 0.00 | 65 | 1005.9 |
| 20260902062440 | 58 | 235 | 5.0 | 11.0 | 0.00 | 0.00 | 0.00 | 65 | 1005.9 |
| 20260902062400 | 58 | 237 | 5.0 | 11.0 | 0.00 | 0.00 | 0.00 | 65 | 1005.9 |
| 20260902062246 | 59 | 272 | 4.0 | 14.0 | 0.00 | 0.00 | 0.00 | 65 | 1005.8 |
| 20260902062145 | 59 | 269 | 4.0 | 16.0 | 0.00 | 0.00 | 0.00 | 65 | 1005.8 |
| 20260902062040 | 59 | 271 | 6.0 | 16.0 | 0.00 | 0.00 | 0.00 | 65 | 1005.8 |
| 20260902061944 | 59 | 260 | 6.0 | 16.0 | 0.00 | 0.00 | 0.00 | 64 | 1005.9 |
| 20260902061854 | 59 | 269 | 4.0 | 17.0 | 0.00 | 0.00 | 0.00 | 64 | 1005.7 |
| 20260902061750 | 59 | 269 | 6.0 | 18.0 | 0.00 | 0.00 | 0.00 | 64 | 1005.8 |
| 20260902061638 | 59 | 283 | 6.0 | 18.0 | 0.00 | 0.00 | 0.00 | 64 | 1005.8 |
| 20260902061553 | 59 | 269 | 8.0 | 18.0 | 0.00 | 0.00 | 0.00 | 64 | 1005.8 |
| 20260902061459 | 59 | 267 | 9.0 | 18.0 | 0.00 | 0.00 | 0.00 | 64 | 1005.8 |
| 20260902061336 | 59 | 296 | 7.0 | 18.0 | 0.00 | 0.00 | 0.00 | 64 | 1005.8 |
| 20260902061301 | 59 | 264 | 10.0 | 18.0 | 0.00 | 0.00 | 0.00 | 64 | 1005.8 |
| 20260902061139 | 59 | 285 | 13.0 | 18.0 | 0.00 | 0.00 | 0.00 | 64 | 1005.7 |
| 20260902061046 | 59 | 294 | 11.0 | 18.0 | 0.00 | 0.00 | 0.00 | 64 | 1005.8 |
| 20260902061012 | 59 | 294 | 10.0 | 18.0 | 0.00 | 0.00 | 0.00 | 64 | 1005.8 |
| 20260902060847 | 59 | 264 | 9.0 | 17.0 | 0.00 | 0.00 | 0.00 | 64 | 1005.9 |
| 20260902060744 | 59 | 294 | 10.0 | 17.0 | 0.00 | 0.00 | 0.00 | 64 | 1005.8 |
| 20260902060652 | 59 | 273 | 10.0 | 17.0 | 0.00 | 0.00 | 0.00 | 64 | 1005.8 |
| 20260902060548 | 59 | 276 | 10.0 | 17.0 | 0.00 | 0.00 | 0.00 | 64 | 1005.7 |
| 20260902060453 | 59 | 256 | 10.0 | 17.0 | 0.00 | 0.00 | 0.00 | 64 | 1005.7 |
| 20260902060354 | 59 | 258 | 9.0 | 15.0 | 0.00 | 0.00 | 0.00 | 64 | 1005.7 |
| 20260902060312 | 59 | 269 | 9.0 | 15.0 | 0.00 | 0.00 | 0.00 | 64 | 1005.7 |
| 20260902060226 | 59 | 254 | 9.0 | 15.0 | 0.00 | 0.00 | 0.00 | 64 | 1005.8 |
| 20260902060040 | 59 | 262 | 9.0 | 15.0 | 0.00 | 0.00 | 0.00 | 63 | 1005.7 |
| 20260902055938 | 59 | 266 | 8.0 | 15.0 | 0.00 | 0.00 | 0.00 | 63 | 1005.7 |
| 20260902055844 | 59 | 267 | 11.0 | 15.0 | 0.00 | 0.00 | 0.00 | 63 | 1005.7 |
| 20260902055740 | 59 | 300 | 8.0 | 15.0 | 0.00 | 0.00 | 0.00 | 63 | 1005.7 |
| 20260902055653 | 59 | 257 | 8.0 | 15.0 | 0.00 | 0.00 | 0.00 | 63 | 1005.7 |
| 20260902055548 | 59 | 260 | 8.0 | 14.0 | 0.00 | 0.00 | 0.00 | 63 | 1005.7 |
| 20260902055513 | 59 | 264 | 8.0 | 14.0 | 0.00 | 0.00 | 0.00 | 63 | 1005.7 |
| 20260902055349 | 59 | 268 | 9.0 | 14.0 | 0.00 | 0.00 | 0.00 | 63 | 1005.7 |
| 20260902055254 | 59 | 285 | 8.0 | 14.0 | 0.00 | 0.00 | 0.00 | 63 | 1005.7 |
| 20260902055153 | 59 | 271 | 8.0 | 13.0 | 0.00 | 0.00 | 0.00 | 63 | 1005.7 |
| 20260902055048 | 59 | 264 | 9.0 | 13.0 | 0.00 | 0.00 | 0.00 | 63 | 1005.7 |
| 20260902054939 | 59 | 289 | 9.0 | 14.0 | 0.00 | 0.00 | 0.00 | 63 | 1005.7 |
| 20260902054837 | 59 | 258 | 9.0 | 14.0 | 0.00 | 0.00 | 0.00 | 63 | 1005.7 |
| 20260902054803 | 59 | 296 | 9.0 | 14.0 | 0.00 | 0.00 | 0.00 | 63 | 1005.7 |
| 20260902054641 | 59 | 255 | 9.0 | 14.0 | 0.00 | 0.00 | 0.00 | 63 | 1005.8 |
| 20260902054536 | 59 | 258 | 9.0 | 14.0 | 0.00 | 0.00 | 0.00 | 63 | 1005.9 |
| 20260902054442 | 59 | 279 | 7.0 | 14.0 | 0.00 | 0.00 | 0.00 | 63 | 1005.8 |
| 20260902054342 | 59 | 251 | 7.0 | 14.0 | 0.00 | 0.00 | 0.00 | 63 | 1005.8 |
| 20260902054245 | 59 | 277 | 6.0 | 14.0 | 0.00 | 0.00 | 0.00 | 62 | 1005.8 |
| 20260902054145 | 59 | 253 | 6.0 | 14.0 | 0.00 | 0.00 | 0.00 | 62 | 1005.9 |
| 20260902054048 | 59 | 256 | 6.0 | 14.0 | 0.00 | 0.00 | 0.00 | 62 | 1005.9 |
| 20260902054015 | 59 | 294 | 8.0 | 14.0 | 0.00 | 0.00 | 0.00 | 62 | 1005.9 |
| 20260902053852 | 59 | 288 | 9.0 | 14.0 | 0.00 | 0.00 | 0.00 | 62 | 1005.9 |
| 20260902053748 | 59 | 275 | 8.0 | 14.0 | 0.00 | 0.00 | 0.00 | 62 | 1005.9 |
| 20260902053641 | 59 | 277 | 8.0 | 14.0 | 0.00 | 0.00 | 0.00 | 62 | 1005.9 |
| 20260902053537 | 59 | 315 | 6.0 | 12.0 | 0.00 | 0.00 | 0.00 | 62 | 1005.9 |
| 20260902053503 | 59 | 272 | 6.0 | 12.0 | 0.00 | 0.00 | 0.00 | 62 | 1005.9 |
| 20260902053337 | 59 | 271 | 5.0 | 15.0 | 0.00 | 0.00 | 0.00 | 62 | 1006.0 |
| 20260902053302 | 59 | 239 | 5.0 | 15.0 | 0.00 | 0.00 | 0.00 | 62 | 1006.0 |
| 20260902053141 | 59 | 254 | 7.0 | 15.0 | 0.00 | 0.00 | 0.00 | 62 | 1006.0 |
| 20260902053106 | 60 | 254 | 6.0 | 15.0 | 0.00 | 0.00 | 0.00 | 62 | 1006.0 |
| 20260902052946 | 60 | 254 | 7.0 | 15.0 | 0.00 | 0.00 | 0.00 | 62 | 1006.0 |
| 20260902052852 | 60 | 263 | 8.0 | 15.0 | 0.00 | 0.00 | 0.00 | 61 | 1006.0 |
| 20260902052748 | 60 | 248 | 8.0 | 15.0 | 0.00 | 0.00 | 0.00 | 61 | 1006.1 |
| 20260902052646 | 60 | 266 | 9.0 | 15.0 | 0.00 | 0.00 | 0.00 | 61 | 1006.0 |
| 20260902052549 | 60 | 271 | 9.0 | 15.0 | 0.00 | 0.00 | 0.00 | 61 | 1006.0 |
| 20260902052446 | 60 | 256 | 9.0 | 14.0 | 0.00 | 0.00 | 0.00 | 61 | 1006.0 |
| 20260902052350 | 60 | 267 | 10.0 | 14.0 | 0.00 | 0.00 | 0.00 | 61 | 1006.0 |
| 20260902052250 | 60 | 258 | 8.0 | 14.0 | 0.00 | 0.00 | 0.00 | 61 | 1006.0 |
| 20260902052218 | 60 | 266 | 7.0 | 14.0 | 0.00 | 0.00 | 0.00 | 61 | 1006.0 |
| 20260902052100 | 60 | 288 | 6.0 | 12.0 | 0.00 | 0.00 | 0.00 | 61 | 1005.9 |
| 20260902051937 | 60 | 287 | 6.0 | 12.0 | 0.00 | 0.00 | 0.00 | 61 | 1005.9 |
| 20260902051843 | 60 | 285 | 7.0 | 12.0 | 0.00 | 0.00 | 0.00 | 60 | 1005.9 |
| 20260902051740 | 60 | 283 | 6.0 | 12.0 | 0.00 | 0.00 | 0.00 | 60 | 1005.9 |
| 20260902051639 | 60 | 286 | 4.0 | 11.0 | 0.00 | 0.00 | 0.00 | 60 | 1005.9 |
| 20260902051547 | 60 | 291 | 6.0 | 11.0 | 0.00 | 0.00 | 0.00 | 60 | 1005.8 |
| 20260902051444 | 60 | 291 | 7.0 | 11.0 | 0.00 | 0.00 | 0.00 | 60 | 1005.9 |
| 20260902051349 | 60 | 281 | 5.0 | 10.0 | 0.00 | 0.00 | 0.00 | 60 | 1005.9 |
| 20260902051246 | 60 | 273 | 4.0 | 11.0 | 0.00 | 0.00 | 0.00 | 60 | 1005.9 |
| 20260902051154 | 60 | 272 | 3.0 | 11.0 | 0.00 | 0.00 | 0.00 | 60 | 1005.9 |
| 20260902051048 | 60 | 327 | 3.0 | 11.0 | 0.00 | 0.00 | 0.00 | 60 | 1005.8 |
| 20260902050944 | 60 | 327 | 4.0 | 11.0 | 0.00 | 0.00 | 0.00 | 60 | 1005.9 |
| 20260902050914 | 60 | 327 | 3.0 | 18.0 | 0.00 | 0.00 | 0.00 | 60 | 1005.8 |
| 20260902050800 | 60 | 331 | 5.0 | 18.0 | 0.00 | 0.00 | 0.00 | 60 | 1005.8 |
| 20260902050638 | 60 | 244 | 6.0 | 18.0 | 0.00 | 0.00 | 0.00 | 60 | 1005.8 |
| 20260902050550 | 60 | 277 | 6.0 | 18.0 | 0.00 | 0.00 | 0.00 | 60 | 1005.8 |
| 20260902050456 | 60 | 271 | 7.0 | 18.0 | 0.00 | 0.00 | 0.00 | 60 | 1005.8 |
| 20260902050354 | 60 | 267 | 9.0 | 18.0 | 0.00 | 0.00 | 0.00 | 60 | 1005.7 |
| 20260902050254 | 60 | 287 | 9.0 | 18.0 | 0.00 | 0.00 | 0.00 | 60 | 1005.7 |
| 20260902050140 | 60 | 266 | 9.0 | 18.0 | 0.00 | 0.00 | 0.00 | 60 | 1005.8 |
| 20260902050104 | 60 | 273 | 8.0 | 18.0 | 0.00 | 0.00 | 0.00 | 60 | 1005.9 |
| 20260902045941 | 60 | 291 | 5.0 | 16.0 | 0.00 | 0.00 | 0.00 | 60 | 1005.7 |
| 20260902045847 | 60 | 254 | 5.0 | 16.0 | 0.00 | 0.00 | 0.00 | 60 | 1005.7 |
| 20260902045743 | 60 | 322 | 6.0 | 16.0 | 0.00 | 0.00 | 0.00 | 60 | 1005.7 |
| 20260902045642 | 60 | 279 | 7.0 | 16.0 | 0.00 | 0.00 | 0.00 | 60 | 1005.7 |
| 20260902045550 | 60 | 281 | 8.0 | 16.0 | 0.00 | 0.00 | 0.00 | 60 | 1005.7 |
| 20260902045454 | 60 | 307 | 9.0 | 16.0 | 0.00 | 0.00 | 0.00 | 60 | 1005.7 |
| 20260902045419 | 60 | 287 | 10.0 | 16.0 | 0.00 | 0.00 | 0.00 | 60 | 1005.7 |
| 20260902045254 | 60 | 306 | 7.0 | 16.0 | 0.00 | 0.00 | 0.00 | 59 | 1005.6 |
| 20260902045153 | 60 | 279 | 5.0 | 15.0 | 0.00 | 0.00 | 0.00 | 59 | 1005.6 |
| 20260902045037 | 60 | 269 | 6.0 | 15.0 | 0.00 | 0.00 | 0.00 | 59 | 1005.7 |
| 20260902044954 | 60 | 326 | 5.0 | 15.0 | 0.00 | 0.00 | 0.00 | 59 | 1005.6 |
| 20260902044839 | 60 | 282 | 7.0 | 15.0 | 0.00 | 0.00 | 0.00 | 59 | 1005.6 |
| 20260902044741 | 60 | 264 | 7.0 | 16.0 | 0.00 | 0.00 | 0.00 | 59 | 1005.6 |
| 20260902044639 | 60 | 262 | 6.0 | 16.0 | 0.00 | 0.00 | 0.00 | 59 | 1005.6 |
| 20260902044544 | 60 | 245 | 7.0 | 16.0 | 0.00 | 0.00 | 0.00 | 59 | 1005.6 |
| 20260902044449 | 60 | 300 | 9.0 | 16.0 | 0.00 | 0.00 | 0.00 | 59 | 1005.6 |
| 20260902044344 | 60 | 303 | 9.0 | 16.0 | 0.00 | 0.00 | 0.00 | 59 | 1005.6 |
| 20260902044240 | 60 | 298 | 8.0 | 16.0 | 0.00 | 0.00 | 0.00 | 59 | 1005.6 |
| 20260902044149 | 60 | 287 | 8.0 | 16.0 | 0.00 | 0.00 | 0.00 | 59 | 1005.6 |
| 20260902044049 | 60 | 274 | 9.0 | 16.0 | 0.00 | 0.00 | 0.00 | 59 | 1005.6 |
| 20260902043955 | 60 | 295 | 9.0 | 16.0 | 0.00 | 0.00 | 0.00 | 59 | 1005.5 |
| 20260902043852 | 60 | 249 | 8.0 | 14.0 | 0.00 | 0.00 | 0.00 | 59 | 1005.5 |
| 20260902043755 | 60 | 277 | 7.0 | 14.0 | 0.00 | 0.00 | 0.00 | 59 | 1005.5 |
| 20260902043653 | 60 | 269 | 7.0 | 14.0 | 0.00 | 0.00 | 0.00 | 58 | 1005.5 |
| 20260902043557 | 60 | 273 | 8.0 | 14.0 | 0.00 | 0.00 | 0.00 | 58 | 1005.5 |
| 20260902043502 | 60 | 283 | 7.0 | 14.0 | 0.00 | 0.00 | 0.00 | 58 | 1005.4 |
| 20260902043343 | 60 | 264 | 7.0 | 14.0 | 0.00 | 0.00 | 0.00 | 58 | 1005.4 |
| 20260902043240 | 60 | 262 | 8.0 | 14.0 | 0.00 | 0.00 | 0.00 | 58 | 1005.5 |
| 20260902043147 | 60 | 293 | 6.0 | 13.0 | 0.00 | 0.00 | 0.00 | 58 | 1005.3 |
| 20260902043110 | 60 | 285 | 7.0 | 13.0 | 0.00 | 0.00 | 0.00 | 58 | 1005.3 |
| 20260902042945 | 60 | 277 | 9.0 | 13.0 | 0.00 | 0.00 | 0.00 | 58 | 1005.3 |
| 20260902042843 | 60 | 283 | 9.0 | 13.0 | 0.00 | 0.00 | 0.00 | 58 | 1005.4 |
| 20260902042749 | 60 | 300 | 8.0 | 13.0 | 0.00 | 0.00 | 0.00 | 58 | 1005.3 |
| 20260902042651 | 60 | 308 | 8.0 | 13.0 | 0.00 | 0.00 | 0.00 | 58 | 1005.3 |
| 20260902042615 | 60 | 249 | 7.0 | 13.0 | 0.00 | 0.00 | 0.00 | 58 | 1005.3 |
| 20260902042503 | 60 | 289 | 6.0 | 13.0 | 0.00 | 0.00 | 0.00 | 58 | 1005.3 |
| 20260902042338 | 60 | 290 | 6.0 | 11.0 | 0.00 | 0.00 | 0.00 | 58 | 1005.3 |
| 20260902042255 | 60 | 277 | 7.0 | 11.0 | 0.00 | 0.00 | 0.00 | 58 | 1005.3 |
| 20260902042204 | 61 | 293 | 6.0 | 11.0 | 0.00 | 0.00 | 0.00 | 58 | 1005.3 |
| 20260902042040 | 61 | 292 | 5.0 | 11.0 | 0.00 | 0.00 | 0.00 | 58 | 1005.2 |
| 20260902041941 | 61 | 294 | 6.0 | 11.0 | 0.00 | 0.00 | 0.00 | 58 | 1005.3 |
| 20260902041904 | 61 | 298 | 5.0 | 11.0 | 0.00 | 0.00 | 0.00 | 58 | 1005.3 |
| 20260902041750 | 61 | 302 | 4.0 | 11.0 | 0.00 | 0.00 | 0.00 | 58 | 1005.2 |
| 20260902041648 | 61 | 310 | 4.0 | 11.0 | 0.00 | 0.00 | 0.00 | 58 | 1005.2 |
| 20260902041543 | 61 | 310 | 6.0 | 11.0 | 0.00 | 0.00 | 0.00 | 58 | 1005.2 |
| 20260902041509 | 61 | 321 | 5.0 | 11.0 | 0.00 | 0.00 | 0.00 | 58 | 1005.3 |
| 20260902041355 | 61 | 312 | 6.0 | 11.0 | 0.00 | 0.00 | 0.00 | 58 | 1005.3 |
| 20260902041236 | 61 | 300 | 6.0 | 13.0 | 0.00 | 0.00 | 0.00 | 58 | 1005.3 |
| 20260902041155 | 61 | 260 | 4.0 | 13.0 | 0.00 | 0.00 | 0.00 | 58 | 1005.3 |
| 20260902041039 | 61 | 314 | 5.0 | 15.0 | 0.00 | 0.00 | 0.00 | 58 | 1005.3 |
| 20260902040943 | 61 | 277 | 5.0 | 18.0 | 0.00 | 0.00 | 0.00 | 58 | 1005.2 |
| 20260902040839 | 61 | 277 | 5.0 | 18.0 | 0.00 | 0.00 | 0.00 | 58 | 1005.2 |
| 20260902040747 | 61 | 277 | 5.0 | 18.0 | 0.00 | 0.00 | 0.00 | 58 | 1005.2 |
| 20260902040646 | 61 | 279 | 6.0 | 18.0 | 0.00 | 0.00 | 0.00 | 58 | 1005.2 |
| 20260902040545 | 61 | 270 | 8.0 | 18.0 | 0.00 | 0.00 | 0.00 | 58 | 1005.2 |
| 20260902040451 | 61 | 266 | 9.0 | 18.0 | 0.00 | 0.00 | 0.00 | 58 | 1005.1 |
| 20260902040348 | 61 | 260 | 9.0 | 18.0 | 0.00 | 0.00 | 0.00 | 58 | 1005.0 |
| 20260902040306 | 61 | 302 | 9.0 | 18.0 | 0.00 | 0.00 | 0.00 | 58 | 1005.0 |
| 20260902040149 | 61 | 314 | 10.0 | 18.0 | 0.00 | 0.00 | 0.00 | 58 | 1005.0 |
| 20260902040054 | 61 | 263 | 9.0 | 18.0 | 0.00 | 0.00 | 0.00 | 58 | 1004.8 |
| 20260902035951 | 61 | 319 | 5.0 | 13.0 | 0.00 | 0.00 | 0.00 | 58 | 1004.8 |
| 20260902035902 | 61 | 239 | 6.0 | 13.0 | 0.00 | 0.00 | 0.00 | 58 | 1004.8 |
| 20260902035737 | 61 | 286 | 7.0 | 13.0 | 0.00 | 0.00 | 0.00 | 58 | 1004.8 |
| 20260902035637 | 61 | 280 | 9.0 | 13.0 | 0.00 | 0.00 | 0.00 | 58 | 1004.8 |
| 20260902035541 | 61 | 289 | 10.0 | 13.0 | 0.00 | 0.00 | 0.00 | 58 | 1004.8 |
| 20260902035438 | 61 | 277 | 8.0 | 12.0 | 0.00 | 0.00 | 0.00 | 58 | 1004.8 |
| 20260902035405 | 61 | 292 | 5.0 | 12.0 | 0.00 | 0.00 | 0.00 | 58 | 1004.9 |
| 20260902035241 | 61 | 261 | 2.0 | 12.0 | 0.00 | 0.00 | 0.00 | 58 | 1004.7 |
| 20260902035151 | 61 | 260 | 2.0 | 14.0 | 0.00 | 0.00 | 0.00 | 58 | 1004.8 |
| 20260902035046 | 61 | 260 | 2.0 | 14.0 | 0.00 | 0.00 | 0.00 | 58 | 1004.7 |
| 20260902035012 | 61 | 244 | 2.0 | 19.0 | 0.00 | 0.00 | 0.00 | 58 | 1004.7 |
| 20260902034858 | 61 | 242 | 3.0 | 20.0 | 0.00 | 0.00 | 0.00 | 58 | 1004.6 |
| 20260902034749 | 61 | 243 | 6.0 | 20.0 | 0.00 | 0.00 | 0.00 | 58 | 1004.6 |
| 20260902034644 | 61 | 248 | 7.0 | 20.0 | 0.00 | 0.00 | 0.00 | 58 | 1004.6 |
| 20260902034548 | 61 | 299 | 6.0 | 20.0 | 0.00 | 0.00 | 0.00 | 58 | 1004.6 |
| 20260902034449 | 61 | 291 | 8.0 | 20.0 | 0.00 | 0.00 | 0.00 | 58 | 1004.6 |
| 20260902034354 | 61 | 295 | 10.0 | 20.0 | 0.00 | 0.00 | 0.00 | 58 | 1004.5 |
| 20260902034248 | 61 | 266 | 11.0 | 20.0 | 0.00 | 0.00 | 0.00 | 58 | 1004.6 |
| 20260902034216 | 61 | 287 | 13.0 | 20.0 | 0.00 | 0.00 | 0.00 | 58 | 1004.6 |
| 20260902034059 | 61 | 294 | 13.0 | 20.0 | 0.00 | 0.00 | 0.00 | 58 | 1004.5 |
| 20260902033956 | 61 | 239 | 12.0 | 20.0 | 0.00 | 0.00 | 0.00 | 58 | 1004.4 |
| 20260902033852 | 61 | 271 | 8.0 | 20.0 | 0.00 | 0.00 | 0.00 | 58 | 1004.5 |
| 20260902033742 | 61 | 273 | 6.0 | 20.0 | 0.00 | 0.00 | 0.00 | 58 | 1004.5 |
| 20260902033641 | 61 | 312 | 7.0 | 20.0 | 0.00 | 0.00 | 0.00 | 58 | 1004.5 |
| 20260902033602 | 61 | 273 | 8.0 | 20.0 | 0.00 | 0.00 | 0.00 | 58 | 1004.4 |
| 20260902033440 | 61 | 259 | 11.0 | 21.0 | 0.00 | 0.00 | 0.00 | 58 | 1004.5 |
| 20260902033336 | 61 | 336 | 12.0 | 21.0 | 0.00 | 0.00 | 0.00 | 58 | 1004.3 |
| 20260902033244 | 61 | 256 | 12.0 | 21.0 | 0.00 | 0.00 | 0.00 | 58 | 1004.4 |
| 20260902033141 | 61 | 273 | 11.0 | 21.0 | 0.00 | 0.00 | 0.00 | 58 | 1004.4 |
| 20260902033050 | 61 | 291 | 12.0 | 21.0 | 0.00 | 0.00 | 0.00 | 58 | 1004.3 |
| 20260902032946 | 61 | 262 | 13.0 | 21.0 | 0.00 | 0.00 | 0.00 | 58 | 1004.4 |
| 20260902032851 | 61 | 291 | 13.0 | 21.0 | 0.00 | 0.00 | 0.00 | 58 | 1004.4 |
| 20260902032808 | 62 | 239 | 14.0 | 21.0 | 0.00 | 0.00 | 0.00 | 58 | 1004.2 |
| 20260902032715 | 62 | 297 | 15.0 | 21.0 | 0.00 | 0.00 | 0.00 | 58 | 1004.3 |
| 20260902032557 | 62 | 262 | 12.0 | 21.0 | 0.00 | 0.00 | 0.00 | 58 | 1004.2 |
| 20260902032515 | 62 | 276 | 13.0 | 21.0 | 0.00 | 0.00 | 0.00 | 58 | 1004.1 |
| 20260902032343 | 62 | 269 | 14.0 | 21.0 | 0.00 | 0.00 | 0.00 | 58 | 1004.1 |
| 20260902032240 | 62 | 244 | 13.0 | 21.0 | 0.00 | 0.00 | 0.00 | 58 | 1004.1 |
| 20260902032140 | 62 | 277 | 10.0 | 21.0 | 0.00 | 0.00 | 0.00 | 58 | 1004.0 |
| 20260902032042 | 62 | 278 | 10.0 | 21.0 | 0.00 | 0.00 | 0.00 | 58 | 1004.0 |
| 20260902031939 | 62 | 239 | 11.0 | 21.0 | 0.00 | 0.00 | 0.00 | 58 | 1004.0 |
| 20260902031844 | 62 | 289 | 12.0 | 21.0 | 0.00 | 0.00 | 0.00 | 58 | 1004.0 |
| 20260902031740 | 62 | 284 | 11.0 | 25.0 | 0.00 | 0.00 | 0.00 | 58 | 1004.0 |
| 20260902031712 | 62 | 284 | 11.0 | 25.0 | 0.00 | 0.00 | 0.00 | 58 | 1003.9 |
| 20260902031554 | 62 | 277 | 13.0 | 26.0 | 0.00 | 0.00 | 0.00 | 58 | 1003.9 |
| 20260902031448 | 62 | 260 | 13.0 | 26.0 | 0.00 | 0.00 | 0.00 | 58 | 1003.9 |
| 20260902031413 | 62 | 298 | 13.0 | 26.0 | 0.00 | 0.00 | 0.00 | 58 | 1004.0 |
| 20260902031249 | 62 | 268 | 11.0 | 26.0 | 0.00 | 0.00 | 0.00 | 58 | 1003.9 |
| 20260902031157 | 62 | 249 | 11.0 | 26.0 | 0.00 | 0.00 | 0.00 | 58 | 1003.9 |
| 20260902031052 | 62 | 262 | 15.0 | 26.0 | 0.00 | 0.00 | 0.00 | 58 | 1003.8 |
| 20260902030950 | 62 | 287 | 15.0 | 26.0 | 0.00 | 0.00 | 0.00 | 58 | 1003.8 |
| 20260902030840 | 62 | 284 | 15.0 | 26.0 | 0.00 | 0.00 | 0.00 | 58 | 1003.9 |
| 20260902030757 | 62 | 275 | 16.0 | 26.0 | 0.00 | 0.00 | 0.00 | 58 | 1003.9 |
| 20260902030704 | 62 | 256 | 17.0 | 23.0 | 0.00 | 0.00 | 0.00 | 57 | 1003.8 |
| 20260902030607 | 62 | 226 | 16.0 | 23.0 | 0.00 | 0.00 | 0.00 | 57 | 1003.8 |
| 20260902030444 | 63 | 282 | 15.0 | 23.0 | 0.00 | 0.00 | 0.00 | 57 | 1003.8 |
| 20260902030348 | 63 | 291 | 14.0 | 23.0 | 0.00 | 0.00 | 0.00 | 57 | 1003.8 |
| 20260902030327 | 63 | 286 | 12.0 | 21.0 | 0.00 | 0.00 | 0.00 | 57 | 1003.8 |
| 20260902030152 | 63 | 217 | 12.0 | 21.0 | 0.00 | 0.00 | 0.00 | 57 | 1003.7 |
| 20260902030059 | 63 | 249 | 14.0 | 21.0 | 0.00 | 0.00 | 0.00 | 57 | 1003.8 |
| 20260902025954 | 63 | 229 | 12.0 | 21.0 | 0.00 | 0.00 | 0.00 | 57 | 1003.7 |
| 20260902025900 | 63 | 274 | 9.0 | 24.0 | 0.00 | 0.00 | 0.00 | 57 | 1003.7 |
| 20260902025805 | 63 | 252 | 10.0 | 24.0 | 0.00 | 0.00 | 0.00 | 57 | 1003.7 |
| 20260902025703 | 63 | 285 | 13.0 | 24.0 | 0.00 | 0.00 | 0.00 | 57 | 1003.7 |
| 20260902025537 | 63 | 278 | 12.0 | 24.0 | 0.00 | 0.00 | 0.00 | 57 | 1003.7 |
| 20260902025444 | 63 | 277 | 9.0 | 30.0 | 0.00 | 0.00 | 0.00 | 57 | 1003.6 |
| 20260902025345 | 63 | 233 | 9.0 | 30.0 | 0.00 | 0.00 | 0.00 | 57 | 1003.6 |
| 20260902025251 | 63 | 269 | 10.0 | 30.0 | 0.00 | 0.00 | 0.00 | 56 | 1003.6 |
| 20260902025149 | 63 | 245 | 15.0 | 30.0 | 0.00 | 0.00 | 0.00 | 56 | 1003.7 |
| 20260902025115 | 63 | 271 | 15.0 | 30.0 | 0.00 | 0.00 | 0.00 | 56 | 1003.6 |
| 20260902024950 | 63 | 268 | 14.0 | 30.0 | 0.00 | 0.00 | 0.00 | 56 | 1003.5 |
| 20260902024855 | 63 | 263 | 14.0 | 30.0 | 0.00 | 0.00 | 0.00 | 56 | 1003.6 |
| 20260902024752 | 63 | 276 | 16.0 | 30.0 | 0.00 | 0.00 | 0.00 | 56 | 1003.6 |
| 20260902024705 | 63 | 279 | 16.0 | 30.0 | 0.00 | 0.00 | 0.00 | 56 | 1003.6 |
| 20260902024537 | 64 | 249 | 15.0 | 26.0 | 0.00 | 0.00 | 0.00 | 55 | 1003.6 |
| 20260902024455 | 64 | 275 | 14.0 | 26.0 | 0.00 | 0.00 | 0.00 | 55 | 1003.5 |
| 20260902024338 | 64 | 265 | 12.0 | 26.0 | 0.00 | 0.00 | 0.00 | 55 | 1003.6 |
| 20260902024255 | 64 | 246 | 13.0 | 26.0 | 0.00 | 0.00 | 0.00 | 55 | 1003.6 |
| 20260902024203 | 64 | 307 | 15.0 | 26.0 | 0.00 | 0.00 | 0.00 | 55 | 1003.5 |
| 20260902024042 | 64 | 300 | 15.0 | 26.0 | 0.00 | 0.00 | 0.00 | 54 | 1003.4 |
| 20260902024009 | 64 | 252 | 13.0 | 26.0 | 0.00 | 0.00 | 0.00 | 54 | 1003.4 |
| 20260902023843 | 64 | 258 | 14.0 | 26.0 | 0.00 | 0.00 | 0.00 | 54 | 1003.4 |
| 20260902023740 | 64 | 267 | 13.0 | 26.0 | 0.00 | 0.00 | 0.00 | 54 | 1003.4 |
| 20260902023709 | 64 | 243 | 13.0 | 24.0 | 0.00 | 0.00 | 0.00 | 54 | 1003.4 |
| 20260902023552 | 64 | 221 | 13.0 | 24.0 | 0.00 | 0.00 | 0.00 | 54 | 1003.3 |
| 20260902023448 | 64 | 277 | 14.0 | 24.0 | 0.00 | 0.00 | 0.00 | 54 | 1003.3 |
| 20260902023414 | 64 | 229 | 14.0 | 24.0 | 0.00 | 0.00 | 0.00 | 54 | 1003.3 |
| 20260902023310 | 64 | 275 | 13.0 | 22.0 | 0.00 | 0.00 | 0.00 | 53 | 1003.3 |
| 20260902023201 | 64 | 284 | 12.0 | 22.0 | 0.00 | 0.00 | 0.00 | 53 | 1003.3 |
| 20260902023104 | 65 | 247 | 12.0 | 22.0 | 0.00 | 0.00 | 0.00 | 53 | 1003.3 |
| 20260902023001 | 65 | 254 | 10.0 | 22.0 | 0.00 | 0.00 | 0.00 | 53 | 1003.4 |
| 20260902022846 | 65 | 274 | 11.0 | 24.0 | 0.00 | 0.00 | 0.00 | 53 | 1003.3 |
| 20260902022743 | 65 | 289 | 12.0 | 24.0 | 0.00 | 0.00 | 0.00 | 53 | 1003.3 |
| 20260902022712 | 65 | 305 | 12.0 | 24.0 | 0.00 | 0.00 | 0.00 | 53 | 1003.3 |
| 20260902022546 | 65 | 251 | 13.0 | 24.0 | 0.00 | 0.00 | 0.00 | 52 | 1003.3 |
| 20260902022456 | 65 | 260 | 15.0 | 24.0 | 0.00 | 0.00 | 0.00 | 52 | 1003.3 |
| 20260902022353 | 65 | 248 | 15.0 | 24.0 | 0.00 | 0.00 | 0.00 | 52 | 1003.3 |
| 20260902022320 | 65 | 244 | 14.0 | 24.0 | 0.00 | 0.00 | 0.00 | 52 | 1003.3 |
| 20260902022157 | 65 | 277 | 14.0 | 24.0 | 0.00 | 0.00 | 0.00 | 52 | 1003.3 |
| 20260902022040 | 65 | 274 | 13.0 | 24.0 | 0.00 | 0.00 | 0.00 | 52 | 1003.3 |
| 20260902021957 | 65 | 258 | 12.0 | 22.0 | 0.00 | 0.00 | 0.00 | 51 | 1003.3 |
| 20260902021902 | 65 | 235 | 11.0 | 22.0 | 0.00 | 0.00 | 0.00 | 51 | 1003.3 |
| 20260902021746 | 65 | 250 | 12.0 | 22.0 | 0.00 | 0.00 | 0.00 | 51 | 1003.2 |
| 20260902021645 | 66 | 273 | 13.0 | 22.0 | 0.00 | 0.00 | 0.00 | 51 | 1003.3 |
| 20260902021549 | 66 | 298 | 14.0 | 23.0 | 0.00 | 0.00 | 0.00 | 51 | 1003.2 |
| 20260902021444 | 66 | 269 | 14.0 | 23.0 | 0.00 | 0.00 | 0.00 | 50 | 1003.2 |
| 20260902021349 | 66 | 269 | 15.0 | 23.0 | 0.00 | 0.00 | 0.00 | 50 | 1003.3 |
| 20260902021246 | 66 | 254 | 13.0 | 23.0 | 0.00 | 0.00 | 0.00 | 50 | 1003.3 |
| 20260902021153 | 66 | 242 | 10.0 | 23.0 | 0.00 | 0.00 | 0.00 | 50 | 1003.2 |
| 20260902021047 | 66 | 239 | 11.0 | 23.0 | 0.00 | 0.00 | 0.00 | 50 | 1003.2 |
| 20260902020953 | 66 | 262 | 12.0 | 23.0 | 0.00 | 0.00 | 0.00 | 50 | 1003.2 |
| 20260902020854 | 66 | 262 | 14.0 | 23.0 | 0.00 | 0.00 | 0.00 | 50 | 1003.2 |
| 20260902020800 | 66 | 261 | 12.0 | 23.0 | 0.00 | 0.00 | 0.00 | 49 | 1003.2 |
| 20260902020640 | 66 | 266 | 10.0 | 20.0 | 0.00 | 0.00 | 0.00 | 49 | 1003.3 |
| 20260902020555 | 66 | 242 | 11.0 | 20.0 | 0.00 | 0.00 | 0.00 | 49 | 1003.3 |
| 20260902020439 | 67 | 264 | 11.0 | 20.0 | 0.00 | 0.00 | 0.00 | 49 | 1003.2 |
| 20260902020356 | 67 | 262 | 11.0 | 20.0 | 0.00 | 0.00 | 0.00 | 49 | 1003.3 |
| 20260902020317 | 67 | 281 | 10.0 | 20.0 | 0.00 | 0.00 | 0.00 | 49 | 1003.3 |
| 20260902020141 | 67 | 266 | 11.0 | 20.0 | 0.00 | 0.00 | 0.00 | 48 | 1003.3 |
| 20260902020045 | 67 | 280 | 12.0 | 20.0 | 0.00 | 0.00 | 0.00 | 48 | 1003.3 |
| 20260902015943 | 67 | 255 | 13.0 | 20.0 | 0.00 | 0.00 | 0.00 | 48 | 1003.3 |
| 20260902015847 | 67 | 252 | 13.0 | 20.0 | 0.00 | 0.00 | 0.00 | 48 | 1003.3 |
| 20260902015744 | 67 | 284 | 13.0 | 19.0 | 0.00 | 0.00 | 0.00 | 48 | 1003.3 |
| 20260902015643 | 67 | 262 | 12.0 | 19.0 | 0.00 | 0.00 | 0.00 | 48 | 1003.3 |
| 20260902015551 | 67 | 270 | 11.0 | 19.0 | 0.00 | 0.00 | 0.00 | 48 | 1003.3 |
| 20260902015457 | 67 | 271 | 8.0 | 19.0 | 0.00 | 0.00 | 0.00 | 48 | 1003.2 |
| 20260902015354 | 67 | 279 | 8.0 | 19.0 | 0.00 | 0.00 | 0.00 | 48 | 1003.2 |
| 20260902015239 | 67 | 252 | 9.0 | 19.0 | 0.00 | 0.00 | 0.00 | 48 | 1003.2 |
| 20260902015138 | 67 | 238 | 10.0 | 19.0 | 0.00 | 0.00 | 0.00 | 48 | 1003.2 |
| 20260902015101 | 67 | 269 | 11.0 | 19.0 | 0.00 | 0.00 | 0.00 | 48 | 1003.2 |
| 20260902014939 | 67 | 264 | 11.0 | 19.0 | 0.00 | 0.00 | 0.00 | 48 | 1003.3 |
| 20260902014839 | 67 | 256 | 10.0 | 19.0 | 0.00 | 0.00 | 0.00 | 48 | 1003.3 |
| 20260902014745 | 67 | 265 | 11.0 | 19.0 | 0.00 | 0.00 | 0.00 | 48 | 1003.2 |
| 20260902014652 | 67 | 252 | 12.0 | 20.0 | 0.00 | 0.00 | 0.00 | 48 | 1003.3 |
| 20260902014546 | 67 | 284 | 14.0 | 20.0 | 0.00 | 0.00 | 0.00 | 48 | 1003.2 |
| 20260902014442 | 67 | 265 | 12.0 | 23.0 | 0.00 | 0.00 | 0.00 | 48 | 1003.2 |
| 20260902014342 | 67 | 229 | 11.0 | 23.0 | 0.00 | 0.00 | 0.00 | 48 | 1003.2 |
| 20260902014308 | 67 | 246 | 12.0 | 23.0 | 0.00 | 0.00 | 0.00 | 48 | 1003.2 |
| 20260902014205 | 67 | 233 | 11.0 | 23.0 | 0.00 | 0.00 | 0.00 | 48 | 1003.1 |
| 20260902014054 | 67 | 280 | 10.0 | 23.0 | 0.00 | 0.00 | 0.00 | 48 | 1003.2 |
| 20260902013950 | 67 | 252 | 13.0 | 23.0 | 0.00 | 0.00 | 0.00 | 47 | 1003.1 |
| 20260902013836 | 67 | 233 | 13.0 | 23.0 | 0.00 | 0.00 | 0.00 | 47 | 1003.1 |
| 20260902013752 | 67 | 237 | 13.0 | 23.0 | 0.00 | 0.00 | 0.00 | 47 | 1003.1 |
| 20260902013700 | 68 | 281 | 16.0 | 23.0 | 0.00 | 0.00 | 0.00 | 47 | 1003.1 |
| 20260902013604 | 68 | 244 | 16.0 | 23.0 | 0.00 | 0.00 | 0.00 | 47 | 1003.1 |
| 20260902013440 | 68 | 228 | 16.0 | 24.0 | 0.00 | 0.00 | 0.00 | 46 | 1003.2 |
| 20260902013340 | 68 | 273 | 15.0 | 21.0 | 0.00 | 0.00 | 0.00 | 46 | 1003.2 |
| 20260902013247 | 68 | 291 | 14.0 | 21.0 | 0.00 | 0.00 | 0.00 | 46 | 1003.1 |
| 20260902013146 | 68 | 215 | 13.0 | 21.0 | 0.00 | 0.00 | 0.00 | 46 | 1003.1 |
| 20260902013050 | 68 | 254 | 13.0 | 21.0 | 0.00 | 0.00 | 0.00 | 46 | 1003.1 |
| 20260902013007 | 68 | 279 | 14.0 | 21.0 | 0.00 | 0.00 | 0.00 | 46 | 1003.1 |
| 20260902012850 | 68 | 250 | 14.0 | 21.0 | 0.00 | 0.00 | 0.00 | 46 | 1003.2 |
| 20260902012745 | 68 | 253 | 14.0 | 21.0 | 0.00 | 0.00 | 0.00 | 46 | 1003.1 |
| 20260902012713 | 68 | 257 | 12.0 | 21.0 | 0.00 | 0.00 | 0.00 | 46 | 1003.1 |
| 20260902012559 | 68 | 271 | 9.0 | 21.0 | 0.00 | 0.00 | 0.00 | 46 | 1003.1 |
| 20260902012455 | 68 | 250 | 11.0 | 21.0 | 0.00 | 0.00 | 0.00 | 46 | 1003.1 |
| 20260902012421 | 68 | 263 | 14.0 | 21.0 | 0.00 | 0.00 | 0.00 | 46 | 1003.1 |
| 20260902012237 | 68 | 289 | 13.0 | 21.0 | 0.00 | 0.00 | 0.00 | 46 | 1003.0 |
| 20260902012157 | 68 | 291 | 14.0 | 20.0 | 0.00 | 0.00 | 0.00 | 46 | 1003.0 |
| 20260902012101 | 68 | 276 | 13.0 | 20.0 | 0.00 | 0.00 | 0.00 | 46 | 1002.9 |
| 20260902011938 | 68 | 280 | 12.0 | 19.0 | 0.00 | 0.00 | 0.00 | 46 | 1002.9 |
| 20260902011849 | 68 | 248 | 11.0 | 19.0 | 0.00 | 0.00 | 0.00 | 46 | 1002.9 |
| 20260902011746 | 68 | 235 | 9.0 | 18.0 | 0.00 | 0.00 | 0.00 | 47 | 1002.9 |
| 20260902011713 | 68 | 248 | 8.0 | 17.0 | 0.00 | 0.00 | 0.00 | 47 | 1002.9 |
| 20260902011555 | 68 | 299 | 8.0 | 17.0 | 0.00 | 0.00 | 0.00 | 47 | 1002.9 |
| 20260902011451 | 68 | 245 | 9.0 | 17.0 | 0.00 | 0.00 | 0.00 | 46 | 1002.9 |
| 20260902011354 | 68 | 227 | 11.0 | 19.0 | 0.00 | 0.00 | 0.00 | 46 | 1002.8 |
| 20260902011311 | 68 | 258 | 10.0 | 19.0 | 0.00 | 0.00 | 0.00 | 46 | 1002.8 |
| 20260902011143 | 68 | 275 | 7.0 | 22.0 | 0.00 | 0.00 | 0.00 | 46 | 1002.8 |
| 20260902011037 | 68 | 233 | 8.0 | 22.0 | 0.00 | 0.00 | 0.00 | 46 | 1002.8 |
| 20260902011003 | 68 | 242 | 7.0 | 22.0 | 0.00 | 0.00 | 0.00 | 46 | 1002.7 |
| 20260902010839 | 69 | 246 | 8.0 | 28.0 | 0.00 | 0.00 | 0.00 | 45 | 1002.7 |
| 20260902010736 | 69 | 231 | 9.0 | 28.0 | 0.00 | 0.00 | 0.00 | 45 | 1002.8 |
| 20260902010644 | 69 | 238 | 12.0 | 28.0 | 0.00 | 0.00 | 0.00 | 45 | 1002.7 |
| 20260902010539 | 69 | 290 | 14.0 | 28.0 | 0.00 | 0.00 | 0.00 | 44 | 1002.7 |
| 20260902010439 | 69 | 274 | 15.0 | 28.0 | 0.00 | 0.00 | 0.00 | 44 | 1002.7 |
| 20260902010345 | 69 | 275 | 15.0 | 28.0 | 0.00 | 0.00 | 0.00 | 44 | 1002.6 |
| 20260902010322 | 69 | 289 | 15.0 | 28.0 | 0.00 | 0.00 | 0.00 | 44 | 1002.6 |
| 20260902010148 | 69 | 253 | 17.0 | 29.0 | 0.00 | 0.00 | 0.00 | 44 | 1002.6 |
| 20260902010112 | 69 | 277 | 18.0 | 29.0 | 0.00 | 0.00 | 0.00 | 43 | 1002.5 |
| 20260902010017 | 69 | 269 | 19.0 | 29.0 | 0.00 | 0.00 | 0.00 | 43 | 1002.6 |
| 20260902005911 | 69 | 270 | 18.0 | 29.0 | 0.00 | 0.00 | 0.00 | 43 | 1002.6 |
| 20260902005754 | 69 | 259 | 17.0 | 29.0 | 0.00 | 0.00 | 0.00 | 43 | 1002.5 |
| 20260902005700 | 69 | 263 | 16.0 | 29.0 | 0.00 | 0.00 | 0.00 | 43 | 1002.6 |
| 20260902005538 | 70 | 289 | 18.0 | 29.0 | 0.00 | 0.00 | 0.00 | 43 | 1002.6 |
| 20260902005455 | 70 | 283 | 20.0 | 29.0 | 0.00 | 0.00 | 0.00 | 43 | 1002.7 |
| 20260902005340 | 70 | 229 | 18.0 | 29.0 | 0.00 | 0.00 | 0.00 | 43 | 1002.8 |
| 20260902005236 | 70 | 270 | 15.0 | 25.0 | 0.00 | 0.00 | 0.00 | 43 | 1002.8 |
| 20260902005142 | 70 | 273 | 16.0 | 25.0 | 0.00 | 0.00 | 0.00 | 43 | 1002.8 |
| 20260902005102 | 70 | 240 | 16.0 | 26.0 | 0.00 | 0.00 | 0.00 | 43 | 1002.8 |
| 20260902004957 | 70 | 255 | 17.0 | 26.0 | 0.00 | 0.00 | 0.00 | 42 | 1002.9 |
| 20260902004847 | 70 | 269 | 17.0 | 26.0 | 0.00 | 0.00 | 0.00 | 42 | 1002.9 |
| 20260902004742 | 70 | 262 | 17.0 | 26.0 | 0.00 | 0.00 | 0.00 | 42 | 1002.8 |
| 20260902004640 | 70 | 257 | 17.0 | 26.0 | 0.00 | 0.00 | 0.00 | 42 | 1002.8 |
| 20260902004545 | 70 | 244 | 17.0 | 27.0 | 0.00 | 0.00 | 0.00 | 42 | 1002.7 |
| 20260902004442 | 70 | 252 | 16.0 | 27.0 | 0.00 | 0.00 | 0.00 | 42 | 1002.7 |
| 20260902004408 | 71 | 273 | 16.0 | 27.0 | 0.00 | 0.00 | 0.00 | 42 | 1002.6 |
| 20260902004313 | 71 | 239 | 15.0 | 27.0 | 0.00 | 0.00 | 0.00 | 41 | 1002.6 |
| 20260902004211 | 71 | 253 | 15.0 | 27.0 | 0.00 | 0.00 | 0.00 | 41 | 1002.6 |
| 20260902004058 | 71 | 253 | 18.0 | 27.0 | 0.00 | 0.00 | 0.00 | 41 | 1002.6 |
| 20260902004003 | 71 | 258 | 17.0 | 27.0 | 0.00 | 0.00 | 0.00 | 41 | 1002.7 |
| 20260902003841 | 71 | 256 | 18.0 | 27.0 | 0.00 | 0.00 | 0.00 | 41 | 1002.7 |
| 20260902003744 | 71 | 244 | 15.0 | 27.0 | 0.00 | 0.00 | 0.00 | 40 | 1002.7 |
| 20260902003644 | 71 | 254 | 14.0 | 22.0 | 0.00 | 0.00 | 0.00 | 40 | 1002.6 |
| 20260902003548 | 71 | 290 | 16.0 | 22.0 | 0.00 | 0.00 | 0.00 | 40 | 1002.6 |
| 20260902003443 | 71 | 258 | 16.0 | 22.0 | 0.00 | 0.00 | 0.00 | 40 | 1002.6 |
| 20260902003409 | 72 | 250 | 15.0 | 23.0 | 0.00 | 0.00 | 0.00 | 40 | 1002.5 |
| 20260902003256 | 72 | 277 | 14.0 | 23.0 | 0.00 | 0.00 | 0.00 | 40 | 1002.5 |
| 20260902003154 | 72 | 246 | 14.0 | 23.0 | 0.00 | 0.00 | 0.00 | 40 | 1002.5 |
| 20260902003059 | 72 | 264 | 14.0 | 25.0 | 0.00 | 0.00 | 0.00 | 40 | 1002.5 |
| 20260902002954 | 72 | 253 | 15.0 | 25.0 | 0.00 | 0.00 | 0.00 | 40 | 1002.5 |
| 20260902002851 | 72 | 246 | 12.0 | 25.0 | 0.00 | 0.00 | 0.00 | 40 | 1002.5 |
| 20260902002755 | 72 | 245 | 10.0 | 25.0 | 0.00 | 0.00 | 0.00 | 39 | 1002.5 |
| 20260902002638 | 72 | 266 | 13.0 | 25.0 | 0.00 | 0.00 | 0.00 | 40 | 1002.5 |
| 20260902002602 | 72 | 256 | 14.0 | 25.0 | 0.00 | 0.00 | 0.00 | 39 | 1002.5 |
| 20260902002438 | 72 | 289 | 14.0 | 25.0 | 0.00 | 0.00 | 0.00 | 39 | 1002.5 |
| 20260902002404 | 72 | 252 | 14.0 | 25.0 | 0.00 | 0.00 | 0.00 | 39 | 1002.4 |
| 20260902002241 | 72 | 289 | 16.0 | 25.0 | 0.00 | 0.00 | 0.00 | 39 | 1002.4 |
| 20260902002140 | 73 | 298 | 13.0 | 21.0 | 0.00 | 0.00 | 0.00 | 38 | 1002.4 |
| 20260902002035 | 73 | 285 | 12.0 | 21.0 | 0.00 | 0.00 | 0.00 | 38 | 1002.4 |
| 20260902001943 | 73 | 286 | 12.0 | 21.0 | 0.00 | 0.00 | 0.00 | 39 | 1002.4 |
| 20260902001848 | 73 | 262 | 12.0 | 20.0 | 0.00 | 0.00 | 0.00 | 39 | 1002.4 |
| 20260902001746 | 73 | 258 | 12.0 | 20.0 | 0.00 | 0.00 | 0.00 | 38 | 1002.5 |
| 20260902001644 | 73 | 260 | 11.0 | 20.0 | 0.00 | 0.00 | 0.00 | 38 | 1002.5 |
| 20260902001607 | 73 | 291 | 9.0 | 20.0 | 0.00 | 0.00 | 0.00 | 38 | 1002.5 |
| 20260902001452 | 73 | 287 | 9.0 | 20.0 | 0.00 | 0.00 | 0.00 | 38 | 1002.5 |
| 20260902001409 | 72 | 275 | 10.0 | 20.0 | 0.00 | 0.00 | 0.00 | 38 | 1002.5 |
| 20260902001237 | 73 | 285 | 12.0 | 26.0 | 0.00 | 0.00 | 0.00 | 38 | 1002.4 |
| 20260902001157 | 73 | 273 | 13.0 | 26.0 | 0.00 | 0.00 | 0.00 | 38 | 1002.4 |
| 20260902001100 | 73 | 271 | 13.0 | 26.0 | 0.00 | 0.00 | 0.00 | 38 | 1002.4 |
| 20260902000957 | 73 | 271 | 13.0 | 26.0 | 0.00 | 0.00 | 0.00 | 37 | 1002.4 |
| 20260902000841 | 73 | 280 | 12.0 | 26.0 | 0.00 | 0.00 | 0.00 | 37 | 1002.5 |
| 20260902000739 | 73 | 272 | 11.0 | 26.0 | 0.00 | 0.00 | 0.00 | 37 | 1002.5 |
| 20260902000708 | 73 | 243 | 12.0 | 26.0 | 0.00 | 0.00 | 0.00 | 37 | 1002.5 |
| 20260902000541 | 73 | 276 | 16.0 | 26.0 | 0.00 | 0.00 | 0.00 | 37 | 1002.4 |
| 20260902000451 | 73 | 267 | 16.0 | 26.0 | 0.00 | 0.00 | 0.00 | 37 | 1002.5 |
| 20260902000346 | 73 | 264 | 15.0 | 25.0 | 0.00 | 0.00 | 0.00 | 36 | 1002.5 |
| 20260902000304 | 73 | 273 | 15.0 | 25.0 | 0.00 | 0.00 | 0.00 | 36 | 1002.5 |
| 20260902000158 | 73 | 283 | 15.0 | 25.0 | 0.00 | 0.00 | 0.00 | 36 | 1002.5 |
| 20260902000111 | 73 | 285 | 14.0 | 25.0 | 0.00 | 0.00 | 0.00 | 36 | 1002.5 |
| 20260901235954 | 73 | 283 | 15.0 | 25.0 | 0.00 | 0.00 | 0.00 | 36 | 1002.5 |
| 20260901235919 | 73 | 278 | 15.0 | 25.0 | 0.00 | 0.00 | 0.00 | 36 | 1002.4 |
| 20260901235755 | 73 | 233 | 16.0 | 25.0 | 0.00 | 0.00 | 0.00 | 36 | 1002.4 |
| 20260901235639 | 73 | 285 | 16.0 | 25.0 | 0.00 | 0.00 | 0.00 | 36 | 1002.5 |
| 20260901235601 | 74 | 267 | 14.0 | 23.0 | 0.00 | 0.00 | 0.00 | 36 | 1002.4 |
| 20260901235437 | 74 | 275 | 13.0 | 23.0 | 0.00 | 0.00 | 0.00 | 36 | 1002.4 |
| 20260901235339 | 74 | 274 | 13.0 | 23.0 | 0.00 | 0.00 | 0.00 | 36 | 1002.4 |
| 20260901235246 | 74 | 215 | 12.0 | 23.0 | 0.00 | 0.00 | 0.00 | 35 | 1002.4 |
| 20260901235205 | 74 | 221 | 13.0 | 23.0 | 0.00 | 0.00 | 0.00 | 36 | 1002.4 |
| 20260901235046 | 74 | 271 | 14.0 | 23.0 | 0.00 | 0.00 | 0.00 | 36 | 1002.4 |
| 20260901234942 | 74 | 269 | 14.0 | 23.0 | 0.00 | 0.00 | 0.00 | 35 | 1002.4 |
| 20260901234912 | 74 | 274 | 13.0 | 22.0 | 0.00 | 0.00 | 0.00 | 35 | 1002.3 |
| 20260901234757 | 74 | 249 | 12.0 | 22.0 | 0.00 | 0.00 | 0.00 | 35 | 1002.4 |
| 20260901234707 | 74 | 297 | 13.0 | 22.0 | 0.00 | 0.00 | 0.00 | 35 | 1002.4 |
| 20260901234548 | 74 | 287 | 13.0 | 22.0 | 0.00 | 0.00 | 0.00 | 35 | 1002.4 |
| 20260901234445 | 74 | 273 | 13.0 | 22.0 | 0.00 | 0.00 | 0.00 | 35 | 1002.5 |
| 20260901234351 | 74 | 244 | 14.0 | 22.0 | 0.00 | 0.00 | 0.00 | 35 | 1002.4 |
| 20260901234247 | 74 | 291 | 15.0 | 24.0 | 0.00 | 0.00 | 0.00 | 35 | 1002.5 |
| 20260901234215 | 74 | 271 | 14.0 | 24.0 | 0.00 | 0.00 | 0.00 | 35 | 1002.5 |
| 20260901234054 | 74 | 281 | 13.0 | 24.0 | 0.00 | 0.00 | 0.00 | 35 | 1002.5 |
| 20260901234000 | 74 | 250 | 13.0 | 24.0 | 0.00 | 0.00 | 0.00 | 34 | 1002.5 |
| 20260901233838 | 75 | 277 | 11.0 | 24.0 | 0.00 | 0.00 | 0.00 | 34 | 1002.4 |
| 20260901233743 | 75 | 271 | 13.0 | 26.0 | 0.00 | 0.00 | 0.00 | 34 | 1002.5 |
| 20260901233712 | 75 | 273 | 16.0 | 26.0 | 0.00 | 0.00 | 0.00 | 34 | 1002.6 |
| 20260901233542 | 75 | 273 | 15.0 | 26.0 | 0.00 | 0.00 | 0.00 | 33 | 1002.5 |
| 20260901233448 | 75 | 283 | 14.0 | 26.0 | 0.00 | 0.00 | 0.00 | 33 | 1002.5 |
| 20260901233345 | 75 | 294 | 14.0 | 26.0 | 0.00 | 0.00 | 0.00 | 34 | 1002.5 |
| 20260901233252 | 75 | 265 | 13.0 | 26.0 | 0.00 | 0.00 | 0.00 | 33 | 1002.5 |
| 20260901233151 | 75 | 287 | 13.0 | 26.0 | 0.00 | 0.00 | 0.00 | 33 | 1002.6 |
| 20260901233046 | 75 | 284 | 15.0 | 26.0 | 0.00 | 0.00 | 0.00 | 33 | 1002.6 |
| 20260901232949 | 75 | 286 | 17.0 | 26.0 | 0.00 | 0.00 | 0.00 | 33 | 1002.6 |
| 20260901232855 | 75 | 270 | 16.0 | 26.0 | 0.00 | 0.00 | 0.00 | 33 | 1002.6 |
| 20260901232753 | 75 | 287 | 15.0 | 25.0 | 0.00 | 0.00 | 0.00 | 33 | 1002.6 |
| 20260901232702 | 75 | 270 | 16.0 | 29.0 | 0.00 | 0.00 | 0.00 | 33 | 1002.6 |
| 20260901232540 | 75 | 262 | 16.0 | 29.0 | 0.00 | 0.00 | 0.00 | 32 | 1002.6 |
| 20260901232435 | 75 | 287 | 16.0 | 29.0 | 0.00 | 0.00 | 0.00 | 32 | 1002.6 |
| 20260901232402 | 75 | 278 | 17.0 | 29.0 | 0.00 | 0.00 | 0.00 | 32 | 1002.6 |
| 20260901232237 | 76 | 277 | 14.0 | 29.0 | 0.00 | 0.00 | 0.00 | 32 | 1002.6 |
| 20260901232145 | 76 | 273 | 14.0 | 29.0 | 0.00 | 0.00 | 0.00 | 32 | 1002.6 |
| 20260901232039 | 76 | 250 | 15.0 | 29.0 | 0.00 | 0.00 | 0.00 | 32 | 1002.6 |
| 20260901231949 | 76 | 267 | 17.0 | 29.0 | 0.00 | 0.00 | 0.00 | 32 | 1002.6 |
| 20260901231847 | 76 | 295 | 15.0 | 29.0 | 0.00 | 0.00 | 0.00 | 32 | 1002.6 |
| 20260901231742 | 76 | 252 | 11.0 | 24.0 | 0.00 | 0.00 | 0.00 | 31 | 1002.6 |
| 20260901231648 | 76 | 272 | 12.0 | 24.0 | 0.00 | 0.00 | 0.00 | 31 | 1002.5 |
| 20260901231542 | 76 | 293 | 13.0 | 24.0 | 0.00 | 0.00 | 0.00 | 31 | 1002.6 |
| 20260901231447 | 76 | 304 | 15.0 | 24.0 | 0.00 | 0.00 | 0.00 | 31 | 1002.7 |
| 20260901231344 | 76 | 262 | 14.0 | 24.0 | 0.00 | 0.00 | 0.00 | 31 | 1002.6 |
| 20260901231254 | 76 | 285 | 13.0 | 24.0 | 0.00 | 0.00 | 0.00 | 31 | 1002.7 |
| 20260901231213 | 76 | 294 | 15.0 | 26.0 | 0.00 | 0.00 | 0.00 | 31 | 1002.7 |
| 20260901231056 | 76 | 261 | 17.0 | 26.0 | 0.00 | 0.00 | 0.00 | 31 | 1002.7 |
| 20260901230953 | 76 | 287 | 15.0 | 26.0 | 0.00 | 0.00 | 0.00 | 31 | 1002.7 |
| 20260901230858 | 76 | 297 | 14.0 | 27.0 | 0.00 | 0.00 | 0.00 | 31 | 1002.6 |
| 20260901230755 | 76 | 258 | 14.0 | 27.0 | 0.00 | 0.00 | 0.00 | 31 | 1002.7 |
| 20260901230638 | 76 | 277 | 15.0 | 27.0 | 0.00 | 0.00 | 0.00 | 31 | 1002.7 |
| 20260901230542 | 76 | 280 | 15.0 | 27.0 | 0.00 | 0.00 | 0.00 | 31 | 1002.7 |
| 20260901230458 | 76 | 275 | 17.0 | 27.0 | 0.00 | 0.00 | 0.00 | 31 | 1002.7 |
| 20260901230343 | 76 | 291 | 16.0 | 27.0 | 0.00 | 0.00 | 0.00 | 31 | 1002.8 |
| 20260901230251 | 76 | 277 | 17.0 | 27.0 | 0.00 | 0.00 | 0.00 | 31 | 1002.6 |
| 20260901230146 | 76 | 285 | 16.0 | 27.0 | 0.00 | 0.00 | 0.00 | 31 | 1002.7 |
| 20260901230041 | 76 | 288 | 13.0 | 26.0 | 0.00 | 0.00 | 0.00 | 32 | 1002.7 |
| 20260901230007 | 75 | 289 | 12.0 | 26.0 | 0.00 | 0.00 | 0.00 | 32 | 1002.7 |
| 20260901225915 | 75 | 271 | 15.0 | 26.0 | 0.00 | 0.00 | 0.00 | 32 | 1002.7 |
| 20260901225750 | 75 | 291 | 16.0 | 26.0 | 0.00 | 0.00 | 0.00 | 32 | 1002.7 |
| 20260901225656 | 75 | 276 | 15.0 | 26.0 | 0.00 | 0.00 | 0.00 | 32 | 1002.8 |
| 20260901225551 | 75 | 260 | 16.0 | 26.0 | 0.00 | 0.00 | 0.00 | 32 | 1002.8 |
| 20260901225449 | 75 | 285 | 14.0 | 24.0 | 0.00 | 0.00 | 0.00 | 31 | 1002.8 |
| 20260901225356 | 75 | 292 | 15.0 | 24.0 | 0.00 | 0.00 | 0.00 | 31 | 1002.8 |
| 20260901225236 | 75 | 261 | 17.0 | 24.0 | 0.00 | 0.00 | 0.00 | 31 | 1002.8 |
| 20260901225204 | 76 | 298 | 16.0 | 22.0 | 0.00 | 0.00 | 0.00 | 31 | 1002.8 |
| 20260901225040 | 76 | 281 | 14.0 | 25.0 | 0.00 | 0.00 | 0.00 | 31 | 1002.8 |
| 20260901224936 | 76 | 277 | 13.0 | 25.0 | 0.00 | 0.00 | 0.00 | 31 | 1002.7 |
| 20260901224842 | 76 | 265 | 13.0 | 25.0 | 0.00 | 0.00 | 0.00 | 31 | 1002.7 |
| 20260901224739 | 76 | 301 | 14.0 | 25.0 | 0.00 | 0.00 | 0.00 | 31 | 1002.7 |
| 20260901224704 | 76 | 260 | 14.0 | 25.0 | 0.00 | 0.00 | 0.00 | 31 | 1002.7 |
| 20260901224543 | 76 | 254 | 14.0 | 25.0 | 0.00 | 0.00 | 0.00 | 30 | 1002.6 |
| 20260901224440 | 76 | 291 | 14.0 | 25.0 | 0.00 | 0.00 | 0.00 | 30 | 1002.7 |
| 20260901224404 | 76 | 293 | 15.0 | 25.0 | 0.00 | 0.00 | 0.00 | 30 | 1002.7 |
| 20260901224240 | 76 | 277 | 14.0 | 26.0 | 0.00 | 0.00 | 0.00 | 30 | 1002.6 |
| 20260901224147 | 76 | 280 | 12.0 | 26.0 | 0.00 | 0.00 | 0.00 | 30 | 1002.7 |
| 20260901224110 | 76 | 269 | 12.0 | 26.0 | 0.00 | 0.00 | 0.00 | 30 | 1002.6 |
| 20260901223943 | 77 | 272 | 13.0 | 26.0 | 0.00 | 0.00 | 0.00 | 30 | 1002.7 |
| 20260901223849 | 77 | 271 | 13.0 | 26.0 | 0.00 | 0.00 | 0.00 | 29 | 1002.6 |
| 20260901223819 | 77 | 294 | 14.0 | 26.0 | 0.00 | 0.00 | 0.00 | 29 | 1002.7 |
| 20260901223657 | 77 | 245 | 14.0 | 26.0 | 0.00 | 0.00 | 0.00 | 29 | 1002.6 |
| 20260901223552 | 77 | 281 | 15.0 | 26.0 | 0.00 | 0.00 | 0.00 | 29 | 1002.7 |
| 20260901223437 | 77 | 270 | 15.0 | 26.0 | 0.00 | 0.00 | 0.00 | 29 | 1002.6 |
| 20260901223402 | 77 | 255 | 15.0 | 21.0 | 0.00 | 0.00 | 0.00 | 29 | 1002.6 |
| 20260901223240 | 78 | 250 | 14.0 | 21.0 | 0.00 | 0.00 | 0.00 | 28 | 1002.6 |
| 20260901223139 | 78 | 245 | 12.0 | 21.0 | 0.00 | 0.00 | 0.00 | 28 | 1002.6 |
| 20260901223106 | 78 | 257 | 12.0 | 21.0 | 0.00 | 0.00 | 0.00 | 28 | 1002.5 |
| 20260901222941 | 78 | 283 | 12.0 | 21.0 | 0.00 | 0.00 | 0.00 | 28 | 1002.6 |
| 20260901222846 | 78 | 264 | 11.0 | 21.0 | 0.00 | 0.00 | 0.00 | 27 | 1002.6 |
| 20260901222742 | 79 | 284 | 10.0 | 19.0 | 0.00 | 0.00 | 0.00 | 28 | 1002.5 |
| 20260901222650 | 79 | 252 | 11.0 | 19.0 | 0.00 | 0.00 | 0.00 | 27 | 1002.6 |
| 20260901222544 | 79 | 281 | 12.0 | 19.0 | 0.00 | 0.00 | 0.00 | 27 | 1002.5 |
| 20260901222441 | 79 | 281 | 13.0 | 19.0 | 0.00 | 0.00 | 0.00 | 27 | 1002.5 |
| 20260901222352 | 79 | 276 | 12.0 | 19.0 | 0.00 | 0.00 | 0.00 | 27 | 1002.6 |
| 20260901222318 | 79 | 247 | 10.0 | 19.0 | 0.00 | 0.00 | 0.00 | 27 | 1002.5 |
| 20260901222156 | 80 | 290 | 11.0 | 19.0 | 0.00 | 0.00 | 0.00 | 26 | 1002.5 |
| 20260901222121 | 80 | 262 | 12.0 | 19.0 | 0.00 | 0.00 | 0.00 | 26 | 1002.5 |
| 20260901221957 | 80 | 275 | 12.0 | 19.0 | 0.00 | 0.00 | 0.00 | 26 | 1002.6 |
| 20260901221841 | 80 | 287 | 10.0 | 19.0 | 0.00 | 0.00 | 0.00 | 26 | 1002.5 |
| 20260901221759 | 80 | 287 | 10.0 | 19.0 | 0.00 | 0.00 | 0.00 | 26 | 1002.5 |
| 20260901221646 | 80 | 288 | 11.0 | 19.0 | 0.00 | 0.00 | 0.00 | 26 | 1002.4 |
| 20260901221544 | 80 | 268 | 11.0 | 16.0 | 0.00 | 0.00 | 0.00 | 26 | 1002.4 |
| 20260901221450 | 80 | 270 | 11.0 | 16.0 | 0.00 | 0.00 | 0.00 | 25 | 1002.5 |
| 20260901221346 | 81 | 265 | 9.0 | 16.0 | 0.00 | 0.00 | 0.00 | 25 | 1002.5 |
| 20260901221253 | 81 | 313 | 9.0 | 16.0 | 0.00 | 0.00 | 0.00 | 25 | 1002.5 |
| 20260901221211 | 81 | 307 | 11.0 | 16.0 | 0.00 | 0.00 | 0.00 | 25 | 1002.6 |
| 20260901221054 | 81 | 301 | 12.0 | 16.0 | 0.00 | 0.00 | 0.00 | 25 | 1002.6 |
| 20260901220936 | 81 | 260 | 11.0 | 16.0 | 0.00 | 0.00 | 0.00 | 24 | 1002.6 |
| 20260901220902 | 81 | 277 | 10.0 | 16.0 | 0.00 | 0.00 | 0.00 | 24 | 1002.6 |
| 20260901220738 | 81 | 283 | 10.0 | 16.0 | 0.00 | 0.00 | 0.00 | 24 | 1002.6 |
| 20260901220638 | 81 | 281 | 9.0 | 16.0 | 0.00 | 0.00 | 0.00 | 24 | 1002.6 |
| 20260901220543 | 81 | 275 | 8.0 | 16.0 | 0.00 | 0.00 | 0.00 | 24 | 1002.6 |
| 20260901220437 | 82 | 270 | 9.0 | 16.0 | 0.00 | 0.00 | 0.00 | 24 | 1002.6 |
| 20260901220341 | 82 | 294 | 10.0 | 16.0 | 0.00 | 0.00 | 0.00 | 24 | 1002.6 |
| 20260901220254 | 82 | 298 | 11.0 | 16.0 | 0.00 | 0.00 | 0.00 | 24 | 1002.6 |
| 20260901220149 | 82 | 283 | 10.0 | 16.0 | 0.00 | 0.00 | 0.00 | 24 | 1002.6 |
| 20260901220046 | 82 | 329 | 9.0 | 16.0 | 0.00 | 0.00 | 0.00 | 24 | 1002.6 |
| 20260901215942 | 82 | 257 | 10.0 | 16.0 | 0.00 | 0.00 | 0.00 | 24 | 1002.6 |
| 20260901215848 | 82 | 264 | 11.0 | 17.0 | 0.00 | 0.00 | 0.00 | 25 | 1002.6 |
| 20260901215812 | 82 | 249 | 11.0 | 17.0 | 0.00 | 0.00 | 0.00 | 24 | 1002.6 |
| 20260901215650 | 82 | 250 | 10.0 | 17.0 | 0.00 | 0.00 | 0.00 | 24 | 1002.6 |
| 20260901215558 | 82 | 254 | 9.0 | 17.0 | 0.00 | 0.00 | 0.00 | 24 | 1002.6 |
| 20260901215436 | 82 | 291 | 8.0 | 17.0 | 0.00 | 0.00 | 0.00 | 24 | 1002.6 |
| 20260901215402 | 82 | 313 | 9.0 | 17.0 | 0.00 | 0.00 | 0.00 | 24 | 1002.4 |
| 20260901215257 | 81 | 281 | 10.0 | 19.0 | 0.00 | 0.00 | 0.00 | 25 | 1002.4 |
| 20260901215204 | 81 | 254 | 11.0 | 19.0 | 0.00 | 0.00 | 0.00 | 24 | 1002.4 |
| 20260901215039 | 81 | 264 | 12.0 | 19.0 | 0.00 | 0.00 | 0.00 | 24 | 1002.5 |
| 20260901214936 | 81 | 274 | 11.0 | 19.0 | 0.00 | 0.00 | 0.00 | 25 | 1002.5 |
| 20260901214847 | 80 | 302 | 11.0 | 19.0 | 0.00 | 0.00 | 0.00 | 25 | 1002.5 |
| 20260901214744 | 80 | 271 | 11.0 | 19.0 | 0.00 | 0.00 | 0.00 | 25 | 1002.5 |
| 20260901214713 | 80 | 245 | 12.0 | 19.0 | 0.00 | 0.00 | 0.00 | 25 | 1002.6 |
| 20260901214546 | 80 | 288 | 11.0 | 19.0 | 0.00 | 0.00 | 0.00 | 25 | 1002.6 |
| 20260901214448 | 79 | 252 | 9.0 | 19.0 | 0.00 | 0.00 | 0.00 | 25 | 1002.6 |
| 20260901214344 | 79 | 295 | 8.0 | 17.0 | 0.00 | 0.00 | 0.00 | 25 | 1002.6 |
| 20260901214250 | 79 | 266 | 9.0 | 17.0 | 0.00 | 0.00 | 0.00 | 25 | 1002.6 |
| 20260901214158 | 79 | 288 | 9.0 | 17.0 | 0.00 | 0.00 | 0.00 | 26 | 1002.6 |
| 20260901214037 | 79 | 302 | 9.0 | 15.0 | 0.00 | 0.00 | 0.00 | 25 | 1002.7 |
| 20260901213953 | 79 | 283 | 10.0 | 15.0 | 0.00 | 0.00 | 0.00 | 25 | 1002.7 |
| 20260901213900 | 79 | 288 | 9.0 | 15.0 | 0.00 | 0.00 | 0.00 | 25 | 1002.7 |
| 20260901213822 | 79 | 270 | 9.0 | 15.0 | 0.00 | 0.00 | 0.00 | 25 | 1002.8 |
| 20260901213640 | 79 | 280 | 9.0 | 15.0 | 0.00 | 0.00 | 0.00 | 25 | 1002.7 |
| 20260901213535 | 79 | 283 | 10.0 | 15.0 | 0.00 | 0.00 | 0.00 | 25 | 1002.7 |
| 20260901213447 | 79 | 280 | 11.0 | 15.0 | 0.00 | 0.00 | 0.00 | 25 | 1002.7 |
| 20260901213343 | 79 | 304 | 9.0 | 15.0 | 0.00 | 0.00 | 0.00 | 25 | 1002.6 |
| 20260901213240 | 79 | 273 | 8.0 | 15.0 | 0.00 | 0.00 | 0.00 | 25 | 1002.7 |
| 20260901213208 | 79 | 293 | 10.0 | 16.0 | 0.00 | 0.00 | 0.00 | 25 | 1002.7 |
| 20260901213110 | 80 | 271 | 11.0 | 16.0 | 0.00 | 0.00 | 0.00 | 24 | 1002.7 |
| 20260901212946 | 80 | 281 | 10.0 | 16.0 | 0.00 | 0.00 | 0.00 | 24 | 1002.7 |
| 20260901212852 | 80 | 265 | 9.0 | 16.0 | 0.00 | 0.00 | 0.00 | 24 | 1002.6 |
| 20260901212750 | 80 | 274 | 8.0 | 16.0 | 0.00 | 0.00 | 0.00 | 24 | 1002.6 |
| 20260901212701 | 80 | 279 | 10.0 | 16.0 | 0.00 | 0.00 | 0.00 | 24 | 1002.6 |
| 20260901212554 | 80 | 255 | 10.0 | 16.0 | 0.00 | 0.00 | 0.00 | 24 | 1002.6 |
| 20260901212459 | 80 | 247 | 12.0 | 16.0 | 0.00 | 0.00 | 0.00 | 24 | 1002.6 |
| 20260901212404 | 80 | 252 | 11.0 | 16.0 | 0.00 | 0.00 | 0.00 | 24 | 1002.6 |
| 20260901212238 | 81 | 259 | 9.0 | 16.0 | 0.00 | 0.00 | 0.00 | 23 | 1002.7 |
| 20260901212145 | 81 | 266 | 9.0 | 16.0 | 0.00 | 0.00 | 0.00 | 23 | 1002.7 |
| 20260901212041 | 81 | 260 | 10.0 | 16.0 | 0.00 | 0.00 | 0.00 | 23 | 1002.7 |
| 20260901211948 | 81 | 248 | 11.0 | 16.0 | 0.00 | 0.00 | 0.00 | 23 | 1002.7 |
| 20260901211849 | 81 | 258 | 10.0 | 16.0 | 0.00 | 0.00 | 0.00 | 23 | 1002.7 |
| 20260901211745 | 81 | 275 | 10.0 | 15.0 | 0.00 | 0.00 | 0.00 | 24 | 1002.7 |
| 20260901211547 | 82 | 225 | 10.0 | 15.0 | 0.00 | 0.00 | 0.00 | 23 | 1002.7 |
| 20260901211451 | 82 | 269 | 10.0 | 15.0 | 0.00 | 0.00 | 0.00 | 23 | 1002.7 |
| 20260901211417 | 82 | 269 | 7.0 | 14.0 | 0.00 | 0.00 | 0.00 | 23 | 1002.7 |
| 20260901211321 | 82 | 263 | 7.0 | 14.0 | 0.00 | 0.00 | 0.00 | 22 | 1002.7 |
| 20260901211139 | 83 | 289 | 8.0 | 14.0 | 0.00 | 0.00 | 0.00 | 22 | 1002.7 |
| 20260901211037 | 83 | 287 | 9.0 | 15.0 | 0.00 | 0.00 | 0.00 | 22 | 1002.8 |
| 20260901210942 | 83 | 278 | 9.0 | 15.0 | 0.00 | 0.00 | 0.00 | 22 | 1002.8 |
| 20260901210840 | 83 | 260 | 10.0 | 15.0 | 0.00 | 0.00 | 0.00 | 23 | 1003.0 |
| 20260901210747 | 83 | 236 | 10.0 | 15.0 | 0.00 | 0.00 | 0.00 | 23 | 1002.9 |
| 20260901210655 | 83 | 273 | 8.0 | 15.0 | 0.00 | 0.00 | 0.00 | 23 | 1002.8 |
| 20260901210549 | 82 | 283 | 8.0 | 15.0 | 0.00 | 0.00 | 0.00 | 22 | 1002.8 |
| 20260901210453 | 82 | 287 | 10.0 | 15.0 | 0.00 | 0.00 | 0.00 | 22 | 1002.8 |
| 20260901210353 | 82 | 272 | 9.0 | 15.0 | 0.00 | 0.00 | 0.00 | 22 | 1002.9 |
| 20260901210311 | 82 | 274 | 10.0 | 15.0 | 0.00 | 0.00 | 0.00 | 22 | 1002.9 |
| 20260901210156 | 82 | 306 | 6.0 | 17.0 | 0.00 | 0.00 | 0.00 | 23 | 1002.8 |
| 20260901210100 | 83 | 267 | 4.0 | 17.0 | 0.00 | 0.00 | 0.00 | 22 | 1002.8 |
| 20260901210016 | 83 | 136 | 7.0 | 17.0 | 0.00 | 0.00 | 0.00 | 22 | 1002.9 |
| 20260901205902 | 83 | 287 | 8.0 | 17.0 | 0.00 | 0.00 | 0.00 | 22 | 1002.8 |
| 20260901205737 | 83 | 278 | 9.0 | 17.0 | 0.00 | 0.00 | 0.00 | 22 | 1003.0 |
| 20260901205639 | 83 | 263 | 11.0 | 17.0 | 0.00 | 0.00 | 0.00 | 22 | 1002.9 |
| 20260901205543 | 83 | 299 | 11.0 | 17.0 | 0.00 | 0.00 | 0.00 | 22 | 1002.9 |
| 20260901205439 | 83 | 276 | 9.0 | 17.0 | 0.00 | 0.00 | 0.00 | 22 | 1002.9 |
| 20260901205344 | 83 | 254 | 9.0 | 13.0 | 0.00 | 0.00 | 0.00 | 22 | 1002.9 |
| 20260901205300 | 83 | 294 | 8.0 | 13.0 | 0.00 | 0.00 | 0.00 | 22 | 1003.0 |
| 20260901205148 | 83 | 263 | 6.0 | 12.0 | 0.00 | 0.00 | 0.00 | 22 | 1002.9 |
| 20260901205042 | 83 | 247 | 7.0 | 15.0 | 0.00 | 0.00 | 0.00 | 22 | 1002.9 |
| 20260901204952 | 83 | 219 | 7.0 | 15.0 | 0.00 | 0.00 | 0.00 | 22 | 1002.9 |
| 20260901204848 | 83 | 253 | 7.0 | 15.0 | 0.00 | 0.00 | 0.00 | 22 | 1002.9 |
| 20260901204754 | 83 | 245 | 7.0 | 15.0 | 0.00 | 0.00 | 0.00 | 22 | 1003.0 |
| 20260901204652 | 83 | 258 | 6.0 | 15.0 | 0.00 | 0.00 | 0.00 | 23 | 1003.0 |
| 20260901204548 | 83 | 255 | 6.0 | 15.0 | 0.00 | 0.00 | 0.00 | 22 | 1003.0 |
| 20260901204512 | 83 | 298 | 8.0 | 15.0 | 0.00 | 0.00 | 0.00 | 22 | 1003.1 |
| 20260901204336 | 83 | 273 | 10.0 | 15.0 | 0.00 | 0.00 | 0.00 | 22 | 1003.0 |
| 20260901204238 | 83 | 269 | 9.0 | 15.0 | 0.00 | 0.00 | 0.00 | 22 | 1003.0 |
| 20260901204138 | 83 | 264 | 7.0 | 13.0 | 0.00 | 0.00 | 0.00 | 22 | 1002.9 |
| 20260901204042 | 83 | 274 | 6.0 | 11.0 | 0.00 | 0.00 | 0.00 | 22 | 1003.0 |
| 20260901203946 | 82 | 259 | 4.0 | 11.0 | 0.00 | 0.00 | 0.00 | 22 | 1003.0 |
| 20260901203843 | 82 | 254 | 3.0 | 11.0 | 0.00 | 0.00 | 0.00 | 23 | 1003.0 |
| 20260901203741 | 82 | 299 | 3.0 | 11.0 | 0.00 | 0.00 | 0.00 | 22 | 1002.9 |
| 20260901203649 | 82 | 299 | 5.0 | 11.0 | 0.00 | 0.00 | 0.00 | 22 | 1003.1 |
| 20260901203549 | 82 | 299 | 6.0 | 11.0 | 0.00 | 0.00 | 0.00 | 22 | 1003.1 |
| 20260901203454 | 82 | 304 | 5.0 | 13.0 | 0.00 | 0.00 | 0.00 | 23 | 1003.1 |
| 20260901203410 | 82 | 295 | 3.0 | 13.0 | 0.00 | 0.00 | 0.00 | 22 | 1003.1 |
| 20260901203236 | 82 | 299 | 3.0 | 13.0 | 0.00 | 0.00 | 0.00 | 22 | 1003.0 |
| 20260901203154 | 82 | 298 | 4.0 | 13.0 | 0.00 | 0.00 | 0.00 | 22 | 1003.1 |
| 20260901203058 | 82 | 298 | 4.0 | 13.0 | 0.00 | 0.00 | 0.00 | 22 | 1003.1 |
| 20260901202938 | 82 | 296 | 4.0 | 13.0 | 0.00 | 0.00 | 0.00 | 22 | 1003.2 |
| 20260901202903 | 82 | 343 | 5.0 | 13.0 | 0.00 | 0.00 | 0.00 | 22 | 1003.1 |
| 20260901202739 | 82 | 343 | 8.0 | 13.0 | 0.00 | 0.00 | 0.00 | 22 | 1003.2 |
| 20260901202640 | 82 | 287 | 7.0 | 13.0 | 0.00 | 0.00 | 0.00 | 23 | 1003.2 |
| 20260901202535 | 82 | 283 | 6.0 | 13.0 | 0.00 | 0.00 | 0.00 | 23 | 1003.1 |
| 20260901202439 | 82 | 293 | 7.0 | 12.0 | 0.00 | 0.00 | 0.00 | 23 | 1003.2 |
| 20260901202345 | 82 | 267 | 6.0 | 12.0 | 0.00 | 0.00 | 0.00 | 23 | 1003.1 |
| 20260901202246 | 82 | 292 | 3.0 | 8.0 | 0.00 | 0.00 | 0.00 | 24 | 1003.1 |
| 20260901202214 | 82 | 351 | 2.0 | 8.0 | 0.00 | 0.00 | 0.00 | 24 | 1003.2 |
| 20260901202049 | 82 | 254 | 2.0 | 9.0 | 0.00 | 0.00 | 0.00 | 24 | 1003.2 |
| 20260901201954 | 82 | 254 | 3.0 | 9.0 | 0.00 | 0.00 | 0.00 | 25 | 1003.2 |
| 20260901201853 | 82 | 254 | 3.0 | 9.0 | 0.00 | 0.00 | 0.00 | 24 | 1003.2 |
| 20260901201758 | 82 | 254 | 4.0 | 11.0 | 0.00 | 0.00 | 0.00 | 24 | 1003.2 |
| 20260901201657 | 82 | 259 | 5.0 | 11.0 | 0.00 | 0.00 | 0.00 | 24 | 1003.3 |
| 20260901201555 | 82 | 260 | 6.0 | 11.0 | 0.00 | 0.00 | 0.00 | 24 | 1003.3 |
| 20260901201440 | 82 | 312 | 6.0 | 11.0 | 0.00 | 0.00 | 0.00 | 24 | 1003.3 |
| 20260901201336 | 82 | 310 | 6.0 | 11.0 | 0.00 | 0.00 | 0.00 | 24 | 1003.3 |
| 20260901201302 | 82 | 281 | 6.0 | 11.0 | 0.00 | 0.00 | 0.00 | 24 | 1003.3 |
| 20260901201202 | 81 | 259 | 5.0 | 11.0 | 0.00 | 0.00 | 0.00 | 24 | 1003.3 |
| 20260901201044 | 81 | 232 | 8.0 | 11.0 | 0.00 | 0.00 | 0.00 | 24 | 1003.3 |
| 20260901201000 | 81 | 248 | 9.0 | 11.0 | 0.00 | 0.00 | 0.00 | 24 | 1003.3 |
| 20260901200905 | 81 | 279 | 7.0 | 12.0 | 0.00 | 0.00 | 0.00 | 24 | 1003.4 |
| 20260901200753 | 81 | 291 | 5.0 | 11.0 | 0.00 | 0.00 | 0.00 | 24 | 1003.3 |
| 20260901200714 | 81 | 294 | 3.0 | 11.0 | 0.00 | 0.00 | 0.00 | 24 | 1003.4 |
| 20260901200555 | 81 | 294 | 5.0 | 11.0 | 0.00 | 0.00 | 0.00 | 24 | 1003.4 |
| 20260901200453 | 81 | 309 | 7.0 | 11.0 | 0.00 | 0.00 | 0.00 | 24 | 1003.4 |
| 20260901200358 | 81 | 296 | 7.0 | 11.0 | 0.00 | 0.00 | 0.00 | 24 | 1003.4 |
| 20260901200335 | 81 | 291 | 8.0 | 11.0 | 0.00 | 0.00 | 0.00 | 24 | 1003.4 |
| 20260901200137 | 81 | 273 | 5.0 | 11.0 | 0.00 | 0.00 | 0.00 | 24 | 1003.4 |
| 20260901200058 | 81 | 308 | 5.0 | 10.0 | 0.00 | 0.00 | 0.00 | 24 | 1003.4 |
| 20260901195942 | 81 | 307 | 6.0 | 10.0 | 0.00 | 0.00 | 0.00 | 24 | 1003.4 |
| 20260901195839 | 81 | 309 | 4.0 | 11.0 | 0.00 | 0.00 | 0.00 | 24 | 1003.4 |
| 20260901195806 | 81 | 313 | 4.0 | 11.0 | 0.00 | 0.00 | 0.00 | 25 | 1003.4 |
| 20260901195644 | 81 | 306 | 4.0 | 11.0 | 0.00 | 0.00 | 0.00 | 25 | 1003.4 |
| 20260901195549 | 81 | 306 | 5.0 | 14.0 | 0.00 | 0.00 | 0.00 | 24 | 1003.4 |
| 20260901195447 | 81 | 306 | 6.0 | 14.0 | 0.00 | 0.00 | 0.00 | 24 | 1003.4 |
| 20260901195355 | 81 | 304 | 5.0 | 14.0 | 0.00 | 0.00 | 0.00 | 24 | 1003.4 |
| 20260901195252 | 81 | 267 | 2.0 | 19.0 | 0.00 | 0.00 | 0.00 | 24 | 1003.4 |
| 20260901195200 | 81 | 293 | 4.0 | 19.0 | 0.00 | 0.00 | 0.00 | 24 | 1003.4 |
| 20260901195054 | 81 | 293 | 7.0 | 19.0 | 0.00 | 0.00 | 0.00 | 24 | 1003.5 |
| 20260901194951 | 81 | 302 | 8.0 | 19.0 | 0.00 | 0.00 | 0.00 | 24 | 1003.5 |
| 20260901194838 | 81 | 314 | 9.0 | 19.0 | 0.00 | 0.00 | 0.00 | 24 | 1003.6 |
| 20260901194738 | 81 | 289 | 8.0 | 19.0 | 0.00 | 0.00 | 0.00 | 24 | 1003.6 |
| 20260901194637 | 81 | 276 | 8.0 | 19.0 | 0.00 | 0.00 | 0.00 | 24 | 1003.6 |
| 20260901194540 | 81 | 273 | 11.0 | 19.0 | 0.00 | 0.00 | 0.00 | 24 | 1003.6 |
| 20260901194437 | 81 | 301 | 12.0 | 19.0 | 0.00 | 0.00 | 0.00 | 24 | 1003.6 |
| 20260901194342 | 81 | 306 | 11.0 | 20.0 | 0.00 | 0.00 | 0.00 | 24 | 1003.6 |
| 20260901194239 | 81 | 282 | 9.0 | 20.0 | 0.00 | 0.00 | 0.00 | 24 | 1003.6 |
| 20260901194148 | 81 | 285 | 7.0 | 20.0 | 0.00 | 0.00 | 0.00 | 25 | 1003.5 |
| 20260901194112 | 81 | 319 | 5.0 | 20.0 | 0.00 | 0.00 | 0.00 | 26 | 1003.6 |
| 20260901194011 | 81 | 214 | 5.0 | 20.0 | 0.00 | 0.00 | 0.00 | 25 | 1003.6 |
| 20260901193916 | 81 | 319 | 6.0 | 20.0 | 0.00 | 0.00 | 0.00 | 26 | 1003.7 |
| 20260901193800 | 81 | 301 | 7.0 | 20.0 | 0.00 | 0.00 | 0.00 | 26 | 1003.6 |
| 20260901193700 | 81 | 273 | 9.0 | 20.0 | 0.00 | 0.00 | 0.00 | 29 | 1003.7 |
| 20260901193535 | 81 | 233 | 7.0 | 20.0 | 0.00 | 0.00 | 0.00 | 27 | 1003.6 |
| 20260901193501 | 81 | 237 | 6.0 | 16.0 | 0.00 | 0.00 | 0.00 | 28 | 1003.6 |
| 20260901193346 | 81 | 237 | 6.0 | 16.0 | 0.00 | 0.00 | 0.00 | 28 | 1003.6 |
| 20260901193242 | 80 | 233 | 4.0 | 16.0 | 0.00 | 0.00 | 0.00 | 28 | 1003.6 |
| 20260901193153 | 80 | 246 | 4.0 | 16.0 | 0.00 | 0.00 | 0.00 | 28 | 1003.7 |
| 20260901193047 | 80 | 247 | 7.0 | 16.0 | 0.00 | 0.00 | 0.00 | 29 | 1003.7 |
| 20260901193012 | 80 | 248 | 6.0 | 16.0 | 0.00 | 0.00 | 0.00 | 32 | 1003.7 |
| 20260901192917 | 80 | 216 | 2.0 | 10.0 | 0.00 | 0.00 | 0.00 | 30 | 1003.7 |
| 20260901192753 | 80 | 351 | 2.0 | 10.0 | 0.00 | 0.00 | 0.00 | 31 | 1003.8 |
| 20260901192701 | 80 | 350 | 3.0 | 10.0 | 0.00 | 0.00 | 0.00 | 30 | 1003.8 |
| 20260901192553 | 80 | 350 | 4.0 | 10.0 | 0.00 | 0.00 | 0.00 | 30 | 1003.8 |
| 20260901192518 | 80 | 343 | 5.0 | 10.0 | 0.00 | 0.00 | 0.00 | 29 | 1003.8 |
| 20260901192337 | 80 | 358 | 6.0 | 10.0 | 0.00 | 0.00 | 0.00 | 29 | 1003.8 |
| 20260901192306 | 80 | 358 | 5.0 | 10.0 | 0.00 | 0.00 | 0.00 | 29 | 1003.9 |
| 20260901192141 | 80 | 356 | 3.0 | 12.0 | 0.00 | 0.00 | 0.00 | 30 | 1003.9 |
| 20260901192036 | 80 | 281 | 4.0 | 13.0 | 0.00 | 0.00 | 0.00 | 30 | 1004.0 |
| 20260901191940 | 80 | 288 | 4.0 | 13.0 | 0.00 | 0.00 | 0.00 | 30 | 1003.9 |
| 20260901191837 | 80 | 290 | 4.0 | 13.0 | 0.00 | 0.00 | 0.00 | 31 | 1004.0 |
| 20260901191742 | 79 | 299 | 4.0 | 13.0 | 0.00 | 0.00 | 0.00 | 30 | 1004.0 |
| 20260901191645 | 79 | 305 | 3.0 | 13.0 | 0.00 | 0.00 | 0.00 | 31 | 1004.0 |
| 20260901191550 | 79 | 305 | 5.0 | 13.0 | 0.00 | 0.00 | 0.00 | 30 | 1004.0 |
| 20260901191447 | 79 | 305 | 8.0 | 13.0 | 0.00 | 0.00 | 0.00 | 30 | 1004.1 |
| 20260901191354 | 79 | 304 | 7.0 | 13.0 | 0.00 | 0.00 | 0.00 | 30 | 1004.0 |
| 20260901191251 | 79 | 266 | 3.0 | 13.0 | 0.00 | 0.00 | 0.00 | 34 | 1004.1 |
| 20260901191150 | 79 | 252 | 1.0 | 7.0 | 0.00 | 0.00 | 0.00 | 33 | 1004.1 |
| 20260901191057 | 79 | 252 | 2.0 | 7.0 | 0.00 | 0.00 | 0.00 | 32 | 1004.1 |
| 20260901190953 | 79 | 252 | 4.0 | 10.0 | 0.00 | 0.00 | 0.00 | 33 | 1004.1 |
| 20260901190900 | 79 | 255 | 4.0 | 11.0 | 0.00 | 0.00 | 0.00 | 33 | 1004.1 |
| 20260901190754 | 79 | 254 | 2.0 | 11.0 | 0.00 | 0.00 | 0.00 | 32 | 1004.1 |
| 20260901190702 | 79 | 262 | 2.0 | 11.0 | 0.00 | 0.00 | 0.00 | 32 | 1004.2 |
| 20260901190605 | 79 | 262 | 2.0 | 11.0 | 0.00 | 0.00 | 0.00 | 32 | 1004.2 |
| 20260901190438 | 79 | 262 | 2.0 | 11.0 | 0.00 | 0.00 | 0.00 | 32 | 1004.2 |
| 20260901190339 | 79 | 262 | 2.0 | 11.0 | 0.00 | 0.00 | 0.00 | 32 | 1004.3 |
| 20260901190256 | 78 | 262 | 4.0 | 11.0 | 0.00 | 0.00 | 0.00 | 32 | 1004.2 |
| 20260901190211 | 79 | 262 | 6.0 | 11.0 | 0.00 | 0.00 | 0.00 | 32 | 1004.3 |
| 20260901190044 | 78 | 260 | 5.0 | 11.0 | 0.00 | 0.00 | 0.00 | 33 | 1004.3 |
| 20260901185941 | 78 | 228 | 5.0 | 11.0 | 0.00 | 0.00 | 0.00 | 33 | 1004.3 |
| 20260901185906 | 78 | 228 | 6.0 | 11.0 | 0.00 | 0.00 | 0.00 | 32 | 1004.3 |
| 20260901185811 | 78 | 256 | 3.0 | 8.0 | 0.00 | 0.00 | 0.00 | 33 | 1004.3 |
| 20260901185648 | 78 | 288 | 1.0 | 8.0 | 0.00 | 0.00 | 0.00 | 33 | 1004.2 |
| 20260901185538 | 78 | 288 | 1.0 | 8.0 | 0.00 | 0.00 | 0.00 | 32 | 1004.3 |
| 20260901185453 | 78 | 288 | 1.0 | 8.0 | 0.00 | 0.00 | 0.00 | 32 | 1004.3 |
| 20260901185359 | 78 | 288 | 2.0 | 8.0 | 0.00 | 0.00 | 0.00 | 33 | 1004.3 |
| 20260901185326 | 78 | 288 | 3.0 | 8.0 | 0.00 | 0.00 | 0.00 | 32 | 1004.3 |
| 20260901185143 | 78 | 289 | 4.0 | 8.0 | 0.00 | 0.00 | 0.00 | 33 | 1004.2 |
| 20260901185057 | 78 | 289 | 4.0 | 8.0 | 0.00 | 0.00 | 0.00 | 33 | 1004.3 |
| 20260901184941 | 78 | 289 | 3.0 | 8.0 | 0.00 | 0.00 | 0.00 | 33 | 1004.3 |
| 20260901184842 | 78 | 289 | 2.0 | 7.0 | 0.00 | 0.00 | 0.00 | 34 | 1004.3 |
| 20260901184747 | 78 | 289 | 4.0 | 7.0 | 0.00 | 0.00 | 0.00 | 33 | 1004.3 |
| 20260901184647 | 78 | 289 | 5.0 | 7.0 | 0.00 | 0.00 | 0.00 | 33 | 1004.3 |
| 20260901184540 | 78 | 289 | 4.0 | 7.0 | 0.00 | 0.00 | 0.00 | 33 | 1004.3 |
| 20260901184446 | 78 | 285 | 3.0 | 7.0 | 0.00 | 0.00 | 0.00 | 33 | 1004.3 |
| 20260901184343 | 78 | 233 | 2.0 | 4.0 | 0.00 | 0.00 | 0.00 | 34 | 1004.3 |
| 20260901184248 | 78 | 233 | 2.0 | 4.0 | 0.00 | 0.00 | 0.00 | 34 | 1004.3 |
| 20260901184151 | 78 | 233 | 2.0 | 4.0 | 0.00 | 0.00 | 0.00 | 36 | 1004.4 |
| 20260901184054 | 77 | 233 | 2.0 | 4.0 | 0.00 | 0.00 | 0.00 | 36 | 1004.4 |
| 20260901183951 | 77 | 233 | 1.0 | 5.0 | 0.00 | 0.00 | 0.00 | 34 | 1004.3 |
| 20260901183848 | 77 | 233 | 1.0 | 5.0 | 0.00 | 0.00 | 0.00 | 34 | 1004.3 |
| 20260901183752 | 77 | 233 | 0.0 | 5.0 | 0.00 | 0.00 | 0.00 | 37 | 1004.3 |
| 20260901183653 | 77 | 233 | 1.0 | 5.0 | 0.00 | 0.00 | 0.00 | 34 | 1004.4 |
| 20260901183600 | 77 | 233 | 2.0 | 5.0 | 0.00 | 0.00 | 0.00 | 34 | 1004.4 |
| 20260901183457 | 77 | 233 | 1.0 | 5.0 | 0.00 | 0.00 | 0.00 | 34 | 1004.4 |
| 20260901183402 | 77 | 233 | 2.0 | 7.0 | 0.00 | 0.00 | 0.00 | 34 | 1004.4 |
| 20260901183307 | 77 | 233 | 3.0 | 8.0 | 0.00 | 0.00 | 0.00 | 34 | 1004.4 |
| 20260901183144 | 77 | 233 | 3.0 | 8.0 | 0.00 | 0.00 | 0.00 | 34 | 1004.4 |
| 20260901183040 | 76 | 229 | 2.0 | 8.0 | 0.00 | 0.00 | 0.00 | 35 | 1004.5 |
| 20260901182944 | 76 | 229 | 2.0 | 8.0 | 0.00 | 0.00 | 0.00 | 35 | 1004.5 |
| 20260901182841 | 76 | 229 | 1.0 | 8.0 | 0.00 | 0.00 | 0.00 | 35 | 1004.5 |
| 20260901182750 | 76 | 229 | 1.0 | 8.0 | 0.00 | 0.00 | 0.00 | 36 | 1004.5 |
| 20260901182649 | 76 | 229 | 3.0 | 8.0 | 0.00 | 0.00 | 0.00 | 36 | 1004.5 |
| 20260901182551 | 76 | 229 | 5.0 | 8.0 | 0.00 | 0.00 | 0.00 | 37 | 1004.5 |
| 20260901182448 | 75 | 220 | 6.0 | 8.0 | 0.00 | 0.00 | 0.00 | 37 | 1004.4 |
| 20260901182342 | 75 | 218 | 4.0 | 8.0 | 0.00 | 0.00 | 0.00 | 36 | 1004.4 |
| 20260901182247 | 75 | 260 | 3.0 | 7.0 | 0.00 | 0.00 | 0.00 | 36 | 1004.5 |
| 20260901182151 | 75 | 264 | 3.0 | 7.0 | 0.00 | 0.00 | 0.00 | 36 | 1004.5 |
| 20260901182055 | 75 | 264 | 4.0 | 7.0 | 0.00 | 0.00 | 0.00 | 36 | 1004.5 |
| 20260901181951 | 75 | 264 | 4.0 | 7.0 | 0.00 | 0.00 | 0.00 | 37 | 1004.5 |
| 20260901181856 | 75 | 167 | 2.0 | 5.0 | 0.00 | 0.00 | 0.00 | 37 | 1004.5 |
| 20260901181752 | 74 | 167 | 2.0 | 6.0 | 0.00 | 0.00 | 0.00 | 37 | 1004.5 |
| 20260901181649 | 74 | 167 | 2.0 | 6.0 | 0.00 | 0.00 | 0.00 | 37 | 1004.5 |
| 20260901181612 | 74 | 167 | 2.0 | 6.0 | 0.00 | 0.00 | 0.00 | 37 | 1004.5 |
| 20260901181500 | 74 | 167 | 3.0 | 6.0 | 0.00 | 0.00 | 0.00 | 38 | 1004.5 |
| 20260901181357 | 74 | 167 | 2.0 | 7.0 | 0.00 | 0.00 | 0.00 | 37 | 1004.5 |
| 20260901181323 | 74 | 167 | 1.0 | 7.0 | 0.00 | 0.00 | 0.00 | 37 | 1004.5 |
| 20260901181201 | 74 | 167 | 1.0 | 7.0 | 0.00 | 0.00 | 0.00 | 37 | 1004.5 |
| 20260901181044 | 74 | 167 | 3.0 | 7.0 | 0.00 | 0.00 | 0.00 | 37 | 1004.5 |
| 20260901180942 | 74 | 167 | 3.0 | 7.0 | 0.00 | 0.00 | 0.00 | 37 | 1004.6 |
| 20260901180908 | 74 | 167 | 3.0 | 7.0 | 0.00 | 0.00 | 0.00 | 37 | 1004.5 |
| 20260901180743 | 74 | 167 | 3.0 | 7.0 | 0.00 | 0.00 | 0.00 | 38 | 1004.5 |
| 20260901180655 | 74 | 167 | 3.0 | 7.0 | 0.00 | 0.00 | 0.00 | 38 | 1004.5 |
| 20260901180550 | 74 | 167 | 2.0 | 7.0 | 0.00 | 0.00 | 0.00 | 37 | 1004.5 |
| 20260901180446 | 73 | 167 | 1.0 | 5.0 | 0.00 | 0.00 | 0.00 | 37 | 1004.5 |
| 20260901180353 | 73 | 167 | 2.0 | 5.0 | 0.00 | 0.00 | 0.00 | 37 | 1004.5 |
| 20260901180258 | 73 | 167 | 2.0 | 5.0 | 0.00 | 0.00 | 0.00 | 38 | 1004.5 |
| 20260901180213 | 73 | 166 | 2.0 | 5.0 | 0.00 | 0.00 | 0.00 | 37 | 1004.6 |
| 20260901180055 | 73 | 166 | 2.0 | 7.0 | 0.00 | 0.00 | 0.00 | 37 | 1004.6 |
| 20260901175936 | 73 | 166 | 1.0 | 7.0 | 0.00 | 0.00 | 0.00 | 37 | 1004.6 |
| 20260901175901 | 73 | 166 | 2.0 | 7.0 | 0.00 | 0.00 | 0.00 | 38 | 1004.6 |
| 20260901175736 | 73 | 166 | 4.0 | 7.0 | 0.00 | 0.00 | 0.00 | 38 | 1004.6 |
| 20260901175703 | 73 | 166 | 4.0 | 8.0 | 0.00 | 0.00 | 0.00 | 38 | 1004.7 |
| 20260901175559 | 73 | 166 | 3.0 | 8.0 | 0.00 | 0.00 | 0.00 | 38 | 1004.6 |
| 20260901175503 | 73 | 167 | 2.0 | 8.0 | 0.00 | 0.00 | 0.00 | 39 | 1004.6 |
| 20260901175339 | 73 | 167 | 3.0 | 8.0 | 0.00 | 0.00 | 0.00 | 38 | 1004.6 |
| 20260901175309 | 73 | 167 | 5.0 | 8.0 | 0.00 | 0.00 | 0.00 | 38 | 1004.6 |
| 20260901175217 | 73 | 167 | 5.0 | 8.0 | 0.00 | 0.00 | 0.00 | 38 | 1004.7 |
| 20260901175111 | 73 | 167 | 5.0 | 8.0 | 0.00 | 0.00 | 0.00 | 39 | 1004.6 |
| 20260901174956 | 73 | 167 | 5.0 | 8.0 | 0.00 | 0.00 | 0.00 | 39 | 1004.6 |
| 20260901174852 | 73 | 169 | 3.0 | 8.0 | 0.00 | 0.00 | 0.00 | 38 | 1004.6 |
| 20260901174758 | 73 | 173 | 2.0 | 7.0 | 0.00 | 0.00 | 0.00 | 38 | 1004.7 |
| 20260901174655 | 73 | 171 | 2.0 | 7.0 | 0.00 | 0.00 | 0.00 | 38 | 1004.7 |
| 20260901174549 | 73 | 171 | 4.0 | 7.0 | 0.00 | 0.00 | 0.00 | 40 | 1004.6 |
| 20260901174458 | 72 | 171 | 3.0 | 7.0 | 0.00 | 0.00 | 0.00 | 39 | 1004.7 |
| 20260901174336 | 72 | 171 | 3.0 | 6.0 | 0.00 | 0.00 | 0.00 | 39 | 1004.7 |
| 20260901174240 | 72 | 171 | 3.0 | 6.0 | 0.00 | 0.00 | 0.00 | 39 | 1004.6 |
| 20260901174139 | 72 | 171 | 3.0 | 6.0 | 0.00 | 0.00 | 0.00 | 39 | 1004.7 |
| 20260901174043 | 72 | 171 | 4.0 | 6.0 | 0.00 | 0.00 | 0.00 | 39 | 1004.6 |
| 20260901173958 | 72 | 171 | 3.0 | 6.0 | 0.00 | 0.00 | 0.00 | 39 | 1004.6 |
| 20260901173843 | 72 | 171 | 2.0 | 6.0 | 0.00 | 0.00 | 0.00 | 39 | 1004.6 |
| 20260901173744 | 72 | 169 | 2.0 | 6.0 | 0.00 | 0.00 | 0.00 | 39 | 1004.7 |
| 20260901173652 | 72 | 169 | 4.0 | 6.0 | 0.00 | 0.00 | 0.00 | 39 | 1004.6 |
| 20260901173548 | 72 | 169 | 3.0 | 6.0 | 0.00 | 0.00 | 0.00 | 40 | 1004.6 |
| 20260901173452 | 72 | 169 | 2.0 | 6.0 | 0.00 | 0.00 | 0.00 | 39 | 1004.6 |
| 20260901173347 | 71 | 169 | 3.0 | 6.0 | 0.00 | 0.00 | 0.00 | 40 | 1004.7 |
| 20260901173252 | 71 | 169 | 3.0 | 6.0 | 0.00 | 0.00 | 0.00 | 40 | 1004.7 |
| 20260901173152 | 71 | 169 | 2.0 | 6.0 | 0.00 | 0.00 | 0.00 | 40 | 1004.7 |
| 20260901173100 | 71 | 169 | 2.0 | 6.0 | 0.00 | 0.00 | 0.00 | 40 | 1004.7 |
| 20260901172936 | 71 | 169 | 2.0 | 6.0 | 0.00 | 0.00 | 0.00 | 41 | 1004.7 |
| 20260901172902 | 71 | 169 | 2.0 | 6.0 | 0.00 | 0.00 | 0.00 | 40 | 1004.6 |
| 20260901172737 | 71 | 169 | 2.0 | 6.0 | 0.00 | 0.00 | 0.00 | 41 | 1004.7 |
| 20260901172645 | 71 | 169 | 2.0 | 6.0 | 0.00 | 0.00 | 0.00 | 40 | 1004.6 |
| 20260901172539 | 71 | 169 | 4.0 | 6.0 | 0.00 | 0.00 | 0.00 | 41 | 1004.6 |
| 20260901172445 | 71 | 169 | 4.0 | 6.0 | 0.00 | 0.00 | 0.00 | 41 | 1004.7 |
| 20260901172337 | 70 | 171 | 4.0 | 6.0 | 0.00 | 0.00 | 0.00 | 41 | 1004.7 |
| 20260901172247 | 70 | 171 | 3.0 | 6.0 | 0.00 | 0.00 | 0.00 | 41 | 1004.7 |
| 20260901172147 | 70 | 171 | 3.0 | 6.0 | 0.00 | 0.00 | 0.00 | 41 | 1004.7 |
| 20260901172052 | 70 | 171 | 3.0 | 6.0 | 0.00 | 0.00 | 0.00 | 42 | 1004.7 |
| 20260901171949 | 70 | 171 | 2.0 | 6.0 | 0.00 | 0.00 | 0.00 | 41 | 1004.6 |
| 20260901171853 | 70 | 170 | 1.0 | 6.0 | 0.00 | 0.00 | 0.00 | 40 | 1004.6 |
| 20260901171750 | 70 | 170 | 1.0 | 6.0 | 0.00 | 0.00 | 0.00 | 41 | 1004.6 |
| 20260901171644 | 70 | 170 | 1.0 | 6.0 | 0.00 | 0.00 | 0.00 | 41 | 1004.6 |
| 20260901171536 | 70 | 170 | 2.0 | 6.0 | 0.00 | 0.00 | 0.00 | 41 | 1004.6 |
| 20260901171503 | 70 | 170 | 2.0 | 6.0 | 0.00 | 0.00 | 0.00 | 41 | 1004.6 |
| 20260901171340 | 69 | 170 | 3.0 | 6.0 | 0.00 | 0.00 | 0.00 | 43 | 1004.6 |
| 20260901171236 | 69 | 170 | 4.0 | 6.0 | 0.00 | 0.00 | 0.00 | 42 | 1004.6 |
| 20260901171145 | 69 | 171 | 3.0 | 6.0 | 0.00 | 0.00 | 0.00 | 43 | 1004.6 |
| 20260901171040 | 69 | 170 | 2.0 | 6.0 | 0.00 | 0.00 | 0.00 | 43 | 1004.6 |
| 20260901170941 | 69 | 169 | 2.0 | 6.0 | 0.00 | 0.00 | 0.00 | 42 | 1004.6 |
| 20260901170847 | 69 | 169 | 2.0 | 6.0 | 0.00 | 0.00 | 0.00 | 42 | 1004.6 |
| 20260901170744 | 69 | 169 | 2.0 | 6.0 | 0.00 | 0.00 | 0.00 | 42 | 1004.5 |
| 20260901170653 | 69 | 169 | 2.0 | 6.0 | 0.00 | 0.00 | 0.00 | 43 | 1004.5 |
| 20260901170548 | 68 | 169 | 3.0 | 8.0 | 0.00 | 0.00 | 0.00 | 43 | 1004.5 |
| 20260901170513 | 68 | 169 | 4.0 | 8.0 | 0.00 | 0.00 | 0.00 | 44 | 1004.6 |
| 20260901170418 | 68 | 169 | 4.0 | 8.0 | 0.00 | 0.00 | 0.00 | 45 | 1004.6 |
| 20260901170249 | 68 | 169 | 3.0 | 8.0 | 0.00 | 0.00 | 0.00 | 44 | 1004.6 |
| 20260901170143 | 68 | 169 | 3.0 | 8.0 | 0.00 | 0.00 | 0.00 | 44 | 1004.6 |
| 20260901170038 | 68 | 169 | 4.0 | 8.0 | 0.00 | 0.00 | 0.00 | 45 | 1004.6 |
| 20260901170001 | 68 | 169 | 5.0 | 8.0 | 0.00 | 0.00 | 0.00 | 44 | 1004.6 |
| 20260901165846 | 68 | 169 | 5.0 | 8.0 | 0.00 | 0.00 | 0.00 | 45 | 1004.6 |
| 20260901165743 | 68 | 169 | 5.0 | 8.0 | 0.00 | 0.00 | 0.00 | 46 | 1004.6 |
| 20260901165641 | 67 | 170 | 5.0 | 8.0 | 0.00 | 0.00 | 0.00 | 45 | 1004.6 |
| 20260901165544 | 67 | 175 | 5.0 | 6.0 | 0.00 | 0.00 | 0.00 | 45 | 1004.6 |
| 20260901165445 | 67 | 180 | 4.0 | 5.0 | 0.00 | 0.00 | 0.00 | 45 | 1004.6 |
| 20260901165351 | 67 | 180 | 3.0 | 6.0 | 0.00 | 0.00 | 0.00 | 45 | 1004.6 |
| 20260901165317 | 67 | 180 | 2.0 | 5.0 | 0.00 | 0.00 | 0.00 | 45 | 1004.6 |
| 20260901165216 | 67 | 180 | 2.0 | 5.0 | 0.00 | 0.00 | 0.00 | 45 | 1004.7 |
| 20260901165058 | 67 | 180 | 3.0 | 6.0 | 0.00 | 0.00 | 0.00 | 45 | 1004.7 |
| 20260901164954 | 67 | 180 | 4.0 | 6.0 | 0.00 | 0.00 | 0.00 | 46 | 1004.7 |
| 20260901164900 | 66 | 180 | 5.0 | 7.0 | 0.00 | 0.00 | 0.00 | 46 | 1004.7 |
| 20260901164739 | 66 | 181 | 4.0 | 7.0 | 0.00 | 0.00 | 0.00 | 46 | 1004.7 |
| 20260901164638 | 66 | 181 | 3.0 | 7.0 | 0.00 | 0.00 | 0.00 | 47 | 1004.7 |
| 20260901164539 | 66 | 181 | 1.0 | 7.0 | 0.00 | 0.00 | 0.00 | 46 | 1004.7 |
| 20260901164506 | 66 | 182 | 1.0 | 7.0 | 0.00 | 0.00 | 0.00 | 46 | 1004.7 |
| 20260901164341 | 66 | 182 | 2.0 | 7.0 | 0.00 | 0.00 | 0.00 | 46 | 1004.7 |
| 20260901164238 | 66 | 182 | 4.0 | 7.0 | 0.00 | 0.00 | 0.00 | 46 | 1004.7 |
| 20260901164147 | 66 | 182 | 6.0 | 7.0 | 0.00 | 0.00 | 0.00 | 46 | 1004.7 |
| 20260901164046 | 66 | 182 | 6.0 | 7.0 | 0.00 | 0.00 | 0.00 | 45 | 1004.7 |
| 20260901163952 | 65 | 180 | 5.0 | 8.0 | 0.00 | 0.00 | 0.00 | 46 | 1004.7 |
| 20260901163849 | 65 | 175 | 4.0 | 7.0 | 0.00 | 0.00 | 0.00 | 45 | 1004.7 |
| 20260901163754 | 65 | 174 | 4.0 | 7.0 | 0.00 | 0.00 | 0.00 | 46 | 1004.7 |
| 20260901163654 | 65 | 175 | 5.0 | 7.0 | 0.00 | 0.00 | 0.00 | 46 | 1004.7 |
| 20260901163557 | 65 | 174 | 4.0 | 7.0 | 0.00 | 0.00 | 0.00 | 46 | 1004.7 |
| 20260901163453 | 65 | 173 | 3.0 | 7.0 | 0.00 | 0.00 | 0.00 | 47 | 1004.7 |
| 20260901163403 | 65 | 172 | 3.0 | 7.0 | 0.00 | 0.00 | 0.00 | 46 | 1004.7 |
| 20260901163239 | 65 | 172 | 3.0 | 7.0 | 0.00 | 0.00 | 0.00 | 46 | 1004.7 |
| 20260901163140 | 64 | 172 | 3.0 | 7.0 | 0.00 | 0.00 | 0.00 | 47 | 1004.7 |
| 20260901163103 | 64 | 172 | 2.0 | 7.0 | 0.00 | 0.00 | 0.00 | 47 | 1004.7 |
| 20260901162939 | 64 | 172 | 3.0 | 7.0 | 0.00 | 0.00 | 0.00 | 46 | 1004.7 |
| 20260901162845 | 64 | 172 | 4.0 | 7.0 | 0.00 | 0.00 | 0.00 | 46 | 1004.7 |
| 20260901162742 | 64 | 172 | 5.0 | 7.0 | 0.00 | 0.00 | 0.00 | 47 | 1004.7 |
| 20260901162653 | 64 | 172 | 5.0 | 7.0 | 0.00 | 0.00 | 0.00 | 46 | 1004.7 |
| 20260901162549 | 64 | 172 | 5.0 | 7.0 | 0.00 | 0.00 | 0.00 | 47 | 1004.7 |
| 20260901162446 | 63 | 169 | 3.0 | 7.0 | 0.00 | 0.00 | 0.00 | 47 | 1004.7 |
| 20260901162411 | 63 | 167 | 2.0 | 7.0 | 0.00 | 0.00 | 0.00 | 48 | 1004.7 |
| 20260901162317 | 63 | 165 | 1.0 | 6.0 | 0.00 | 0.00 | 0.00 | 48 | 1004.7 |
| 20260901162225 | 63 | 165 | 2.0 | 6.0 | 0.00 | 0.00 | 0.00 | 48 | 1004.7 |
| 20260901162058 | 63 | 165 | 3.0 | 7.0 | 0.00 | 0.00 | 0.00 | 48 | 1004.6 |
| 20260901161944 | 63 | 165 | 3.0 | 7.0 | 0.00 | 0.00 | 0.00 | 49 | 1004.6 |
| 20260901161843 | 62 | 165 | 3.0 | 7.0 | 0.00 | 0.00 | 0.00 | 49 | 1004.6 |
| 20260901161740 | 62 | 165 | 2.0 | 7.0 | 0.00 | 0.00 | 0.00 | 49 | 1004.7 |
| 20260901161648 | 62 | 165 | 2.0 | 7.0 | 0.00 | 0.00 | 0.00 | 50 | 1004.7 |
| 20260901161542 | 62 | 165 | 3.0 | 7.0 | 0.00 | 0.00 | 0.00 | 50 | 1004.7 |
| 20260901161447 | 62 | 165 | 3.0 | 7.0 | 0.00 | 0.00 | 0.00 | 51 | 1004.7 |
| 20260901161344 | 61 | 165 | 3.0 | 7.0 | 0.00 | 0.00 | 0.00 | 51 | 1004.7 |
| 20260901161254 | 61 | 165 | 2.0 | 7.0 | 0.00 | 0.00 | 0.00 | 51 | 1004.6 |
| 20260901161214 | 61 | 165 | 1.0 | 6.0 | 0.00 | 0.00 | 0.00 | 52 | 1004.7 |
| 20260901161054 | 61 | 165 | 2.0 | 6.0 | 0.00 | 0.00 | 0.00 | 51 | 1004.7 |
| 20260901160959 | 61 | 165 | 2.0 | 6.0 | 0.00 | 0.00 | 0.00 | 50 | 1004.7 |
| 20260901160856 | 61 | 165 | 3.0 | 6.0 | 0.00 | 0.00 | 0.00 | 51 | 1004.7 |
| 20260901160740 | 60 | 165 | 3.0 | 6.0 | 0.00 | 0.00 | 0.00 | 51 | 1004.7 |
| 20260901160640 | 60 | 165 | 3.0 | 6.0 | 0.00 | 0.00 | 0.00 | 51 | 1004.7 |
| 20260901160544 | 60 | 165 | 2.0 | 6.0 | 0.00 | 0.00 | 0.00 | 52 | 1004.7 |
| 20260901160445 | 60 | 165 | 2.0 | 5.0 | 0.00 | 0.00 | 0.00 | 51 | 1004.7 |
| 20260901160342 | 60 | 165 | 2.0 | 5.0 | 0.00 | 0.00 | 0.00 | 51 | 1004.7 |
| 20260901160300 | 60 | 165 | 2.0 | 5.0 | 0.00 | 0.00 | 0.00 | 52 | 1004.7 |
| 20260901160145 | 60 | 165 | 2.0 | 4.0 | 0.00 | 0.00 | 0.00 | 52 | 1004.7 |
| 20260901160049 | 59 | 165 | 2.0 | 4.0 | 0.00 | 0.00 | 0.00 | 52 | 1004.8 |
| 20260901160016 | 59 | 165 | 2.0 | 4.0 | 0.00 | 0.00 | 0.00 | 53 | 1004.8 |
| 20260901155851 | 59 | 165 | 2.0 | 4.0 | 0.00 | 0.00 | 0.00 | 52 | 1004.8 |
| 20260901155801 | 59 | 165 | 3.0 | 4.0 | 0.00 | 0.00 | 0.00 | 53 | 1004.8 |
| 20260901155720 | 59 | 152 | 2.0 | 4.0 | 0.00 | 0.00 | 0.00 | 53 | 1004.9 |
| 20260901155622 | 59 | 152 | 2.0 | 4.0 | 0.00 | 0.00 | 0.00 | 53 | 1004.8 |
| 20260901155525 | 59 | 152 | 2.0 | 4.0 | 0.00 | 0.00 | 0.00 | 53 | 1004.8 |
| 20260901155257 | 58 | 152 | 3.0 | 4.0 | 0.00 | 0.00 | 0.00 | 55 | 1004.9 |
| 20260901155157 | 58 | 152 | 3.0 | 4.0 | 0.00 | 0.00 | 0.00 | 54 | 1004.8 |
| 20260901155121 | 58 | 152 | 3.0 | 4.0 | 0.00 | 0.00 | 0.00 | 54 | 1004.9 |
| 20260901154935 | 58 | 152 | 3.0 | 4.0 | 0.00 | 0.00 | 0.00 | 55 | 1004.9 |
| 20260901154836 | 58 | 152 | 3.0 | 4.0 | 0.00 | 0.00 | 0.00 | 55 | 1004.9 |
| 20260901154740 | 57 | 152 | 3.0 | 4.0 | 0.00 | 0.00 | 0.00 | 55 | 1004.8 |
| 20260901154640 | 57 | 152 | 3.0 | 4.0 | 0.00 | 0.00 | 0.00 | 55 | 1004.9 |
| 20260901154543 | 57 | 151 | 3.0 | 4.0 | 0.00 | 0.00 | 0.00 | 56 | 1004.9 |
| 20260901154440 | 57 | 151 | 2.0 | 4.0 | 0.00 | 0.00 | 0.00 | 56 | 1005.0 |
| 20260901154406 | 57 | 151 | 2.0 | 3.0 | 0.00 | 0.00 | 0.00 | 57 | 1004.9 |
| 20260901154240 | 57 | 151 | 2.0 | 4.0 | 0.00 | 0.00 | 0.00 | 57 | 1005.0 |
| 20260901154154 | 57 | 151 | 2.0 | 4.0 | 0.00 | 0.00 | 0.00 | 56 | 1004.9 |
| 20260901154051 | 56 | 151 | 1.0 | 4.0 | 0.00 | 0.00 | 0.00 | 56 | 1005.0 |
| 20260901153936 | 56 | 151 | 0.0 | 4.0 | 0.00 | 0.00 | 0.00 | 57 | 1004.9 |
| 20260901153853 | 56 | 151 | 0.0 | 4.0 | 0.00 | 0.00 | 0.00 | 57 | 1004.9 |
| 20260901153759 | 56 | 151 | 0.0 | 4.0 | 0.00 | 0.00 | 0.00 | 57 | 1005.0 |
| 20260901153639 | 56 | 151 | 1.0 | 4.0 | 0.00 | 0.00 | 0.00 | 57 | 1005.0 |
| 20260901153538 | 56 | 151 | 3.0 | 4.0 | 0.00 | 0.00 | 0.00 | 57 | 1005.0 |
| 20260901153444 | 56 | 151 | 3.0 | 4.0 | 0.00 | 0.00 | 0.00 | 58 | 1005.0 |
| 20260901153340 | 56 | 151 | 2.0 | 4.0 | 0.00 | 0.00 | 0.00 | 57 | 1005.0 |
| 20260901153236 | 56 | 151 | 2.0 | 4.0 | 0.00 | 0.00 | 0.00 | 57 | 1005.0 |
| 20260901153143 | 56 | 151 | 2.0 | 4.0 | 0.00 | 0.00 | 0.00 | 57 | 1005.0 |
| 20260901153046 | 56 | 151 | 2.0 | 4.0 | 0.00 | 0.00 | 0.00 | 57 | 1005.0 |
| 20260901152943 | 56 | 151 | 2.0 | 4.0 | 0.00 | 0.00 | 0.00 | 57 | 1005.0 |
| 20260901152853 | 56 | 151 | 2.0 | 4.0 | 0.00 | 0.00 | 0.00 | 57 | 1005.0 |
| 20260901152749 | 56 | 151 | 2.0 | 4.0 | 0.00 | 0.00 | 0.00 | 58 | 1005.0 |
| 20260901152648 | 56 | 151 | 1.0 | 4.0 | 0.00 | 0.00 | 0.00 | 57 | 1005.0 |
| 20260901152553 | 56 | 151 | 1.0 | 4.0 | 0.00 | 0.00 | 0.00 | 58 | 1005.0 |
| 20260901152450 | 55 | 151 | 2.0 | 4.0 | 0.00 | 0.00 | 0.00 | 58 | 1005.0 |
| 20260901152354 | 55 | 151 | 2.0 | 4.0 | 0.00 | 0.00 | 0.00 | 58 | 1005.0 |
| 20260901152235 | 55 | 150 | 1.0 | 4.0 | 0.00 | 0.00 | 0.00 | 58 | 1005.0 |
| 20260901152155 | 55 | 150 | 1.0 | 4.0 | 0.00 | 0.00 | 0.00 | 58 | 1005.0 |
| 20260901152059 | 55 | 150 | 1.0 | 4.0 | 0.00 | 0.00 | 0.00 | 58 | 1005.0 |
| 20260901151955 | 55 | 150 | 2.0 | 7.0 | 0.00 | 0.00 | 0.00 | 58 | 1005.0 |
| 20260901151901 | 55 | 150 | 2.0 | 7.0 | 0.00 | 0.00 | 0.00 | 58 | 1005.0 |
| 20260901151737 | 55 | 150 | 2.0 | 7.0 | 0.00 | 0.00 | 0.00 | 58 | 1005.1 |
| 20260901151645 | 55 | 150 | 3.0 | 7.0 | 0.00 | 0.00 | 0.00 | 58 | 1005.0 |
| 20260901151544 | 55 | 150 | 2.0 | 9.0 | 0.00 | 0.00 | 0.00 | 58 | 1005.1 |
| 20260901151442 | 55 | 150 | 2.0 | 9.0 | 0.00 | 0.00 | 0.00 | 59 | 1005.0 |
| 20260901151347 | 55 | 150 | 2.0 | 9.0 | 0.00 | 0.00 | 0.00 | 59 | 1005.0 |
| 20260901151252 | 55 | 150 | 3.0 | 9.0 | 0.00 | 0.00 | 0.00 | 59 | 1005.0 |
| 20260901151153 | 55 | 150 | 4.0 | 9.0 | 0.00 | 0.00 | 0.00 | 59 | 1005.0 |
| 20260901151046 | 55 | 151 | 5.0 | 9.0 | 0.00 | 0.00 | 0.00 | 59 | 1005.0 |
| 20260901150951 | 55 | 150 | 4.0 | 9.0 | 0.00 | 0.00 | 0.00 | 59 | 1005.0 |
| 20260901150857 | 54 | 150 | 4.0 | 9.0 | 0.00 | 0.00 | 0.00 | 59 | 1005.0 |
| 20260901150737 | 54 | 150 | 5.0 | 9.0 | 0.00 | 0.00 | 0.00 | 59 | 1005.0 |
| 20260901150703 | 54 | 150 | 5.0 | 9.0 | 0.00 | 0.00 | 0.00 | 60 | 1005.0 |
| 20260901150539 | 54 | 150 | 5.0 | 9.0 | 0.00 | 0.00 | 0.00 | 60 | 1005.0 |
| 20260901150456 | 54 | 150 | 4.0 | 8.0 | 0.00 | 0.00 | 0.00 | 61 | 1005.0 |
| 20260901150341 | 54 | 152 | 3.0 | 7.0 | 0.00 | 0.00 | 0.00 | 61 | 1004.9 |
| 20260901150250 | 54 | 150 | 3.0 | 5.0 | 0.00 | 0.00 | 0.00 | 61 | 1004.9 |
| 20260901150149 | 54 | 150 | 3.0 | 5.0 | 0.00 | 0.00 | 0.00 | 61 | 1004.9 |
| 20260901150044 | 54 | 150 | 2.0 | 5.0 | 0.00 | 0.00 | 0.00 | 61 | 1004.9 |
| 20260901145951 | 54 | 150 | 2.0 | 5.0 | 0.00 | 0.00 | 0.00 | 61 | 1004.9 |
| 20260901145847 | 53 | 150 | 2.0 | 5.0 | 0.00 | 0.00 | 0.00 | 62 | 1005.0 |
| 20260901145813 | 53 | 150 | 3.0 | 5.0 | 0.00 | 0.00 | 0.00 | 62 | 1004.9 |
| 20260901145650 | 53 | 150 | 2.0 | 5.0 | 0.00 | 0.00 | 0.00 | 62 | 1004.8 |
| 20260901145554 | 53 | 150 | 2.0 | 5.0 | 0.00 | 0.00 | 0.00 | 62 | 1004.9 |
| 20260901145435 | 53 | 150 | 3.0 | 5.0 | 0.00 | 0.00 | 0.00 | 63 | 1004.9 |
| 20260901145401 | 53 | 150 | 3.0 | 5.0 | 0.00 | 0.00 | 0.00 | 63 | 1004.9 |
| 20260901145238 | 53 | 149 | 3.0 | 5.0 | 0.00 | 0.00 | 0.00 | 63 | 1004.9 |
| 20260901145137 | 53 | 149 | 2.0 | 5.0 | 0.00 | 0.00 | 0.00 | 63 | 1004.8 |
| 20260901145101 | 53 | 148 | 1.0 | 5.0 | 0.00 | 0.00 | 0.00 | 63 | 1004.8 |
| 20260901144938 | 53 | 148 | 0.0 | 5.0 | 0.00 | 0.00 | 0.00 | 63 | 1004.8 |
| 20260901144840 | 53 | 148 | 1.0 | 5.0 | 0.00 | 0.00 | 0.00 | 63 | 1004.8 |
| 20260901144747 | 53 | 148 | 1.0 | 5.0 | 0.00 | 0.00 | 0.00 | 63 | 1004.8 |
| 20260901144645 | 53 | 148 | 2.0 | 5.0 | 0.00 | 0.00 | 0.00 | 63 | 1004.7 |
| 20260901144548 | 53 | 149 | 2.0 | 5.0 | 0.00 | 0.00 | 0.00 | 63 | 1004.8 |
| 20260901144445 | 53 | 148 | 1.0 | 5.0 | 0.00 | 0.00 | 0.00 | 63 | 1004.7 |
| 20260901144352 | 52 | 148 | 2.0 | 5.0 | 0.00 | 0.00 | 0.00 | 63 | 1004.7 |
| 20260901144248 | 52 | 148 | 2.0 | 5.0 | 0.00 | 0.00 | 0.00 | 63 | 1004.7 |
| 20260901144152 | 52 | 148 | 3.0 | 5.0 | 0.00 | 0.00 | 0.00 | 63 | 1004.7 |
| 20260901144056 | 52 | 148 | 3.0 | 5.0 | 0.00 | 0.00 | 0.00 | 63 | 1004.7 |
| 20260901143953 | 52 | 148 | 3.0 | 5.0 | 0.00 | 0.00 | 0.00 | 63 | 1004.7 |
| 20260901143859 | 52 | 148 | 3.0 | 5.0 | 0.00 | 0.00 | 0.00 | 64 | 1004.6 |
| 20260901143735 | 52 | 148 | 2.0 | 5.0 | 0.00 | 0.00 | 0.00 | 64 | 1004.7 |
| 20260901143654 | 52 | 148 | 2.0 | 5.0 | 0.00 | 0.00 | 0.00 | 64 | 1004.7 |
| 20260901143603 | 52 | 148 | 3.0 | 5.0 | 0.00 | 0.00 | 0.00 | 64 | 1004.7 |
| 20260901143438 | 52 | 148 | 2.0 | 4.0 | 0.00 | 0.00 | 0.00 | 63 | 1004.6 |
| 20260901143402 | 52 | 148 | 2.0 | 3.0 | 0.00 | 0.00 | 0.00 | 63 | 1004.6 |
| 20260901143238 | 52 | 148 | 1.0 | 3.0 | 0.00 | 0.00 | 0.00 | 63 | 1004.6 |
| 20260901143146 | 52 | 148 | 2.0 | 3.0 | 0.00 | 0.00 | 0.00 | 64 | 1004.6 |
| 20260901143041 | 52 | 148 | 2.0 | 4.0 | 0.00 | 0.00 | 0.00 | 63 | 1004.6 |
| 20260901142946 | 52 | 148 | 2.0 | 4.0 | 0.00 | 0.00 | 0.00 | 63 | 1004.6 |
| 20260901142846 | 52 | 148 | 1.0 | 4.0 | 0.00 | 0.00 | 0.00 | 63 | 1004.6 |
| 20260901142812 | 52 | 148 | 2.0 | 4.0 | 0.00 | 0.00 | 0.00 | 63 | 1004.6 |
| 20260901142651 | 52 | 148 | 2.0 | 4.0 | 0.00 | 0.00 | 0.00 | 63 | 1004.6 |
| 20260901142554 | 52 | 148 | 1.0 | 4.0 | 0.00 | 0.00 | 0.00 | 63 | 1004.6 |
| 20260901142451 | 52 | 148 | 1.0 | 4.0 | 0.00 | 0.00 | 0.00 | 63 | 1004.6 |
| 20260901142335 | 52 | 148 | 1.0 | 4.0 | 0.00 | 0.00 | 0.00 | 63 | 1004.6 |
| 20260901142252 | 52 | 148 | 2.0 | 4.0 | 0.00 | 0.00 | 0.00 | 63 | 1004.6 |
| 20260901142201 | 52 | 148 | 2.0 | 4.0 | 0.00 | 0.00 | 0.00 | 63 | 1004.6 |
| 20260901142039 | 52 | 148 | 1.0 | 4.0 | 0.00 | 0.00 | 0.00 | 63 | 1004.5 |
| 20260901141936 | 52 | 148 | 1.0 | 3.0 | 0.00 | 0.00 | 0.00 | 63 | 1004.5 |
| 20260901141841 | 52 | 148 | 1.0 | 3.0 | 0.00 | 0.00 | 0.00 | 63 | 1004.5 |
| 20260901141738 | 52 | 148 | 2.0 | 3.0 | 0.00 | 0.00 | 0.00 | 63 | 1004.5 |
| 20260901141707 | 52 | 148 | 1.0 | 3.0 | 0.00 | 0.00 | 0.00 | 63 | 1004.5 |
| 20260901141540 | 52 | 148 | 1.0 | 3.0 | 0.00 | 0.00 | 0.00 | 63 | 1004.5 |
| 20260901141506 | 52 | 148 | 1.0 | 3.0 | 0.00 | 0.00 | 0.00 | 63 | 1004.5 |
| 20260901141414 | 52 | 148 | 1.0 | 3.0 | 0.00 | 0.00 | 0.00 | 63 | 1004.5 |
| 20260901141249 | 52 | 148 | 2.0 | 3.0 | 0.00 | 0.00 | 0.00 | 63 | 1004.5 |
| 20260901141158 | 52 | 148 | 2.0 | 3.0 | 0.00 | 0.00 | 0.00 | 63 | 1004.5 |
| 20260901141053 | 52 | 148 | 1.0 | 3.0 | 0.00 | 0.00 | 0.00 | 63 | 1004.4 |
| 20260901141000 | 52 | 148 | 0.0 | 4.0 | 0.00 | 0.00 | 0.00 | 63 | 1004.4 |
| 20260901140835 | 52 | 148 | 0.0 | 4.0 | 0.00 | 0.00 | 0.00 | 63 | 1004.4 |
| 20260901140801 | 52 | 148 | 0.0 | 4.0 | 0.00 | 0.00 | 0.00 | 63 | 1004.4 |
| 20260901140645 | 52 | 148 | 1.0 | 4.0 | 0.00 | 0.00 | 0.00 | 63 | 1004.4 |
| 20260901140540 | 52 | 148 | 1.0 | 5.0 | 0.00 | 0.00 | 0.00 | 63 | 1004.4 |
| 20260901140505 | 52 | 148 | 1.0 | 7.0 | 0.00 | 0.00 | 0.00 | 63 | 1004.4 |
| 20260901140347 | 52 | 148 | 1.0 | 7.0 | 0.00 | 0.00 | 0.00 | 63 | 1004.4 |
| 20260901140255 | 52 | 148 | 2.0 | 7.0 | 0.00 | 0.00 | 0.00 | 63 | 1004.4 |
| 20260901140150 | 52 | 148 | 2.0 | 7.0 | 0.00 | 0.00 | 0.00 | 63 | 1004.4 |
| 20260901140045 | 52 | 148 | 1.0 | 7.0 | 0.00 | 0.00 | 0.00 | 63 | 1004.4 |
| 20260901135954 | 52 | 148 | 2.0 | 7.0 | 0.00 | 0.00 | 0.00 | 63 | 1004.4 |
| 20260901135851 | 52 | 148 | 3.0 | 7.0 | 0.00 | 0.00 | 0.00 | 63 | 1004.4 |
| 20260901135756 | 52 | 148 | 4.0 | 7.0 | 0.00 | 0.00 | 0.00 | 63 | 1004.3 |
| 20260901135655 | 52 | 148 | 4.0 | 7.0 | 0.00 | 0.00 | 0.00 | 63 | 1004.3 |
| 20260901135557 | 52 | 148 | 3.0 | 7.0 | 0.00 | 0.00 | 0.00 | 63 | 1004.3 |
| 20260901135502 | 52 | 148 | 2.0 | 5.0 | 0.00 | 0.00 | 0.00 | 63 | 1004.3 |
| 20260901135338 | 52 | 148 | 2.0 | 5.0 | 0.00 | 0.00 | 0.00 | 63 | 1004.3 |
| 20260901135305 | 52 | 148 | 1.0 | 5.0 | 0.00 | 0.00 | 0.00 | 63 | 1004.3 |
| 20260901135145 | 52 | 148 | 1.0 | 5.0 | 0.00 | 0.00 | 0.00 | 63 | 1004.3 |
| 20260901135038 | 52 | 148 | 2.0 | 5.0 | 0.00 | 0.00 | 0.00 | 62 | 1004.2 |
| 20260901134943 | 52 | 148 | 2.0 | 5.0 | 0.00 | 0.00 | 0.00 | 62 | 1004.2 |
| 20260901134840 | 52 | 148 | 1.0 | 5.0 | 0.00 | 0.00 | 0.00 | 62 | 1004.2 |
| 20260901134746 | 52 | 148 | 3.0 | 5.0 | 0.00 | 0.00 | 0.00 | 62 | 1004.2 |
| 20260901134645 | 52 | 148 | 4.0 | 5.0 | 0.00 | 0.00 | 0.00 | 62 | 1004.2 |
| 20260901134540 | 52 | 147 | 3.0 | 5.0 | 0.00 | 0.00 | 0.00 | 62 | 1004.2 |
| 20260901134450 | 52 | 147 | 3.0 | 5.0 | 0.00 | 0.00 | 0.00 | 62 | 1004.2 |
| 20260901134345 | 52 | 147 | 3.0 | 5.0 | 0.00 | 0.00 | 0.00 | 62 | 1004.2 |
| 20260901134251 | 52 | 146 | 3.0 | 5.0 | 0.00 | 0.00 | 0.00 | 61 | 1004.2 |
| 20260901134150 | 52 | 146 | 2.0 | 5.0 | 0.00 | 0.00 | 0.00 | 61 | 1004.2 |
| 20260901134055 | 52 | 146 | 2.0 | 5.0 | 0.00 | 0.00 | 0.00 | 61 | 1004.2 |
| 20260901134012 | 52 | 146 | 2.0 | 5.0 | 0.00 | 0.00 | 0.00 | 61 | 1004.2 |
| 20260901133856 | 52 | 146 | 3.0 | 7.0 | 0.00 | 0.00 | 0.00 | 61 | 1004.2 |
| 20260901133736 | 52 | 146 | 3.0 | 7.0 | 0.00 | 0.00 | 0.00 | 61 | 1004.2 |
| 20260901133704 | 52 | 146 | 2.0 | 7.0 | 0.00 | 0.00 | 0.00 | 61 | 1004.2 |
| 20260901133540 | 52 | 146 | 3.0 | 7.0 | 0.00 | 0.00 | 0.00 | 61 | 1004.2 |
| 20260901133437 | 53 | 146 | 4.0 | 7.0 | 0.00 | 0.00 | 0.00 | 61 | 1004.2 |
| 20260901133403 | 53 | 146 | 4.0 | 7.0 | 0.00 | 0.00 | 0.00 | 61 | 1004.2 |
| 20260901133238 | 53 | 146 | 4.0 | 7.0 | 0.00 | 0.00 | 0.00 | 60 | 1004.2 |
| 20260901133141 | 53 | 146 | 4.0 | 7.0 | 0.00 | 0.00 | 0.00 | 59 | 1004.2 |
| 20260901133046 | 53 | 146 | 3.0 | 7.0 | 0.00 | 0.00 | 0.00 | 59 | 1004.2 |
| 20260901132943 | 53 | 142 | 2.0 | 4.0 | 0.00 | 0.00 | 0.00 | 59 | 1004.2 |
| 20260901132849 | 53 | 142 | 1.0 | 3.0 | 0.00 | 0.00 | 0.00 | 59 | 1004.2 |
| 20260901132806 | 53 | 142 | 1.0 | 3.0 | 0.00 | 0.00 | 0.00 | 59 | 1004.2 |
| 20260901132654 | 53 | 142 | 1.0 | 3.0 | 0.00 | 0.00 | 0.00 | 58 | 1004.2 |
| 20260901132547 | 53 | 142 | 1.0 | 3.0 | 0.00 | 0.00 | 0.00 | 58 | 1004.2 |
| 20260901132457 | 53 | 142 | 1.0 | 3.0 | 0.00 | 0.00 | 0.00 | 58 | 1004.2 |
| 20260901132404 | 53 | 142 | 0.0 | 3.0 | 0.00 | 0.00 | 0.00 | 58 | 1004.2 |
| 20260901132240 | 53 | 142 | 0.0 | 0.0 | 0.00 | 0.00 | 0.00 | 57 | 1004.3 |
| 20260901132208 | 53 | 142 | 0.0 | 0.0 | 0.00 | 0.00 | 0.00 | 57 | 1004.2 |
| 20260901132041 | 53 | 142 | 0.0 | 0.0 | 0.00 | 0.00 | 0.00 | 57 | 1004.2 |
| 20260901131937 | 54 | 142 | 0.0 | 0.0 | 0.00 | 0.00 | 0.00 | 57 | 1004.2 |
| 20260901131842 | 54 | 142 | 0.0 | 0.0 | 0.00 | 0.00 | 0.00 | 57 | 1004.3 |
| 20260901131741 | 54 | 142 | 0.0 | 0.0 | 0.00 | 0.00 | 0.00 | 57 | 1004.2 |
| 20260901131650 | 54 | 142 | 0.0 | 0.0 | 0.00 | 0.00 | 0.00 | 57 | 1004.2 |
| 20260901131544 | 54 | 142 | 0.0 | 0.0 | 0.00 | 0.00 | 0.00 | 57 | 1004.2 |
| 20260901131449 | 54 | 142 | 0.0 | 0.0 | 0.00 | 0.00 | 0.00 | 57 | 1004.2 |
| 20260901131345 | 54 | 142 | 0.0 | 2.0 | 0.00 | 0.00 | 0.00 | 57 | 1004.2 |
| 20260901131252 | 54 | 142 | 0.0 | 2.0 | 0.00 | 0.00 | 0.00 | 57 | 1004.2 |
| 20260901131150 | 54 | 142 | 0.0 | 2.0 | 0.00 | 0.00 | 0.00 | 57 | 1004.2 |
| 20260901131057 | 54 | 142 | 0.0 | 2.0 | 0.00 | 0.00 | 0.00 | 57 | 1004.2 |
| 20260901130954 | 54 | 142 | 0.0 | 2.0 | 0.00 | 0.00 | 0.00 | 57 | 1004.2 |
| 20260901130920 | 54 | 142 | 0.0 | 2.0 | 0.00 | 0.00 | 0.00 | 57 | 1004.2 |
| 20260901130735 | 54 | 142 | 0.0 | 2.0 | 0.00 | 0.00 | 0.00 | 57 | 1004.1 |
| 20260901130705 | 54 | 142 | 0.0 | 2.0 | 0.00 | 0.00 | 0.00 | 57 | 1004.1 |
| 20260901130539 | 54 | 142 | 1.0 | 2.0 | 0.00 | 0.00 | 0.00 | 57 | 1004.1 |
| 20260901130436 | 54 | 142 | 1.0 | 2.0 | 0.00 | 0.00 | 0.00 | 57 | 1004.1 |
| 20260901130347 | 54 | 142 | 1.0 | 3.0 | 0.00 | 0.00 | 0.00 | 57 | 1004.1 |
| 20260901130255 | 54 | 142 | 1.0 | 3.0 | 0.00 | 0.00 | 0.00 | 57 | 1004.0 |
| 20260901130209 | 54 | 142 | 1.0 | 3.0 | 0.00 | 0.00 | 0.00 | 57 | 1004.1 |
| 20260901130113 | 54 | 142 | 1.0 | 4.0 | 0.00 | 0.00 | 0.00 | 57 | 1004.1 |
| 20260901125947 | 54 | 142 | 1.0 | 5.0 | 0.00 | 0.00 | 0.00 | 57 | 1004.1 |
| 20260901125854 | 54 | 142 | 0.0 | 5.0 | 0.00 | 0.00 | 0.00 | 57 | 1004.0 |
| 20260901125758 | 54 | 142 | 0.0 | 7.0 | 0.00 | 0.00 | 0.00 | 57 | 1004.0 |
| 20260901125638 | 54 | 142 | 1.0 | 7.0 | 0.00 | 0.00 | 0.00 | 57 | 1004.0 |
| 20260901125608 | 54 | 142 | 1.0 | 7.0 | 0.00 | 0.00 | 0.00 | 57 | 1004.0 |
| 20260901125443 | 54 | 142 | 2.0 | 7.0 | 0.00 | 0.00 | 0.00 | 57 | 1004.0 |
| 20260901125409 | 54 | 142 | 3.0 | 7.0 | 0.00 | 0.00 | 0.00 | 57 | 1004.0 |
| 20260901125245 | 54 | 142 | 3.0 | 7.0 | 0.00 | 0.00 | 0.00 | 57 | 1004.0 |
| 20260901125152 | 55 | 142 | 4.0 | 7.0 | 0.00 | 0.00 | 0.00 | 57 | 1004.0 |
| 20260901125115 | 55 | 142 | 4.0 | 7.0 | 0.00 | 0.00 | 0.00 | 57 | 1004.0 |
| 20260901124950 | 55 | 142 | 4.0 | 7.0 | 0.00 | 0.00 | 0.00 | 57 | 1003.9 |
| 20260901124856 | 55 | 142 | 3.0 | 5.0 | 0.00 | 0.00 | 0.00 | 57 | 1004.0 |
| 20260901124737 | 55 | 142 | 2.0 | 5.0 | 0.00 | 0.00 | 0.00 | 56 | 1004.0 |
| 20260901124656 | 55 | 142 | 1.0 | 4.0 | 0.00 | 0.00 | 0.00 | 56 | 1004.0 |
| 20260901124619 | 55 | 142 | 1.0 | 4.0 | 0.00 | 0.00 | 0.00 | 56 | 1004.0 |
| 20260901124503 | 55 | 142 | 1.0 | 4.0 | 0.00 | 0.00 | 0.00 | 57 | 1004.0 |
| 20260901124339 | 55 | 142 | 2.0 | 4.0 | 0.00 | 0.00 | 0.00 | 57 | 1004.0 |
| 20260901124235 | 55 | 142 | 2.0 | 4.0 | 0.00 | 0.00 | 0.00 | 57 | 1004.0 |
| 20260901124144 | 55 | 142 | 2.0 | 4.0 | 0.00 | 0.00 | 0.00 | 57 | 1004.0 |
| 20260901124042 | 55 | 142 | 2.0 | 4.0 | 0.00 | 0.00 | 0.00 | 57 | 1004.0 |
| 20260901123948 | 55 | 142 | 2.0 | 4.0 | 0.00 | 0.00 | 0.00 | 58 | 1004.0 |
| 20260901123843 | 55 | 142 | 2.0 | 4.0 | 0.00 | 0.00 | 0.00 | 58 | 1004.0 |
| 20260901123749 | 55 | 142 | 3.0 | 4.0 | 0.00 | 0.00 | 0.00 | 58 | 1004.0 |
| 20260901123717 | 55 | 142 | 3.0 | 4.0 | 0.00 | 0.00 | 0.00 | 58 | 1004.1 |
| 20260901123550 | 55 | 142 | 3.0 | 4.0 | 0.00 | 0.00 | 0.00 | 58 | 1004.1 |
| 20260901123448 | 55 | 142 | 2.0 | 4.0 | 0.00 | 0.00 | 0.00 | 59 | 1004.0 |
| 20260901123354 | 55 | 142 | 2.0 | 4.0 | 0.00 | 0.00 | 0.00 | 59 | 1004.0 |
| 20260901123235 | 55 | 142 | 2.0 | 5.0 | 0.00 | 0.00 | 0.00 | 59 | 1004.0 |
| 20260901123202 | 55 | 142 | 2.0 | 5.0 | 0.00 | 0.00 | 0.00 | 59 | 1004.0 |
| 20260901123037 | 55 | 142 | 2.0 | 7.0 | 0.00 | 0.00 | 0.00 | 59 | 1004.0 |
| 20260901122953 | 55 | 142 | 1.0 | 7.0 | 0.00 | 0.00 | 0.00 | 59 | 1004.0 |
| 20260901122859 | 55 | 142 | 1.0 | 7.0 | 0.00 | 0.00 | 0.00 | 59 | 1004.0 |
| 20260901122736 | 55 | 142 | 2.0 | 9.0 | 0.00 | 0.00 | 0.00 | 59 | 1004.0 |
| 20260901122647 | 55 | 142 | 2.0 | 9.0 | 0.00 | 0.00 | 0.00 | 59 | 1004.0 |
| 20260901122542 | 55 | 142 | 3.0 | 9.0 | 0.00 | 0.00 | 0.00 | 59 | 1003.9 |
| 20260901122505 | 55 | 142 | 3.0 | 9.0 | 0.00 | 0.00 | 0.00 | 59 | 1004.0 |
| 20260901122409 | 55 | 142 | 4.0 | 9.0 | 0.00 | 0.00 | 0.00 | 59 | 1004.0 |
| 20260901122244 | 55 | 142 | 4.0 | 9.0 | 0.00 | 0.00 | 0.00 | 59 | 1004.0 |
| 20260901122152 | 55 | 142 | 3.0 | 9.0 | 0.00 | 0.00 | 0.00 | 59 | 1004.0 |
| 20260901122048 | 55 | 143 | 4.0 | 9.0 | 0.00 | 0.00 | 0.00 | 59 | 1004.0 |
| 20260901121941 | 55 | 143 | 6.0 | 9.0 | 0.00 | 0.00 | 0.00 | 59 | 1004.0 |
| 20260901121850 | 55 | 143 | 5.0 | 9.0 | 0.00 | 0.00 | 0.00 | 58 | 1004.0 |
| 20260901121747 | 55 | 139 | 5.0 | 7.0 | 0.00 | 0.00 | 0.00 | 59 | 1004.0 |
| 20260901121654 | 55 | 136 | 5.0 | 7.0 | 0.00 | 0.00 | 0.00 | 59 | 1004.0 |
| 20260901121546 | 55 | 129 | 4.0 | 7.0 | 0.00 | 0.00 | 0.00 | 59 | 1004.0 |
| 20260901121452 | 55 | 111 | 4.0 | 7.0 | 0.00 | 0.00 | 0.00 | 58 | 1004.0 |
| 20260901121344 | 55 | 109 | 3.0 | 7.0 | 0.00 | 0.00 | 0.00 | 58 | 1004.1 |
| 20260901121250 | 55 | 105 | 3.0 | 7.0 | 0.00 | 0.00 | 0.00 | 58 | 1004.1 |
| 20260901121154 | 55 | 105 | 3.0 | 7.0 | 0.00 | 0.00 | 0.00 | 58 | 1004.0 |
| 20260901121058 | 55 | 102 | 3.0 | 7.0 | 0.00 | 0.00 | 0.00 | 58 | 1004.1 |
| 20260901120956 | 55 | 102 | 3.0 | 7.0 | 0.00 | 0.00 | 0.00 | 58 | 1004.0 |
| 20260901120901 | 55 | 102 | 2.0 | 7.0 | 0.00 | 0.00 | 0.00 | 58 | 1004.1 |
| 20260901120739 | 55 | 102 | 3.0 | 7.0 | 0.00 | 0.00 | 0.00 | 58 | 1004.0 |
| 20260901120638 | 55 | 102 | 3.0 | 7.0 | 0.00 | 0.00 | 0.00 | 58 | 1004.0 |
| 20260901120541 | 55 | 101 | 3.0 | 7.0 | 0.00 | 0.00 | 0.00 | 58 | 1004.0 |
| 20260901120439 | 55 | 94 | 3.0 | 6.0 | 0.00 | 0.00 | 0.00 | 57 | 1004.0 |
| 20260901120405 | 55 | 19 | 2.0 | 3.0 | 0.00 | 0.00 | 0.00 | 57 | 1004.0 |
| 20260901120301 | 55 | 10 | 2.0 | 3.0 | 0.00 | 0.00 | 0.00 | 57 | 1004.0 |
| 20260901120146 | 55 | 10 | 1.0 | 3.0 | 0.00 | 0.00 | 0.00 | 57 | 1004.0 |
| 20260901120109 | 55 | 10 | 0.0 | 3.0 | 0.00 | 0.00 | 0.00 | 57 | 1004.0 |
| 20260901115943 | 55 | 10 | 1.0 | 3.0 | 0.00 | 0.00 | 0.00 | 57 | 1004.0 |
| 20260901115849 | 55 | 10 | 2.0 | 3.0 | 0.00 | 0.00 | 0.00 | 56 | 1004.0 |
| 20260901115750 | 55 | 10 | 2.0 | 3.0 | 0.00 | 0.00 | 0.00 | 56 | 1004.0 |
| 20260901115658 | 55 | 10 | 1.0 | 3.0 | 0.00 | 0.00 | 0.00 | 56 | 1004.0 |
| 20260901115553 | 55 | 10 | 1.0 | 3.0 | 0.00 | 0.00 | 0.00 | 55 | 1004.0 |
| 20260901115458 | 55 | 10 | 1.0 | 3.0 | 0.00 | 0.00 | 0.00 | 55 | 1004.0 |
| 20260901115352 | 56 | 10 | 1.0 | 3.0 | 0.00 | 0.00 | 0.00 | 55 | 1004.0 |
| 20260901115249 | 56 | 10 | 1.0 | 3.0 | 0.00 | 0.00 | 0.00 | 56 | 1004.0 |
| 20260901115141 | 56 | 10 | 2.0 | 3.0 | 0.00 | 0.00 | 0.00 | 56 | 1004.1 |
| 20260901115035 | 56 | 10 | 1.0 | 3.0 | 0.00 | 0.00 | 0.00 | 56 | 1004.0 |
| 20260901115002 | 56 | 10 | 1.0 | 3.0 | 0.00 | 0.00 | 0.00 | 56 | 1004.1 |
| 20260901114859 | 56 | 10 | 1.0 | 3.0 | 0.00 | 0.00 | 0.00 | 56 | 1004.0 |
| 20260901114743 | 56 | 10 | 1.0 | 2.0 | 0.00 | 0.00 | 0.00 | 56 | 1004.0 |
| 20260901114651 | 56 | 10 | 1.0 | 2.0 | 0.00 | 0.00 | 0.00 | 55 | 1004.1 |
| 20260901114543 | 56 | 10 | 1.0 | 2.0 | 0.00 | 0.00 | 0.00 | 55 | 1004.1 |
| 20260901114509 | 56 | 10 | 1.0 | 2.0 | 0.00 | 0.00 | 0.00 | 54 | 1004.1 |
| 20260901114344 | 56 | 10 | 1.0 | 2.0 | 0.00 | 0.00 | 0.00 | 55 | 1004.1 |
| 20260901114255 | 56 | 10 | 1.0 | 2.0 | 0.00 | 0.00 | 0.00 | 55 | 1004.1 |
| 20260901114154 | 56 | 10 | 1.0 | 2.0 | 0.00 | 0.00 | 0.00 | 55 | 1004.0 |
| 20260901114059 | 56 | 10 | 0.0 | 1.0 | 0.00 | 0.00 | 0.00 | 55 | 1004.1 |
| 20260901114015 | 56 | 10 | 0.0 | 1.0 | 0.00 | 0.00 | 0.00 | 55 | 1004.0 |
| 20260901113900 | 56 | 10 | 0.0 | 2.0 | 0.00 | 0.00 | 0.00 | 54 | 1004.1 |
| 20260901113737 | 56 | 10 | 0.0 | 2.0 | 0.00 | 0.00 | 0.00 | 54 | 1004.1 |
| 20260901113641 | 56 | 10 | 0.0 | 2.0 | 0.00 | 0.00 | 0.00 | 53 | 1004.0 |
| 20260901113545 | 56 | 10 | 0.0 | 2.0 | 0.00 | 0.00 | 0.00 | 53 | 1004.1 |
| 20260901113442 | 56 | 10 | 0.0 | 2.0 | 0.00 | 0.00 | 0.00 | 53 | 1004.0 |
| 20260901113349 | 57 | 10 | 0.0 | 2.0 | 0.00 | 0.00 | 0.00 | 53 | 1004.0 |
| 20260901113245 | 57 | 10 | 0.0 | 2.0 | 0.00 | 0.00 | 0.00 | 53 | 1004.0 |
| 20260901113144 | 57 | 10 | 1.0 | 2.0 | 0.00 | 0.00 | 0.00 | 53 | 1004.0 |
| 20260901113049 | 57 | 10 | 1.0 | 2.0 | 0.00 | 0.00 | 0.00 | 53 | 1004.0 |
| 20260901112950 | 57 | 10 | 1.0 | 4.0 | 0.00 | 0.00 | 0.00 | 53 | 1004.0 |
| 20260901112855 | 57 | 10 | 0.0 | 4.0 | 0.00 | 0.00 | 0.00 | 53 | 1004.0 |
| 20260901112751 | 57 | 10 | 0.0 | 4.0 | 0.00 | 0.00 | 0.00 | 53 | 1004.0 |
| 20260901112700 | 57 | 10 | 0.0 | 4.0 | 0.00 | 0.00 | 0.00 | 52 | 1004.0 |
| 20260901112625 | 57 | 10 | 0.0 | 4.0 | 0.00 | 0.00 | 0.00 | 52 | 1004.0 |
| 20260901112459 | 57 | 10 | 0.0 | 4.0 | 0.00 | 0.00 | 0.00 | 52 | 1004.0 |
| 20260901112424 | 57 | 10 | 1.0 | 4.0 | 0.00 | 0.00 | 0.00 | 52 | 1004.0 |
| 20260901112258 | 57 | 10 | 2.0 | 4.0 | 0.00 | 0.00 | 0.00 | 53 | 1004.0 |
| 20260901112150 | 57 | 10 | 3.0 | 4.0 | 0.00 | 0.00 | 0.00 | 53 | 1004.0 |
| 20260901112044 | 57 | 10 | 3.0 | 4.0 | 0.00 | 0.00 | 0.00 | 53 | 1003.9 |
| 20260901111941 | 57 | 10 | 3.0 | 4.0 | 0.00 | 0.00 | 0.00 | 52 | 1004.0 |
| 20260901111846 | 57 | 10 | 3.0 | 4.0 | 0.00 | 0.00 | 0.00 | 52 | 1004.0 |
| 20260901111743 | 57 | 1 | 3.0 | 4.0 | 0.00 | 0.00 | 0.00 | 52 | 1004.0 |
| 20260901111652 | 57 | 1 | 2.0 | 4.0 | 0.00 | 0.00 | 0.00 | 51 | 1004.0 |
| 20260901111548 | 57 | 352 | 2.0 | 3.0 | 0.00 | 0.00 | 0.00 | 51 | 1004.0 |
| 20260901111444 | 57 | 350 | 2.0 | 3.0 | 0.00 | 0.00 | 0.00 | 51 | 1004.0 |
| 20260901111410 | 57 | 350 | 1.0 | 3.0 | 0.00 | 0.00 | 0.00 | 51 | 1004.0 |
| 20260901111314 | 58 | 349 | 1.0 | 2.0 | 0.00 | 0.00 | 0.00 | 51 | 1004.0 |
| 20260901111152 | 58 | 349 | 1.0 | 3.0 | 0.00 | 0.00 | 0.00 | 51 | 1004.0 |
| 20260901111055 | 58 | 348 | 0.0 | 3.0 | 0.00 | 0.00 | 0.00 | 50 | 1003.9 |
| 20260901110952 | 58 | 348 | 0.0 | 3.0 | 0.00 | 0.00 | 0.00 | 50 | 1004.0 |
| 20260901110858 | 58 | 348 | 0.0 | 3.0 | 0.00 | 0.00 | 0.00 | 50 | 1004.0 |
| 20260901110739 | 58 | 348 | 0.0 | 3.0 | 0.00 | 0.00 | 0.00 | 50 | 1004.0 |
| 20260901110707 | 58 | 348 | 1.0 | 3.0 | 0.00 | 0.00 | 0.00 | 50 | 1004.0 |
| 20260901110541 | 58 | 348 | 1.0 | 3.0 | 0.00 | 0.00 | 0.00 | 50 | 1004.0 |
| 20260901110437 | 58 | 348 | 2.0 | 3.0 | 0.00 | 0.00 | 0.00 | 50 | 1004.0 |
| 20260901110341 | 58 | 348 | 2.0 | 3.0 | 0.00 | 0.00 | 0.00 | 49 | 1004.0 |
| 20260901110257 | 58 | 348 | 1.0 | 3.0 | 0.00 | 0.00 | 0.00 | 49 | 1004.0 |
| 20260901110202 | 58 | 348 | 1.0 | 2.0 | 0.00 | 0.00 | 0.00 | 49 | 1004.0 |
| 20260901110049 | 58 | 348 | 1.0 | 2.0 | 0.00 | 0.00 | 0.00 | 48 | 1004.0 |
| 20260901105945 | 58 | 348 | 1.0 | 2.0 | 0.00 | 0.00 | 0.00 | 48 | 1004.0 |
| 20260901105851 | 58 | 348 | 1.0 | 2.0 | 0.00 | 0.00 | 0.00 | 48 | 1003.9 |
| 20260901105748 | 58 | 348 | 0.0 | 1.0 | 0.00 | 0.00 | 0.00 | 48 | 1004.0 |
| 20260901105657 | 58 | 348 | 0.0 | 1.0 | 0.00 | 0.00 | 0.00 | 48 | 1004.0 |
| 20260901105553 | 58 | 348 | 0.0 | 1.0 | 0.00 | 0.00 | 0.00 | 48 | 1004.0 |
| 20260901105448 | 58 | 348 | 0.0 | 2.0 | 0.00 | 0.00 | 0.00 | 48 | 1004.0 |
| 20260901105337 | 58 | 348 | 0.0 | 2.0 | 0.00 | 0.00 | 0.00 | 47 | 1004.0 |
| 20260901105305 | 59 | 348 | 1.0 | 2.0 | 0.00 | 0.00 | 0.00 | 47 | 1004.0 |
| 20260901105140 | 59 | 348 | 0.0 | 2.0 | 0.00 | 0.00 | 0.00 | 47 | 1004.0 |
| 20260901105105 | 59 | 348 | 0.0 | 2.0 | 0.00 | 0.00 | 0.00 | 47 | 1004.0 |
| 20260901105009 | 59 | 348 | 0.0 | 2.0 | 0.00 | 0.00 | 0.00 | 46 | 1004.0 |
| 20260901104845 | 59 | 348 | 1.0 | 2.0 | 0.00 | 0.00 | 0.00 | 46 | 1003.9 |
| 20260901104742 | 59 | 348 | 1.0 | 2.0 | 0.00 | 0.00 | 0.00 | 45 | 1004.0 |
| 20260901104650 | 59 | 348 | 1.0 | 2.0 | 0.00 | 0.00 | 0.00 | 45 | 1004.0 |
| 20260901104618 | 59 | 348 | 0.0 | 2.0 | 0.00 | 0.00 | 0.00 | 45 | 1004.0 |
| 20260901104514 | 59 | 348 | 0.0 | 2.0 | 0.00 | 0.00 | 0.00 | 45 | 1004.0 |
| 20260901104356 | 59 | 348 | 0.0 | 2.0 | 0.00 | 0.00 | 0.00 | 44 | 1004.0 |
| 20260901104302 | 59 | 348 | 0.0 | 2.0 | 0.00 | 0.00 | 0.00 | 44 | 1004.0 |
| 20260901104140 | 59 | 348 | 0.0 | 2.0 | 0.00 | 0.00 | 0.00 | 45 | 1004.0 |
| 20260901104035 | 59 | 348 | 0.0 | 2.0 | 0.00 | 0.00 | 0.00 | 44 | 1004.0 |
| 20260901103941 | 59 | 348 | 0.0 | 2.0 | 0.00 | 0.00 | 0.00 | 45 | 1004.0 |
| 20260901103839 | 59 | 348 | 1.0 | 2.0 | 0.00 | 0.00 | 0.00 | 45 | 1004.0 |
| 20260901103809 | 59 | 348 | 1.0 | 2.0 | 0.00 | 0.00 | 0.00 | 44 | 1004.0 |
| 20260901103658 | 59 | 348 | 1.0 | 2.0 | 0.00 | 0.00 | 0.00 | 44 | 1004.0 |
| 20260901103554 | 59 | 348 | 1.0 | 2.0 | 0.00 | 0.00 | 0.00 | 44 | 1004.0 |
| 20260901103459 | 59 | 348 | 1.0 | 2.0 | 0.00 | 0.00 | 0.00 | 44 | 1004.1 |
| 20260901103335 | 59 | 348 | 0.0 | 0.0 | 0.00 | 0.00 | 0.00 | 44 | 1004.1 |
| 20260901103252 | 59 | 348 | 0.0 | 0.0 | 0.00 | 0.00 | 0.00 | 44 | 1004.1 |
| 20260901103141 | 59 | 348 | 0.0 | 0.0 | 0.00 | 0.00 | 0.00 | 44 | 1004.1 |
| 20260901103039 | 59 | 348 | 0.0 | 0.0 | 0.00 | 0.00 | 0.00 | 44 | 1004.1 |
| 20260901102936 | 59 | 348 | 0.0 | 0.0 | 0.00 | 0.00 | 0.00 | 44 | 1004.1 |
| 20260901102842 | 59 | 348 | 0.0 | 0.0 | 0.00 | 0.00 | 0.00 | 44 | 1004.1 |
| 20260901102808 | 59 | 348 | 0.0 | 0.0 | 0.00 | 0.00 | 0.00 | 44 | 1004.1 |
| 20260901102706 | 59 | 348 | 0.0 | 0.0 | 0.00 | 0.00 | 0.00 | 44 | 1004.2 |
| 20260901102548 | 59 | 348 | 0.0 | 0.0 | 0.00 | 0.00 | 0.00 | 44 | 1004.2 |
| 20260901102443 | 59 | 348 | 0.0 | 0.0 | 0.00 | 0.00 | 0.00 | 44 | 1004.2 |
| 20260901102353 | 59 | 348 | 0.0 | 0.0 | 0.00 | 0.00 | 0.00 | 44 | 1004.2 |
| 20260901102248 | 59 | 348 | 0.0 | 0.0 | 0.00 | 0.00 | 0.00 | 44 | 1004.2 |
| 20260901102157 | 59 | 348 | 0.0 | 0.0 | 0.00 | 0.00 | 0.00 | 44 | 1004.1 |
| 20260901102052 | 59 | 348 | 0.0 | 0.0 | 0.00 | 0.00 | 0.00 | 44 | 1004.1 |
| 20260901101956 | 59 | 348 | 0.0 | 0.0 | 0.00 | 0.00 | 0.00 | 44 | 1004.2 |
| 20260901101853 | 59 | 348 | 0.0 | 0.0 | 0.00 | 0.00 | 0.00 | 44 | 1004.1 |
| 20260901101800 | 59 | 348 | 0.0 | 0.0 | 0.00 | 0.00 | 0.00 | 44 | 1004.1 |
| 20260901101642 | 59 | 348 | 0.0 | 0.0 | 0.00 | 0.00 | 0.00 | 43 | 1004.1 |
| 20260901101538 | 59 | 348 | 0.0 | 0.0 | 0.00 | 0.00 | 0.00 | 44 | 1004.1 |
| 20260901101502 | 59 | 348 | 0.0 | 0.0 | 0.00 | 0.00 | 0.00 | 44 | 1004.1 |
| 20260901101338 | 59 | 348 | 0.0 | 0.0 | 0.00 | 0.00 | 0.00 | 43 | 1004.1 |
| 20260901101235 | 59 | 348 | 0.0 | 0.0 | 0.00 | 0.00 | 0.00 | 44 | 1004.2 |
| 20260901101141 | 59 | 348 | 0.0 | 0.0 | 0.00 | 0.00 | 0.00 | 43 | 1004.2 |
| 20260901101035 | 59 | 348 | 0.0 | 0.0 | 0.00 | 0.00 | 0.00 | 43 | 1004.1 |
| 20260901100944 | 59 | 348 | 0.0 | 0.0 | 0.00 | 0.00 | 0.00 | 43 | 1004.1 |
| 20260901100909 | 59 | 348 | 0.0 | 0.0 | 0.00 | 0.00 | 0.00 | 43 | 1004.2 |
| 20260901100744 | 59 | 348 | 0.0 | 0.0 | 0.00 | 0.00 | 0.00 | 43 | 1004.2 |
| 20260901100653 | 60 | 348 | 0.0 | 0.0 | 0.00 | 0.00 | 0.00 | 43 | 1004.2 |
| 20260901100549 | 60 | 348 | 0.0 | 0.0 | 0.00 | 0.00 | 0.00 | 43 | 1004.2 |
| 20260901100453 | 60 | 348 | 0.0 | 0.0 | 0.00 | 0.00 | 0.00 | 43 | 1004.2 |
| 20260901100350 | 60 | 348 | 0.0 | 0.0 | 0.00 | 0.00 | 0.00 | 43 | 1004.2 |
| 20260901100310 | 60 | 348 | 0.0 | 0.0 | 0.00 | 0.00 | 0.00 | 43 | 1004.2 |
| 20260901100137 | 60 | 348 | 0.0 | 0.0 | 0.00 | 0.00 | 0.00 | 43 | 1004.2 |
| 20260901100101 | 60 | 348 | 0.0 | 0.0 | 0.00 | 0.00 | 0.00 | 43 | 1004.2 |
| 20260901095938 | 60 | 348 | 0.0 | 0.0 | 0.00 | 0.00 | 0.00 | 43 | 1004.2 |
| 20260901095835 | 60 | 348 | 0.0 | 0.0 | 0.00 | 0.00 | 0.00 | 43 | 1004.2 |
| 20260901095742 | 60 | 348 | 0.0 | 0.0 | 0.00 | 0.00 | 0.00 | 43 | 1004.2 |
| 20260901095643 | 60 | 348 | 0.0 | 0.0 | 0.00 | 0.00 | 0.00 | 43 | 1004.2 |
| 20260901095537 | 60 | 348 | 0.0 | 0.0 | 0.00 | 0.00 | 0.00 | 43 | 1004.2 |
| 20260901095442 | 60 | 348 | 0.0 | 0.0 | 0.00 | 0.00 | 0.00 | 43 | 1004.2 |
| 20260901095339 | 60 | 348 | 0.0 | 0.0 | 0.00 | 0.00 | 0.00 | 43 | 1004.2 |
| 20260901095244 | 60 | 348 | 0.0 | 0.0 | 0.00 | 0.00 | 0.00 | 43 | 1004.2 |
| 20260901095144 | 60 | 348 | 0.0 | 0.0 | 0.00 | 0.00 | 0.00 | 43 | 1004.3 |
| 20260901095040 | 60 | 348 | 0.0 | 0.0 | 0.00 | 0.00 | 0.00 | 43 | 1004.3 |
| 20260901094950 | 60 | 348 | 0.0 | 0.0 | 0.00 | 0.00 | 0.00 | 43 | 1004.3 |
| 20260901094854 | 60 | 348 | 0.0 | 0.0 | 0.00 | 0.00 | 0.00 | 43 | 1004.3 |
| 20260901094749 | 60 | 348 | 0.0 | 0.0 | 0.00 | 0.00 | 0.00 | 43 | 1004.3 |
| 20260901094657 | 60 | 348 | 0.0 | 0.0 | 0.00 | 0.00 | 0.00 | 43 | 1004.3 |
| 20260901094551 | 60 | 348 | 0.0 | 0.0 | 0.00 | 0.00 | 0.00 | 43 | 1004.3 |
| 20260901094446 | 60 | 348 | 0.0 | 0.0 | 0.00 | 0.00 | 0.00 | 43 | 1004.2 |
| 20260901094352 | 60 | 348 | 0.0 | 0.0 | 0.00 | 0.00 | 0.00 | 43 | 1004.2 |
| 20260901094300 | 60 | 348 | 0.0 | 0.0 | 0.00 | 0.00 | 0.00 | 43 | 1004.2 |
| 20260901094140 | 60 | 348 | 0.0 | 0.0 | 0.00 | 0.00 | 0.00 | 42 | 1004.2 |
| 20260901094035 | 60 | 348 | 0.0 | 0.0 | 0.00 | 0.00 | 0.00 | 42 | 1004.2 |
| 20260901094001 | 60 | 348 | 0.0 | 0.0 | 0.00 | 0.00 | 0.00 | 43 | 1004.2 |
| 20260901093837 | 60 | 348 | 0.0 | 0.0 | 0.00 | 0.00 | 0.00 | 42 | 1004.2 |
| 20260901093803 | 60 | 348 | 0.0 | 0.0 | 0.00 | 0.00 | 0.00 | 42 | 1004.2 |
| 20260901093641 | 60 | 348 | 0.0 | 0.0 | 0.00 | 0.00 | 0.00 | 42 | 1004.2 |
| 20260901093547 | 60 | 348 | 0.0 | 0.0 | 0.00 | 0.00 | 0.00 | 42 | 1004.2 |
| 20260901093444 | 60 | 348 | 0.0 | 0.0 | 0.00 | 0.00 | 0.00 | 42 | 1004.3 |
| 20260901093350 | 60 | 348 | 0.0 | 0.0 | 0.00 | 0.00 | 0.00 | 42 | 1004.3 |
| 20260901093247 | 60 | 348 | 0.0 | 0.0 | 0.00 | 0.00 | 0.00 | 42 | 1004.3 |
| 20260901093147 | 61 | 348 | 0.0 | 0.0 | 0.00 | 0.00 | 0.00 | 42 | 1004.3 |
| 20260901093049 | 61 | 348 | 0.0 | 0.0 | 0.00 | 0.00 | 0.00 | 42 | 1004.3 |
| 20260901092945 | 61 | 348 | 0.0 | 0.0 | 0.00 | 0.00 | 0.00 | 42 | 1004.3 |
| 20260901092856 | 61 | 348 | 0.0 | 0.0 | 0.00 | 0.00 | 0.00 | 41 | 1004.4 |
| 20260901092803 | 61 | 348 | 0.0 | 0.0 | 0.00 | 0.00 | 0.00 | 41 | 1004.3 |
| 20260901092640 | 61 | 348 | 0.0 | 0.0 | 0.00 | 0.00 | 0.00 | 41 | 1004.3 |
| 20260901092556 | 61 | 348 | 0.0 | 0.0 | 0.00 | 0.00 | 0.00 | 42 | 1004.3 |
| 20260901092441 | 61 | 348 | 0.0 | 0.0 | 0.00 | 0.00 | 0.00 | 41 | 1004.3 |
| 20260901092338 | 61 | 348 | 0.0 | 0.0 | 0.00 | 0.00 | 0.00 | 41 | 1004.3 |
| 20260901092245 | 61 | 348 | 0.0 | 0.0 | 0.00 | 0.00 | 0.00 | 41 | 1004.3 |
| 20260901092149 | 61 | 348 | 0.0 | 0.0 | 0.00 | 0.00 | 0.00 | 41 | 1004.2 |
| 20260901092051 | 61 | 348 | 0.0 | 0.0 | 0.00 | 0.00 | 0.00 | 41 | 1004.2 |
| 20260901091948 | 62 | 348 | 0.0 | 0.0 | 0.00 | 0.00 | 0.00 | 41 | 1004.2 |
| 20260901091852 | 62 | 348 | 0.0 | 0.0 | 0.00 | 0.00 | 0.00 | 41 | 1004.2 |
| 20260901091759 | 62 | 348 | 0.0 | 0.0 | 0.00 | 0.00 | 0.00 | 41 | 1004.2 |
| 20260901091638 | 62 | 348 | 0.0 | 0.0 | 0.00 | 0.00 | 0.00 | 40 | 1004.2 |
| 20260901091553 | 62 | 348 | 0.0 | 0.0 | 0.00 | 0.00 | 0.00 | 40 | 1004.2 |
| 20260901091503 | 62 | 348 | 0.0 | 0.0 | 0.00 | 0.00 | 0.00 | 40 | 1004.2 |
| 20260901091338 | 62 | 348 | 0.0 | 0.0 | 0.00 | 0.00 | 0.00 | 40 | 1004.3 |
| 20260901091305 | 62 | 348 | 0.0 | 0.0 | 0.00 | 0.00 | 0.00 | 40 | 1004.3 |
| 20260901091143 | 62 | 348 | 0.0 | 0.0 | 0.00 | 0.00 | 0.00 | 40 | 1004.3 |
| 20260901091047 | 62 | 348 | 0.0 | 0.0 | 0.00 | 0.00 | 0.00 | 40 | 1004.3 |
| 20260901090945 | 62 | 348 | 0.0 | 0.0 | 0.00 | 0.00 | 0.00 | 40 | 1004.3 |
| 20260901090910 | 62 | 348 | 0.0 | 0.0 | 0.00 | 0.00 | 0.00 | 40 | 1004.3 |
| 20260901090756 | 62 | 348 | 0.0 | 0.0 | 0.00 | 0.00 | 0.00 | 40 | 1004.4 |
| 20260901090637 | 62 | 348 | 0.0 | 0.0 | 0.00 | 0.00 | 0.00 | 40 | 1004.4 |
| 20260901090551 | 62 | 348 | 0.0 | 0.0 | 0.00 | 0.00 | 0.00 | 40 | 1004.3 |
| 20260901090456 | 62 | 348 | 0.0 | 0.0 | 0.00 | 0.00 | 0.00 | 40 | 1004.4 |
| 20260901090350 | 62 | 348 | 0.0 | 0.0 | 0.00 | 0.00 | 0.00 | 40 | 1004.3 |
| 20260901090248 | 62 | 348 | 0.0 | 0.0 | 0.00 | 0.00 | 0.00 | 40 | 1004.3 |
| 20260901090204 | 62 | 348 | 0.0 | 0.0 | 0.00 | 0.00 | 0.00 | 40 | 1004.3 |
| 20260901090042 | 62 | 348 | 0.0 | 0.0 | 0.00 | 0.00 | 0.00 | 40 | 1004.3 |
| 20260901085939 | 62 | 348 | 0.0 | 0.0 | 0.00 | 0.00 | 0.00 | 40 | 1004.3 |
| 20260901085844 | 62 | 348 | 0.0 | 0.0 | 0.00 | 0.00 | 0.00 | 40 | 1004.3 |
| 20260901085749 | 62 | 348 | 0.0 | 0.0 | 0.00 | 0.00 | 0.00 | 40 | 1004.3 |
| 20260901085648 | 63 | 348 | 0.0 | 0.0 | 0.00 | 0.00 | 0.00 | 40 | 1004.3 |
| 20260901085613 | 63 | 348 | 0.0 | 0.0 | 0.00 | 0.00 | 0.00 | 40 | 1004.3 |
| 20260901085449 | 63 | 348 | 0.0 | 0.0 | 0.00 | 0.00 | 0.00 | 40 | 1004.3 |
| 20260901085355 | 63 | 348 | 0.0 | 0.0 | 0.00 | 0.00 | 0.00 | 40 | 1004.3 |
| 20260901085237 | 63 | 348 | 0.0 | 0.0 | 0.00 | 0.00 | 0.00 | 40 | 1004.3 |
| 20260901085136 | 63 | 348 | 0.0 | 0.0 | 0.00 | 0.00 | 0.00 | 40 | 1004.3 |
| 20260901085042 | 63 | 348 | 0.0 | 0.0 | 0.00 | 0.00 | 0.00 | 40 | 1004.3 |
| 20260901084938 | 63 | 348 | 0.0 | 0.0 | 0.00 | 0.00 | 0.00 | 40 | 1004.3 |
| 20260901084845 | 63 | 348 | 0.0 | 0.0 | 0.00 | 0.00 | 0.00 | 40 | 1004.3 |
| 20260901084739 | 63 | 348 | 0.0 | 0.0 | 0.00 | 0.00 | 0.00 | 40 | 1004.3 |
| 20260901084648 | 63 | 348 | 0.0 | 0.0 | 0.00 | 0.00 | 0.00 | 40 | 1004.3 |
| 20260901084547 | 63 | 348 | 0.0 | 0.0 | 0.00 | 0.00 | 0.00 | 40 | 1004.3 |
| 20260901084452 | 63 | 348 | 0.0 | 0.0 | 0.00 | 0.00 | 0.00 | 39 | 1004.4 |
| 20260901084408 | 63 | 348 | 0.0 | 0.0 | 0.00 | 0.00 | 0.00 | 39 | 1004.3 |
| 20260901084313 | 63 | 348 | 0.0 | 0.0 | 0.00 | 0.00 | 0.00 | 40 | 1004.4 |
| 20260901084201 | 63 | 348 | 0.0 | 0.0 | 0.00 | 0.00 | 0.00 | 40 | 1004.3 |
| 20260901084036 | 63 | 348 | 0.0 | 0.0 | 0.00 | 0.00 | 0.00 | 40 | 1004.4 |
| 20260901083952 | 63 | 348 | 0.0 | 0.0 | 0.00 | 0.00 | 0.00 | 40 | 1004.3 |
| 20260901083902 | 63 | 348 | 0.0 | 0.0 | 0.00 | 0.00 | 0.00 | 40 | 1004.4 |
| 20260901083738 | 63 | 348 | 0.0 | 0.0 | 0.00 | 0.00 | 0.00 | 40 | 1004.3 |
| 20260901083704 | 63 | 348 | 0.0 | 0.0 | 0.00 | 0.00 | 0.00 | 40 | 1004.3 |
| 20260901083538 | 63 | 348 | 0.0 | 0.0 | 0.00 | 0.00 | 0.00 | 39 | 1004.4 |
| 20260901083452 | 63 | 348 | 0.0 | 0.0 | 0.00 | 0.00 | 0.00 | 39 | 1004.4 |
| 20260901083358 | 63 | 348 | 0.0 | 0.0 | 0.00 | 0.00 | 0.00 | 39 | 1004.4 |
| 20260901083238 | 63 | 348 | 0.0 | 0.0 | 0.00 | 0.00 | 0.00 | 39 | 1004.4 |
| 20260901083204 | 63 | 348 | 0.0 | 0.0 | 0.00 | 0.00 | 0.00 | 39 | 1004.4 |
| 20260901083038 | 63 | 348 | 0.0 | 0.0 | 0.00 | 0.00 | 0.00 | 39 | 1004.4 |
| 20260901082942 | 63 | 348 | 0.0 | 0.0 | 0.00 | 0.00 | 0.00 | 39 | 1004.4 |
| 20260901082907 | 63 | 348 | 0.0 | 0.0 | 0.00 | 0.00 | 0.00 | 39 | 1004.4 |
| 20260901082803 | 63 | 348 | 0.0 | 0.0 | 0.00 | 0.00 | 0.00 | 39 | 1004.4 |
| 20260901082711 | 63 | 348 | 0.0 | 0.0 | 0.00 | 0.00 | 0.00 | 39 | 1004.4 |
| 20260901082614 | 63 | 348 | 0.0 | 0.0 | 0.00 | 0.00 | 0.00 | 39 | 1004.4 |
| 20260901082450 | 63 | 348 | 0.0 | 0.0 | 0.00 | 0.00 | 0.00 | 39 | 1004.5 |
| 20260901082356 | 63 | 348 | 0.0 | 0.0 | 0.00 | 0.00 | 0.00 | 39 | 1004.4 |
| 20260901082236 | 63 | 348 | 0.0 | 0.0 | 0.00 | 0.00 | 0.00 | 39 | 1004.4 |
| 20260901082145 | 63 | 348 | 0.0 | 0.0 | 0.00 | 0.00 | 0.00 | 39 | 1004.3 |
| 20260901082041 | 63 | 348 | 0.0 | 0.0 | 0.00 | 0.00 | 0.00 | 39 | 1004.4 |
| 20260901081937 | 63 | 348 | 0.0 | 0.0 | 0.00 | 0.00 | 0.00 | 39 | 1004.3 |
| 20260901081843 | 63 | 348 | 0.0 | 0.0 | 0.00 | 0.00 | 0.00 | 39 | 1004.3 |
| 20260901081739 | 63 | 348 | 0.0 | 0.0 | 0.00 | 0.00 | 0.00 | 39 | 1004.4 |
| 20260901081651 | 63 | 348 | 0.0 | 0.0 | 0.00 | 0.00 | 0.00 | 39 | 1004.3 |
| 20260901081555 | 63 | 348 | 0.0 | 0.0 | 0.00 | 0.00 | 0.00 | 39 | 1004.3 |
| 20260901081511 | 63 | 348 | 0.0 | 0.0 | 0.00 | 0.00 | 0.00 | 39 | 1004.3 |
| 20260901081334 | 63 | 348 | 0.0 | 0.0 | 0.00 | 0.00 | 0.00 | 39 | 1004.3 |
| 20260901081259 | 63 | 348 | 0.0 | 0.0 | 0.00 | 0.00 | 0.00 | 39 | 1004.3 |
| 20260901081138 | 63 | 348 | 0.0 | 0.0 | 0.00 | 0.00 | 0.00 | 39 | 1004.3 |
| 20260901081101 | 63 | 348 | 0.0 | 0.0 | 0.00 | 0.00 | 0.00 | 39 | 1004.3 |
| 20260901080938 | 63 | 348 | 0.0 | 0.0 | 0.00 | 0.00 | 0.00 | 39 | 1004.3 |
| 20260901080838 | 63 | 348 | 0.0 | 0.0 | 0.00 | 0.00 | 0.00 | 38 | 1004.4 |
| 20260901080744 | 63 | 348 | 0.0 | 0.0 | 0.00 | 0.00 | 0.00 | 38 | 1004.4 |
| 20260901080643 | 63 | 348 | 0.0 | 0.0 | 0.00 | 0.00 | 0.00 | 38 | 1004.4 |
| 20260901080537 | 63 | 348 | 0.0 | 0.0 | 0.00 | 0.00 | 0.00 | 38 | 1004.4 |
| 20260901080442 | 63 | 348 | 0.0 | 0.0 | 0.00 | 0.00 | 0.00 | 38 | 1004.3 |
| 20260901080338 | 63 | 348 | 0.0 | 0.0 | 0.00 | 0.00 | 0.00 | 38 | 1004.3 |
| 20260901080255 | 63 | 348 | 0.0 | 0.0 | 0.00 | 0.00 | 0.00 | 38 | 1004.3 |
| 20260901080214 | 63 | 348 | 0.0 | 0.0 | 0.00 | 0.00 | 0.00 | 38 | 1004.4 |
| 20260901080046 | 63 | 348 | 0.0 | 0.0 | 0.00 | 0.00 | 0.00 | 38 | 1004.3 |
| 20260901080013 | 63 | 348 | 0.0 | 0.0 | 0.00 | 0.00 | 0.00 | 38 | 1004.3 |
| 20260901075849 | 63 | 348 | 0.0 | 0.0 | 0.00 | 0.00 | 0.00 | 38 | 1004.4 |
| 20260901075753 | 63 | 348 | 0.0 | 0.0 | 0.00 | 0.00 | 0.00 | 38 | 1004.4 |
| 20260901075653 | 63 | 348 | 0.0 | 0.0 | 0.00 | 0.00 | 0.00 | 38 | 1004.4 |
| 20260901075558 | 64 | 348 | 0.0 | 1.0 | 0.00 | 0.00 | 0.00 | 38 | 1004.3 |
| 20260901075437 | 64 | 348 | 0.0 | 1.0 | 0.00 | 0.00 | 0.00 | 38 | 1004.3 |
| 20260901075402 | 64 | 348 | 0.0 | 1.0 | 0.00 | 0.00 | 0.00 | 37 | 1004.3 |
| 20260901075239 | 64 | 348 | 0.0 | 1.0 | 0.00 | 0.00 | 0.00 | 37 | 1004.3 |
| 20260901075140 | 64 | 348 | 0.0 | 1.0 | 0.00 | 0.00 | 0.00 | 37 | 1004.3 |
| 20260901075105 | 64 | 348 | 0.0 | 1.0 | 0.00 | 0.00 | 0.00 | 37 | 1004.3 |
| 20260901074941 | 64 | 348 | 0.0 | 2.0 | 0.00 | 0.00 | 0.00 | 37 | 1004.4 |
| 20260901074845 | 64 | 348 | 0.0 | 2.0 | 0.00 | 0.00 | 0.00 | 37 | 1004.4 |
| 20260901074750 | 64 | 348 | 0.0 | 2.0 | 0.00 | 0.00 | 0.00 | 37 | 1004.4 |
| 20260901074557 | 64 | 348 | 0.0 | 3.0 | 0.00 | 0.00 | 0.00 | 37 | 1004.5 |
| 20260901074514 | 64 | 348 | 0.0 | 3.0 | 0.00 | 0.00 | 0.00 | 37 | 1004.4 |
| 20260901074357 | 64 | 348 | 1.0 | 3.0 | 0.00 | 0.00 | 0.00 | 37 | 1004.5 |
| 20260901074253 | 64 | 348 | 1.0 | 3.0 | 0.00 | 0.00 | 0.00 | 37 | 1004.5 |
| 20260901074140 | 64 | 348 | 1.0 | 3.0 | 0.00 | 0.00 | 0.00 | 37 | 1004.5 |
| 20260901074056 | 64 | 348 | 1.0 | 3.0 | 0.00 | 0.00 | 0.00 | 37 | 1004.5 |
| 20260901073944 | 64 | 348 | 2.0 | 3.0 | 0.00 | 0.00 | 0.00 | 37 | 1004.5 |
| 20260901073910 | 64 | 348 | 2.0 | 3.0 | 0.00 | 0.00 | 0.00 | 37 | 1004.5 |
| 20260901073744 | 64 | 348 | 3.0 | 3.0 | 0.00 | 0.00 | 0.00 | 37 | 1004.5 |
| 20260901073644 | 64 | 348 | 3.0 | 3.0 | 0.00 | 0.00 | 0.00 | 37 | 1004.5 |
| 20260901073549 | 64 | 348 | 2.0 | 3.0 | 0.00 | 0.00 | 0.00 | 37 | 1004.5 |
| 20260901073444 | 64 | 348 | 0.0 | 3.0 | 0.00 | 0.00 | 0.00 | 37 | 1004.5 |
| 20260901073350 | 64 | 348 | 0.0 | 0.0 | 0.00 | 0.00 | 0.00 | 37 | 1004.5 |
| 20260901073250 | 64 | 348 | 0.0 | 0.0 | 0.00 | 0.00 | 0.00 | 37 | 1004.5 |
| 20260901073148 | 64 | 348 | 0.0 | 1.0 | 0.00 | 0.00 | 0.00 | 37 | 1004.5 |
| 20260901073052 | 64 | 348 | 0.0 | 1.0 | 0.00 | 0.00 | 0.00 | 37 | 1004.5 |
| 20260901072948 | 64 | 348 | 0.0 | 2.0 | 0.00 | 0.00 | 0.00 | 37 | 1004.4 |
| 20260901072849 | 64 | 348 | 0.0 | 2.0 | 0.00 | 0.00 | 0.00 | 37 | 1004.5 |
| 20260901072746 | 64 | 348 | 0.0 | 3.0 | 0.00 | 0.00 | 0.00 | 37 | 1004.5 |
| 20260901072654 | 65 | 348 | 0.0 | 3.0 | 0.00 | 0.00 | 0.00 | 37 | 1004.4 |
| 20260901072552 | 65 | 348 | 0.0 | 3.0 | 0.00 | 0.00 | 0.00 | 37 | 1004.5 |
| 20260901072447 | 65 | 348 | 0.0 | 3.0 | 0.00 | 0.00 | 0.00 | 37 | 1004.5 |
| 20260901072353 | 65 | 348 | 0.0 | 3.0 | 0.00 | 0.00 | 0.00 | 37 | 1004.4 |
| 20260901072319 | 65 | 348 | 0.0 | 3.0 | 0.00 | 0.00 | 0.00 | 37 | 1004.4 |
| 20260901072137 | 65 | 348 | 1.0 | 4.0 | 0.00 | 0.00 | 0.00 | 37 | 1004.4 |
| 20260901072052 | 65 | 348 | 2.0 | 4.0 | 0.00 | 0.00 | 0.00 | 37 | 1004.4 |
| 20260901071957 | 65 | 348 | 2.0 | 4.0 | 0.00 | 0.00 | 0.00 | 37 | 1004.4 |
| 20260901071837 | 65 | 348 | 2.0 | 5.0 | 0.00 | 0.00 | 0.00 | 37 | 1004.3 |
| 20260901071804 | 65 | 348 | 2.0 | 5.0 | 0.00 | 0.00 | 0.00 | 37 | 1004.4 |
| 20260901071641 | 65 | 348 | 2.0 | 5.0 | 0.00 | 0.00 | 0.00 | 37 | 1004.4 |
| 20260901071606 | 65 | 348 | 2.0 | 5.0 | 0.00 | 0.00 | 0.00 | 37 | 1004.4 |
| 20260901071442 | 65 | 348 | 2.0 | 5.0 | 0.00 | 0.00 | 0.00 | 37 | 1004.3 |
| 20260901071348 | 65 | 348 | 3.0 | 5.0 | 0.00 | 0.00 | 0.00 | 37 | 1004.3 |
| 20260901071305 | 65 | 348 | 3.0 | 5.0 | 0.00 | 0.00 | 0.00 | 37 | 1004.4 |
| 20260901071136 | 65 | 349 | 4.0 | 5.0 | 0.00 | 0.00 | 0.00 | 37 | 1004.3 |
| 20260901071053 | 65 | 348 | 4.0 | 5.0 | 0.00 | 0.00 | 0.00 | 37 | 1004.3 |
| 20260901070937 | 65 | 349 | 4.0 | 5.0 | 0.00 | 0.00 | 0.00 | 36 | 1004.3 |
| 20260901070901 | 65 | 349 | 4.0 | 5.0 | 0.00 | 0.00 | 0.00 | 36 | 1004.2 |
| 20260901070737 | 65 | 349 | 3.0 | 5.0 | 0.00 | 0.00 | 0.00 | 36 | 1004.2 |
| 20260901070701 | 65 | 349 | 4.0 | 6.0 | 0.00 | 0.00 | 0.00 | 36 | 1004.2 |
| 20260901070610 | 65 | 349 | 3.0 | 6.0 | 0.00 | 0.00 | 0.00 | 36 | 1004.2 |
| 20260901070502 | 65 | 349 | 3.0 | 6.0 | 0.00 | 0.00 | 0.00 | 36 | 1004.2 |
| 20260901070348 | 65 | 349 | 3.0 | 6.0 | 0.00 | 0.00 | 0.00 | 36 | 1004.2 |
| 20260901070300 | 65 | 349 | 3.0 | 6.0 | 0.00 | 0.00 | 0.00 | 36 | 1004.3 |
| 20260901070154 | 65 | 349 | 3.0 | 6.0 | 0.00 | 0.00 | 0.00 | 36 | 1004.3 |
| 20260901070048 | 65 | 349 | 3.0 | 8.0 | 0.00 | 0.00 | 0.00 | 36 | 1004.3 |
| 20260901065953 | 65 | 349 | 4.0 | 8.0 | 0.00 | 0.00 | 0.00 | 36 | 1004.2 |
| 20260901065849 | 65 | 348 | 4.0 | 8.0 | 0.00 | 0.00 | 0.00 | 36 | 1004.3 |
| 20260901065746 | 65 | 348 | 4.0 | 8.0 | 0.00 | 0.00 | 0.00 | 36 | 1004.2 |
| 20260901065638 | 65 | 346 | 4.0 | 8.0 | 0.00 | 0.00 | 0.00 | 35 | 1004.3 |
| 20260901065601 | 65 | 346 | 4.0 | 8.0 | 0.00 | 0.00 | 0.00 | 35 | 1004.3 |
| 20260901065436 | 65 | 345 | 4.0 | 8.0 | 0.00 | 0.00 | 0.00 | 35 | 1004.3 |